[[{"header":{"parameterUnit":"m.s-1","parameterCategory":1,"la1":30.6,"la2":29.2853,"lo1":-89.7004,"lo2":-87.6739,"dy":0.0162,"dx":0.0183,"nx":112,"ny":82,"refTime":"2023-10-07T06:00:00:Z","depth":0,"parameterNumber":2,"parameterNumberName":"U-component_of_WINDS"},"data":[0.0,0.0,0.0,0.0,0.0,0.0,0.0,0.0,0.0,0.0,0.0,0.0,0.0,0.0,0.0,0.0,0.0,0.0,0.0,0.0,0.0,0.0,0.0,0.0,0.0,0.0,0.0,0.0,0.0,0.0,0.0,0.0,0.0,0.0,0.0,0.0,0.0,0.0,0.0,0.0,0.0,0.0,0.0,0.0,0.0,0.0,0.0,0.0,0.0,0.0,0.0,0.0,0.0,0.0,0.0,0.0,0.0,0.0,0.0,0.0,0.0,0.0,0.0,0.0,0.0,0.0,0.0,0.0,0.0,0.0,0.0,0.0,0.0,0.0,0.0,0.0,0.0,0.0,0.0,0.0,0.0,0.0,0.0,0.0,0.0,0.0,0.0,0.0,0.0,0.0,6.2223,6.7793,7.6203,8.1194,8.0546,7.8031,7.3014,6.4794,0.0,0.0,0.0,0.0,0.0,0.0,0.0,0.0,0.0,0.0,0.0,0.0,0.0,0.0,0.0,0.0,0.0,0.0,0.0,0.0,0.0,0.0,0.0,0.0,0.0,0.0,0.0,0.0,0.0,0.0,0.0,0.0,0.0,0.0,0.0,0.0,0.0,0.0,0.0,0.0,0.0,0.0,0.0,0.0,0.0,0.0,0.0,0.0,0.0,0.0,0.0,0.0,0.0,0.0,0.0,0.0,0.0,0.0,0.0,0.0,0.0,0.0,0.0,0.0,0.0,0.0,0.0,0.0,0.0,0.0,0.0,0.0,0.0,0.0,0.0,0.0,0.0,0.0,0.0,0.0,0.0,0.0,0.0,0.0,0.0,0.0,0.0,0.0,0.0,0.0,0.0,0.0,0.0,0.0,0.0,0.0,0.0,0.0,0.0,0.0,0.0,0.0,0.0,0.0,6.4386,7.564,8.0036,8.2381,8.3002,7.6861,7.1493,6.7961,0.0,0.0,0.0,0.0,0.0,0.0,0.0,0.0,0.0,0.0,0.0,0.0,0.0,0.0,0.0,0.0,0.0,0.0,0.0,0.0,0.0,0.0,0.0,0.0,0.0,0.0,0.0,0.0,0.0,0.0,0.0,0.0,0.0,0.0,0.0,0.0,0.0,0.0,0.0,0.0,0.0,0.0,0.0,0.0,0.0,0.0,0.0,0.0,0.0,0.0,0.0,0.0,0.0,0.0,0.0,0.0,0.0,0.0,0.0,0.0,0.0,0.0,0.0,0.0,0.0,0.0,0.0,0.0,0.0,0.0,0.0,0.0,0.0,0.0,0.0,0.0,0.0,0.0,0.0,0.0,0.0,0.0,0.0,0.0,0.0,0.0,0.0,0.0,0.0,0.0,0.0,0.0,0.0,0.0,0.0,0.0,0.0,0.0,0.0,0.0,0.0,0.0,0.0,6.3983,7.0021,8.0238,8.3171,8.435,8.4318,7.8536,7.3316,6.9323,6.3874,0.0,0.0,0.0,0.0,0.0,0.0,0.0,0.0,0.0,0.0,0.0,0.0,0.0,0.0,0.0,0.0,0.0,0.0,0.0,0.0,0.0,0.0,0.0,0.0,0.0,0.0,0.0,0.0,0.0,0.0,0.0,0.0,0.0,0.0,0.0,0.0,0.0,0.0,0.0,0.0,0.0,0.0,0.0,0.0,0.0,0.0,0.0,0.0,0.0,0.0,0.0,0.0,0.0,0.0,0.0,0.0,0.0,0.0,0.0,0.0,0.0,0.0,0.0,0.0,0.0,0.0,0.0,0.0,0.0,0.0,0.0,0.0,0.0,0.0,0.0,0.0,0.0,0.0,0.0,0.0,0.0,0.0,0.0,0.0,0.0,0.0,0.0,0.0,0.0,0.0,0.0,0.0,0.0,0.0,0.0,0.0,0.0,0.0,0.0,0.0,0.0,0.0,7.1261,7.5585,8.311,8.5241,8.5863,8.5253,7.9554,7.4302,7.017,6.3152,0.0,0.0,0.0,0.0,0.0,0.0,0.0,0.0,0.0,0.0,0.0,0.0,0.0,0.0,0.0,0.0,0.0,0.0,0.0,0.0,0.0,0.0,0.0,0.0,0.0,0.0,0.0,0.0,0.0,0.0,0.0,0.0,0.0,0.0,0.0,0.0,0.0,0.0,0.0,0.0,0.0,0.0,0.0,0.0,0.0,0.0,0.0,0.0,0.0,0.0,0.0,0.0,0.0,0.0,0.0,0.0,0.0,0.0,0.0,0.0,0.0,0.0,0.0,0.0,0.0,0.0,0.0,0.0,0.0,0.0,0.0,0.0,0.0,0.0,0.0,0.0,0.0,0.0,0.0,0.0,0.0,0.0,0.0,0.0,0.0,0.0,0.0,0.0,0.0,0.0,0.0,0.0,0.0,0.0,0.0,0.0,0.0,0.0,0.0,0.0,0.0,0.0,7.2695,7.9144,8.4279,8.5593,8.6094,8.6017,7.7699,7.1964,7.0783,6.0623,0.0,0.0,0.0,0.0,0.0,0.0,0.0,0.0,0.0,0.0,0.0,0.0,0.0,0.0,0.0,0.0,0.0,0.0,0.0,0.0,0.0,0.0,0.0,0.0,0.0,0.0,0.0,0.0,0.0,0.0,0.0,0.0,0.0,0.0,0.0,0.0,0.0,0.0,0.0,0.0,0.0,0.0,0.0,0.0,0.0,0.0,0.0,0.0,0.0,0.0,0.0,0.0,0.0,0.0,0.0,0.0,0.0,0.0,0.0,0.0,0.0,0.0,0.0,0.0,0.0,0.0,0.0,0.0,0.0,0.0,0.0,0.0,0.0,0.0,0.0,0.0,0.0,0.0,0.0,0.0,0.0,0.0,0.0,0.0,0.0,0.0,0.0,0.0,0.0,0.0,0.0,0.0,0.0,0.0,0.0,0.0,0.0,0.0,0.0,0.0,0.0,0.0,7.3458,7.9389,8.4362,8.6031,8.6572,8.6108,8.0312,7.5019,7.0929,0.0,0.0,0.0,0.0,0.0,0.0,0.0,0.0,0.0,0.0,0.0,0.0,0.0,0.0,0.0,0.0,0.0,0.0,0.0,0.0,0.0,0.0,0.0,0.0,0.0,0.0,0.0,0.0,0.0,0.0,0.0,0.0,0.0,0.0,0.0,0.0,0.0,0.0,0.0,0.0,0.0,0.0,0.0,0.0,0.0,0.0,0.0,0.0,0.0,0.0,0.0,0.0,0.0,0.0,0.0,0.0,0.0,0.0,0.0,0.0,0.0,0.0,0.0,0.0,0.0,0.0,0.0,0.0,0.0,0.0,0.0,0.0,0.0,0.0,0.0,0.0,0.0,0.0,0.0,0.0,0.0,0.0,0.0,0.0,0.0,0.0,0.0,0.0,0.0,0.0,0.0,0.0,0.0,0.0,0.0,0.0,0.0,0.0,0.0,0.0,0.0,0.0,6.7755,7.4562,8.0251,8.4478,8.6073,8.6578,8.6073,8.0783,7.5539,7.0946,0.0,0.0,0.0,0.0,0.0,0.0,0.0,0.0,0.0,0.0,0.0,0.0,0.0,0.0,0.0,0.0,0.0,0.0,0.0,0.0,0.0,0.0,0.0,0.0,0.0,0.0,0.0,0.0,0.0,0.0,0.0,0.0,0.0,0.0,0.0,0.0,0.0,0.0,0.0,0.0,0.0,0.0,0.0,0.0,0.0,0.0,0.0,0.0,0.0,0.0,0.0,0.0,0.0,0.0,0.0,0.0,0.0,0.0,0.0,0.0,0.0,0.0,0.0,0.0,0.0,0.0,0.0,0.0,0.0,0.0,0.0,0.0,0.0,0.0,0.0,0.0,0.0,0.0,0.0,0.0,0.0,0.0,0.0,0.0,0.0,0.0,0.0,0.0,0.0,0.0,0.0,0.0,0.0,0.0,0.0,0.0,0.0,0.0,0.0,0.0,0.0,0.0,6.8063,7.607,8.2246,8.4632,8.557,8.6035,8.6094,7.8238,7.254,0.0,0.0,0.0,0.0,0.0,0.0,0.0,0.0,0.0,0.0,0.0,0.0,0.0,0.0,0.0,0.0,0.0,0.0,0.0,0.0,0.0,0.0,0.0,0.0,0.0,0.0,0.0,0.0,0.0,0.0,0.0,0.0,0.0,0.0,0.0,0.0,0.0,0.0,0.0,0.0,0.0,0.0,0.0,0.0,0.0,0.0,0.0,0.0,0.0,0.0,0.0,0.0,0.0,0.0,0.0,0.0,0.0,0.0,0.0,0.0,0.0,0.0,0.0,0.0,0.0,0.0,0.0,0.0,0.0,0.0,0.0,0.0,0.0,0.0,0.0,0.0,0.0,0.0,0.0,0.0,0.0,0.0,0.0,0.0,0.0,0.0,0.0,0.0,0.0,0.0,0.0,0.0,0.0,0.0,0.0,0.0,0.0,0.0,0.0,0.0,0.0,0.0,0.0,6.8203,7.6569,8.2824,8.467,8.6069,8.6611,8.6069,8.086,7.5686,7.1006,0.0,0.0,0.0,0.0,0.0,0.0,0.0,0.0,0.0,0.0,0.0,0.0,0.0,0.0,0.0,0.0,0.0,0.0,0.0,0.0,0.0,0.0,0.0,0.0,0.0,0.0,0.0,0.0,0.0,0.0,0.0,0.0,0.0,0.0,0.0,0.0,0.0,0.0,0.0,0.0,0.0,0.0,0.0,0.0,0.0,0.0,0.0,0.0,0.0,0.0,0.0,0.0,0.0,0.0,0.0,0.0,0.0,0.0,0.0,0.0,0.0,0.0,0.0,0.0,0.0,0.0,0.0,0.0,0.0,0.0,0.0,0.0,0.0,0.0,0.0,0.0,0.0,0.0,0.0,0.0,0.0,0.0,0.0,0.0,0.0,0.0,0.0,0.0,0.0,0.0,0.0,0.0,0.0,0.0,0.0,0.0,0.0,0.0,0.0,0.0,0.0,0.0,6.8655,7.6927,8.3094,8.4709,8.6261,8.688,8.6142,8.2045,7.7176,7.1611,0.0,0.0,0.0,0.0,0.0,0.0,0.0,0.0,0.0,0.0,0.0,0.0,0.0,0.0,0.0,0.0,0.0,0.0,0.0,0.0,0.0,0.0,0.0,0.0,0.0,0.0,0.0,0.0,0.0,0.0,0.0,0.0,0.0,0.0,0.0,0.0,0.0,0.0,0.0,0.0,0.0,0.0,0.0,0.0,0.0,0.0,0.0,0.0,0.0,0.0,0.0,0.0,0.0,0.0,0.0,0.0,0.0,0.0,0.0,0.0,0.0,0.0,0.0,0.0,0.0,0.0,0.0,0.0,0.0,0.0,0.0,0.0,0.0,0.0,0.0,0.0,0.0,0.0,0.0,0.0,0.0,0.0,0.0,0.0,0.0,0.0,0.0,0.0,0.0,0.0,0.0,0.0,0.0,0.0,0.0,0.0,0.0,0.0,0.0,0.0,0.0,0.0,6.9191,7.712,8.3033,8.4939,8.6488,8.703,8.6286,8.2336,7.7662,7.2544,0.0,0.0,0.0,0.0,0.0,0.0,0.0,0.0,0.0,0.0,0.0,0.0,0.0,0.0,0.0,0.0,0.0,0.0,0.0,0.0,0.0,0.0,0.0,0.0,0.0,0.0,0.0,0.0,0.0,0.0,0.0,0.0,0.0,0.0,0.0,0.0,0.0,0.0,0.0,0.0,0.0,0.0,0.0,0.0,0.0,0.0,0.0,0.0,0.0,0.0,0.0,0.0,0.0,0.0,0.0,0.0,0.0,0.0,0.0,0.0,4.9189,4.8198,0.0,0.0,0.0,0.0,0.0,0.0,0.0,0.0,0.0,0.0,0.0,0.0,0.0,0.0,0.0,0.0,0.0,0.0,0.0,0.0,0.0,0.0,0.0,0.0,0.0,0.0,0.0,0.0,0.0,0.0,0.0,0.0,0.0,0.0,0.0,0.0,0.0,0.0,0.0,0.0,6.9153,7.6646,8.2901,8.6478,8.7786,8.8021,8.7209,8.3824,7.9292,7.3563,6.6949,0.0,0.0,0.0,0.0,0.0,0.0,0.0,0.0,0.0,0.0,0.0,0.0,0.0,0.0,0.0,0.0,0.0,0.0,0.0,0.0,0.0,0.0,0.0,0.0,0.0,0.0,0.0,0.0,0.0,0.0,0.0,0.0,0.0,0.0,0.0,0.0,0.0,0.0,0.0,0.0,0.0,0.0,0.0,0.0,0.0,0.0,0.0,0.0,0.0,0.0,0.0,0.0,0.0,0.0,0.0,0.0,0.0,0.0,0.0,5.4786,5.2665,0.0,0.0,0.0,0.0,0.0,0.0,0.0,0.0,0.0,0.0,0.0,0.0,0.0,0.0,0.0,0.0,0.0,0.0,0.0,0.0,0.0,0.0,0.0,0.0,0.0,0.0,0.0,0.0,0.0,0.0,0.0,0.0,0.0,0.0,0.0,0.0,0.0,0.0,0.0,0.0,7.0348,7.7726,8.3719,8.7017,8.8517,8.8748,8.7545,8.4279,7.9969,7.4511,6.8142,0.0,0.0,0.0,0.0,0.0,0.0,0.0,0.0,0.0,0.0,0.0,0.0,0.0,0.0,0.0,0.0,0.0,0.0,0.0,0.0,0.0,0.0,0.0,0.0,0.0,0.0,0.0,0.0,0.0,0.0,0.0,0.0,0.0,0.0,0.0,0.0,0.0,0.0,0.0,0.0,0.0,0.0,0.0,0.0,0.0,0.0,0.0,0.0,0.0,0.0,0.0,0.0,0.0,5.8748,6.0804,6.3561,6.3655,6.4653,6.6162,6.1851,5.8678,5.6534,5.5654,0.0,0.0,0.0,0.0,0.0,0.0,0.0,0.0,0.0,0.0,0.0,0.0,0.0,0.0,0.0,0.0,0.0,0.0,0.0,0.0,0.0,0.0,5.6575,5.7687,5.9149,5.9145,5.4901,0.0,0.0,0.0,0.0,0.0,0.0,0.0,0.0,0.0,0.0,0.0,7.207,7.9229,8.4766,8.7517,8.9094,8.9321,8.7776,8.451,8.0491,7.5632,6.9849,6.4806,0.0,0.0,0.0,0.0,0.0,0.0,0.0,0.0,0.0,0.0,0.0,0.0,0.0,0.0,0.0,0.0,0.0,0.0,0.0,0.0,0.0,0.0,0.0,0.0,0.0,0.0,0.0,0.0,0.0,0.0,0.0,0.0,3.9229,4.1283,0.0,0.0,0.0,0.0,0.0,0.0,0.0,0.0,0.0,0.0,0.0,0.0,0.0,5.8012,6.1425,6.36,6.4537,6.432,6.7246,6.8939,6.9519,7.0126,7.1713,7.3896,7.2452,0.0,6.0865,5.9369,0.0,0.0,0.0,0.0,0.0,0.0,0.0,0.0,0.0,0.0,0.0,0.0,0.0,0.0,0.0,0.0,0.0,0.0,0.0,0.0,0.0,0.0,6.2161,6.152,6.2127,6.2435,6.105,5.8119,5.5923,5.6497,5.4426,5.2485,0.0,0.0,0.0,0.0,0.0,0.0,7.3804,7.9979,8.5221,8.8989,8.9821,8.959,8.8305,8.5357,8.1735,7.7323,7.216,6.8038,6.5264,6.2515,0.0,0.0,0.0,0.0,0.0,0.0,0.0,0.0,0.0,0.0,0.0,0.0,0.0,0.0,0.0,0.0,0.0,0.0,0.0,0.0,0.0,0.0,0.0,0.0,0.0,0.0,0.0,0.0,0.0,4.0963,4.4745,4.5405,4.669,4.6874,0.0,0.0,0.0,0.0,0.0,0.0,0.0,0.0,0.0,6.431,6.4533,6.5775,6.8341,7.0331,7.17,7.2376,7.4747,7.6425,7.7378,7.776,7.879,8.024,7.9438,7.6532,7.1854,6.5886,6.1747,5.8788,0.0,0.0,0.0,0.0,5.8011,5.9533,6.0219,6.0104,5.9296,5.7371,0.0,0.0,0.0,0.0,0.0,0.0,0.0,5.59,5.7765,6.1214,6.4293,6.4718,6.5872,6.6756,6.6358,6.3397,6.0333,5.8875,5.7776,5.6502,5.4675,5.4475,0.0,0.0,0.0,6.9765,7.5065,8.1705,8.6909,8.945,8.9758,8.9258,8.7806,8.4686,8.1278,7.7742,7.3047,6.9284,6.6815,6.4103,6.1403,0.0,0.0,0.0,0.0,0.0,0.0,0.0,0.0,0.0,0.0,0.0,0.0,0.0,0.0,0.0,0.0,0.0,0.0,0.0,0.0,0.0,0.0,0.0,0.0,0.0,0.0,0.0,0.0,4.6389,4.9483,4.8733,5.0945,5.1556,0.0,0.0,0.0,0.0,0.0,0.0,6.1541,6.3766,6.705,7.1859,7.224,7.3342,7.5319,7.688,7.825,7.9505,8.1029,8.2555,8.4043,8.3859,8.4243,8.5044,8.4248,8.2951,8.0774,7.2563,6.7569,6.4649,6.0866,6.0378,6.1785,6.2606,6.4128,6.5991,6.7744,6.7799,6.6566,6.3322,6.131,5.943,5.5404,0.0,0.0,0.0,0.0,5.818,6.1698,6.4128,6.5972,6.7318,6.869,6.9602,6.9355,6.7333,6.4792,6.2044,6.1373,6.0453,5.8046,5.8335,0.0,6.069,6.669,7.2723,7.7254,8.35,8.8122,8.9688,8.9688,8.8845,8.7159,8.3972,8.0837,7.7946,7.3894,7.0709,6.8651,6.6141,6.3552,6.0968,0.0,0.0,0.0,0.0,0.0,0.0,0.0,0.0,0.0,0.0,0.0,0.0,0.0,0.0,0.0,0.0,0.0,0.0,0.0,0.0,0.0,0.0,0.0,0.0,0.0,0.0,0.0,0.0,0.0,5.0556,5.4503,0.0,0.0,0.0,0.0,5.8464,6.2323,6.5436,6.7353,7.0636,7.4072,7.758,7.8602,8.0326,8.2822,8.3961,8.455,8.4664,8.5627,8.6633,8.7638,8.6799,8.6875,8.7676,8.6799,8.5464,8.3519,7.8402,7.526,7.3418,7.0839,7.0409,7.1022,6.9528,7.0501,7.2275,7.0018,7.0209,7.1319,7.0355,6.7955,6.5172,6.3433,6.2375,0.0,0.0,6.3064,6.4705,6.6521,6.7589,6.841,6.9278,6.9575,6.9448,6.8548,6.8321,6.8,6.7036,6.42,6.2012,6.1986,0.0,6.4152,6.6688,7.0866,7.5746,8.1291,8.5087,8.8073,9.005,8.9758,8.8571,8.6595,8.3826,8.11,7.843,7.5236,7.3047,7.2083,7.0162,6.7908,6.5416,6.2653,0.0,0.0,0.0,0.0,0.0,0.0,0.0,0.0,0.0,0.0,0.0,0.0,0.0,0.0,0.0,0.0,0.0,0.0,0.0,0.0,0.0,0.0,0.0,0.0,0.0,0.0,0.0,0.0,5.9015,6.1624,0.0,5.9816,6.0359,6.2034,6.4935,6.8128,7.1668,7.5544,7.8404,8.1369,8.4393,8.5374,8.6392,8.7398,8.8908,8.9687,8.9687,9.1139,9.1719,9.1577,9.19,9.1909,9.1735,9.0416,8.9549,8.8794,8.5435,8.1461,7.7141,7.3543,7.3314,7.4843,7.3734,7.4576,7.6262,7.6453,7.6185,7.5306,7.2352,6.997,6.8078,6.691,6.6491,6.6466,6.6962,6.7499,6.8193,6.9335,6.9809,7.0244,7.1118,7.1376,7.1595,7.2392,7.175,7.1235,7.2007,6.8535,6.5126,6.4149,6.5136,6.6587,6.8098,7.2785,7.7626,8.1762,8.5604,8.8577,9.0122,8.9087,8.7557,8.579,8.264,7.9853,7.7668,7.4797,7.3168,7.3004,7.071,6.8953,6.8042,6.5337,6.1467,0.0,0.0,0.0,0.0,0.0,0.0,0.0,0.0,0.0,0.0,0.0,0.0,0.0,0.0,0.0,0.0,0.0,0.0,0.0,0.0,0.0,0.0,0.0,0.0,0.0,5.9659,6.3731,6.502,6.7634,6.8439,6.6176,6.6874,6.8753,7.1974,7.4867,7.8325,8.2426,8.5019,8.7316,8.9457,9.0569,9.1132,9.1188,9.2451,9.3023,9.2919,9.4211,9.4427,9.3769,9.435,9.4458,9.4075,9.2672,9.215,9.2083,9.0135,8.6887,8.276,7.9092,7.8672,8.0009,7.9169,7.9705,8.0965,8.1538,8.0468,7.84,7.537,7.3353,7.1977,7.143,7.0975,7.0786,7.158,7.158,7.1645,7.2745,7.285,7.28,7.3432,7.3381,7.3408,7.4308,7.3832,7.3625,7.4745,7.1748,6.8699,6.7647,6.8845,7.0351,7.1533,7.5684,7.9904,8.3341,8.6391,8.8685,8.9939,8.8593,8.6913,8.5158,8.2015,7.9095,7.6695,7.4127,7.2502,7.2101,7.0345,6.9259,6.8901,6.5749,6.2328,5.8727,0.0,0.0,0.0,0.0,0.0,0.0,0.0,0.0,0.0,0.0,0.0,0.0,0.0,0.0,0.0,0.0,0.0,0.0,0.0,0.0,0.0,0.0,0.0,5.8317,6.4598,6.8873,6.8181,7.2222,7.3697,7.0101,7.3314,7.6847,7.9614,8.2771,8.551,8.7767,9.0136,9.1764,9.2505,9.3854,9.4457,9.4291,9.4499,9.4497,9.416,9.4659,9.4592,9.4116,9.4116,9.4257,9.4408,9.3568,9.3186,9.3153,9.2236,9.1434,9.0478,8.788,8.6887,8.681,8.5932,8.6042,8.6455,8.4777,8.2684,8.0652,7.9876,7.8497,7.7188,7.7208,7.6125,7.5011,7.5856,7.5533,7.5284,7.6938,7.6804,7.6206,7.6206,7.5605,7.4848,7.4063,7.4552,7.5142,7.5142,7.3741,7.2597,7.2592,7.3944,7.5581,7.7202,7.9604,0.0,8.6239,8.7457,8.839,8.9452,8.8253,8.6635,8.4713,8.1942,7.8865,7.5506,7.3246,7.1247,6.9529,6.9395,6.8923,6.8097,6.3963,6.1425,6.0545,0.0,0.0,0.0,0.0,0.0,0.0,0.0,0.0,0.0,0.0,0.0,0.0,0.0,0.0,0.0,0.0,0.0,0.0,0.0,0.0,0.0,6.0664,6.5551,6.5198,6.9816,7.4022,7.6203,7.8148,7.9386,7.9522,8.0764,8.2869,8.6,8.7591,8.9477,9.1986,9.2658,9.3171,9.3797,9.471,9.4793,9.3887,9.4908,9.5517,9.5555,9.6534,9.6837,9.6629,9.746,9.7155,9.602,9.6072,9.5805,9.5267,9.4128,9.3573,9.3038,8.9867,8.8988,8.9447,8.8568,8.8374,8.8336,8.6655,8.5244,8.3907,8.2492,8.1837,8.1329,8.0174,7.9966,8.0215,8.0484,7.9946,7.9323,7.922,7.9018,7.8854,7.8965,7.8783,7.8525,7.8451,7.8516,7.849,7.7974,7.751,7.6582,7.4711,7.5194,7.643,7.8062,8.0285,8.294,8.6275,8.7333,8.825,8.949,8.8204,8.6263,8.3775,8.0016,7.644,7.3345,7.0946,6.9413,6.8955,6.8482,6.8133,6.7872,6.4441,6.2295,0.0,0.0,0.0,0.0,0.0,0.0,0.0,0.0,0.0,0.0,0.0,0.0,0.0,0.0,0.0,0.0,0.0,0.0,0.0,0.0,0.0,0.0,6.7305,7.2856,7.4335,7.6839,7.9433,8.2003,8.303,8.4022,8.5374,8.6111,8.7497,8.9946,9.0974,9.2233,9.4117,9.4154,9.4448,9.5368,9.6064,9.6092,9.5341,9.6236,9.6546,9.6276,9.7205,9.7426,9.7125,9.8229,9.8137,9.7195,9.7264,9.7248,9.7173,9.5959,9.5637,9.5598,0.0,0.0,0.0,0.0,9.046,9.0012,8.829,8.7187,8.6314,8.4633,8.3945,8.356,8.2636,8.228,8.2265,8.2682,8.2183,8.1458,8.14,8.1093,8.0708,8.0482,8.0376,8.0299,8.0057,8.0434,8.0761,8.0347,8.0299,0.0,7.8293,7.8177,7.8661,7.9831,8.205,8.4442,8.6802,8.7819,8.8471,8.9036,8.7965,8.5988,8.2934,7.9509,0.0,0.0,0.0,6.837,6.7683,6.7262,0.0,0.0,0.0,6.4696,6.425,6.2825,0.0,0.0,6.0685,6.0327,0.0,0.0,0.0,0.0,0.0,0.0,0.0,0.0,0.0,0.0,0.0,0.0,0.0,0.0,0.0,0.0,7.3738,7.9669,8.3808,8.4345,8.4767,8.5972,8.6852,8.7659,8.8643,8.9693,9.0905,9.2351,9.3342,9.4228,9.4889,9.4992,0.0,0.0,0.0,9.7525,9.7259,9.7613,9.726,9.6486,9.7022,9.703,9.6674,9.7486,9.7847,9.7873,9.7588,9.7916,9.8462,9.7458,9.7371,9.7638,9.479,9.3568,9.332,9.2975,9.2451,9.1636,8.9901,0.0,0.0,8.6506,8.532,8.4556,8.4595,8.3558,8.2559,8.347,8.309,8.2559,8.3466,8.3051,8.2288,8.1623,8.1497,8.1298,8.0446,8.1381,8.2352,8.2276,8.2237,8.2237,8.2203,8.167,8.1431,8.1875,8.4134,8.6241,8.7547,8.8454,8.8851,8.8469,8.7663,0.0,8.2179,7.9562,7.6057,7.1131,6.9361,6.784,6.636,6.6175,6.6552,6.7563,6.7417,6.7417,6.7486,6.7486,6.7525,6.7559,6.3395,6.3142,0.0,0.0,0.0,0.0,0.0,0.0,0.0,0.0,0.0,0.0,0.0,0.0,0.0,0.0,0.0,7.3738,8.0776,8.5919,8.6955,8.8848,8.9548,8.8176,8.8836,8.9563,9.0098,9.1508,9.2904,9.4134,9.5321,9.5945,9.5765,9.6259,9.6231,9.5684,9.6306,9.6282,9.5331,9.5737,9.6068,9.6138,9.6591,0.0,9.7644,9.8021,9.7722,9.6928,9.7855,9.7966,9.7576,9.7706,9.7457,9.6982,9.7125,9.6745,9.6012,9.528,9.4433,9.3503,9.2167,9.0827,8.9421,8.817,8.6936,8.5703,8.5024,8.4774,0.0,8.4899,8.49,8.4863,8.5242,8.5202,8.5084,8.5104,8.4959,8.4659,8.3984,8.3922,8.3857,8.3274,8.3187,8.3116,8.2797,8.2217,8.2092,8.2904,8.448,8.6083,8.7547,8.8454,8.8851,8.8469,8.7563,8.5348,8.1204,7.7786,7.4356,7.0793,6.8433,6.7083,6.6862,6.622,6.6296,6.724,6.6742,6.6809,6.7486,6.7486,6.7867,6.8476,6.6476,6.6308,0.0,0.0,0.0,0.0,0.0,0.0,0.0,0.0,0.0,0.0,0.0,5.7144,6.2114,0.0,7.4815,7.9776,8.5225,8.906,8.9374,9.0851,9.1042,8.8981,8.99,9.1212,9.2409,9.3723,9.5047,9.6332,9.7049,9.7305,9.6894,9.721,9.733,9.7223,9.7305,9.7143,9.6649,9.6685,9.673,9.6694,9.6873,9.7084,9.726,9.7874,9.7509,9.6629,9.7909,9.8279,9.7967,9.8417,9.8139,9.7422,9.8424,9.792,9.6627,9.612,9.5475,9.4666,9.4054,9.2896,9.1484,9.0461,8.9199,8.78,8.6647,8.6317,8.6295,8.5581,8.5698,8.6006,8.5743,8.5628,8.5514,8.5242,8.5435,8.5475,8.4706,8.4785,8.4825,8.4366,8.4366,8.4289,8.4093,8.3828,8.3639,8.3716,8.5474,8.7034,8.7704,8.8879,8.9201,8.8047,8.7386,8.5311,8.1027,7.689,7.3522,7.1268,6.9409,6.8328,6.809,6.7341,6.7303,6.8213,6.7464,6.7543,6.8452,6.8375,6.8602,6.9095,6.8901,6.8921,0.0,0.0,0.0,0.0,0.0,0.0,0.0,0.0,5.276,5.6831,6.0829,6.5258,7.0654,7.579,8.0545,8.4777,8.8257,9.0648,9.1219,9.169,9.1332,8.9558,9.0768,9.246,9.4322,9.544,9.6541,9.7597,9.8188,9.8115,9.7354,9.7608,9.8006,9.86,9.8432,9.8427,9.8509,9.8107,9.772,9.747,9.7396,9.6986,9.656,9.7483,9.7409,9.6666,9.7881,9.8413,9.844,9.8816,9.8621,9.8153,9.8949,9.8266,9.6802,9.6922,9.6342,9.5572,9.5644,9.4688,9.338,9.2555,9.1174,8.9679,8.8521,8.7969,8.7528,8.6371,8.6413,8.6561,8.5848,8.5772,8.5655,8.4937,8.5397,8.5817,8.5167,8.5355,8.5575,8.5447,8.5333,8.5219,8.5219,8.5219,8.5037,8.4434,8.6462,8.803,8.7905,8.9114,8.9368,8.7665,8.7069,8.5047,8.0752,7.6504,7.3501,7.2191,7.1191,7.0405,6.9954,6.9015,6.8865,6.9691,6.8753,6.8758,6.9863,6.9584,6.9584,6.9901,7.0709,7.0838,4.8856,4.8928,4.9039,4.9458,5.0277,5.2615,0.0,0.0,6.1839,6.5847,6.9752,7.315,7.5398,7.9956,8.4421,8.7679,8.9998,9.1515,9.1971,9.2091,9.1772,9.0779,9.1961,9.3334,9.4319,9.5686,9.6449,9.6408,9.7657,9.7642,9.5724,9.7028,9.7585,9.7101,9.7933,9.8509,9.8789,9.8222,9.8014,9.8057,9.7581,9.6986,9.6384,9.7414,9.7409,9.6666,9.7589,9.8061,9.8158,9.8188,9.8282,9.8375,9.8487,9.8245,9.7993,9.8831,9.8083,9.6667,9.6966,9.575,9.4029,9.341,9.1821,9.0155,9.0169,8.9235,8.8129,8.8052,8.7705,8.7117,8.6469,8.6899,8.7285,8.6694,8.7192,8.7766,8.7689,8.7034,8.6413,8.6366,8.5714,8.5219,8.5219,8.5304,8.5391,8.5357,8.6844,8.7905,8.7905,8.8705,8.8809,8.7635,8.6597,8.4092,7.9313,7.6543,7.4634,7.3639,7.2828,7.2445,7.247,7.1043,7.0592,7.1419,6.9879,6.9885,7.1595,7.0749,7.0787,7.1595,7.1751,7.1505,5.3347,5.4345,5.5365,5.5682,5.7765,6.0611,6.4124,6.6316,6.8654,7.2154,7.5621,7.918,8.267,8.5578,8.8193,9.0416,9.2157,9.3142,9.2755,9.3049,9.2777,9.1693,9.2814,9.3873,9.4499,9.5914,9.7115,9.776,9.9252,9.9774,9.8911,9.9527,9.9744,9.9506,9.928,9.912,9.9285,9.884,9.8672,9.8903,9.8169,9.7543,9.7018,9.7496,9.7859,9.804,9.8067,9.8582,9.9469,9.8635,9.8889,9.9702,9.8862,9.8656,9.8904,9.9226,9.8305,9.7005,9.8058,9.7429,9.5953,9.5221,9.4205,9.2994,9.1675,9.0933,9.0296,8.9464,8.907,8.8758,8.8105,8.7851,8.7747,8.761,8.7801,8.7989,8.7989,8.7557,8.7204,8.7072,8.6805,8.6539,8.6539,8.6115,8.6007,8.6676,8.7489,8.7836,8.734,8.8324,8.841,8.6625,8.5107,8.3151,8.0473,7.885,7.7428,7.6119,7.5757,7.5443,7.5061,7.3972,7.3521,7.3859,7.1757,7.1094,7.1944,7.0981,7.0799,7.1392,7.2246,7.2553,5.6515,5.8658,6.1115,6.1588,6.4542,6.7625,6.8939,7.1479,7.4401,7.7397,8.0529,8.3929,8.7601,8.9127,9.0478,9.2139,9.3213,9.367,9.3413,9.3564,9.3211,9.1811,9.2509,9.3247,9.3992,9.5986,9.7785,9.9237,10.0396,10.1012,10.0722,10.0903,10.1012,10.0722,10.0215,9.9959,9.9959,9.9602,9.9517,9.9636,9.9124,9.854,9.7798,9.7907,9.8453,9.9151,9.888,9.9277,9.9978,9.9366,9.9871,10.0881,9.9777,9.9572,9.9866,10.009,9.8934,9.7487,9.8904,9.8572,9.7368,9.6768,9.6201,9.5384,9.3574,9.2889,9.2555,9.118,9.0711,9.0466,8.9855,8.9451,8.9277,8.9443,8.9405,8.9397,8.9583,8.9,8.8333,8.8243,8.7771,8.7467,8.7513,8.6927,8.6784,8.7573,8.8052,8.8027,8.7187,8.7743,8.7551,8.5598,8.3966,8.2673,8.1709,8.0592,7.9471,7.8377,7.7941,7.7467,7.6976,7.6187,7.5737,7.5737,7.3521,7.2642,7.3048,7.1777,7.1444,7.2044,7.3005,7.3571,5.7637,6.0735,6.4782,6.6207,6.9038,7.2152,7.4476,7.6991,7.9422,8.1873,8.4895,8.7338,8.8223,8.9306,9.0607,9.248,9.2442,9.246,9.3495,9.3131,9.2364,9.1126,9.073,9.0995,9.2266,9.5441,9.8142,10.0034,10.0215,9.9889,9.9129,9.9817,9.9889,9.9093,10.0178,10.0797,10.0797,10.0371,10.0283,10.0283,10.0564,9.9981,9.8467,9.8902,9.9113,9.9358,10.0215,9.9822,9.8803,10.0414,10.1218,10.142,10.1308,10.118,10.1088,10.1912,10.0582,9.8469,9.9328,9.8739,9.7665,9.759,9.7148,9.6534,9.5949,9.5188,9.4356,9.3681,9.286,9.2076,9.1567,9.1994,9.2611,9.2919,9.2962,9.3148,9.3816,9.1972,9.0083,8.9953,8.8559,8.7412,8.7513,8.7475,8.7521,8.7649,8.8416,8.8645,8.7769,8.692,8.5941,8.4751,8.3639,8.2848,8.2424,8.0875,7.9904,7.9866,7.8476,7.7729,7.7839,7.7051,7.6563,7.6563,7.4948,7.4673,7.5689,7.3771,7.3401,7.4577,7.4487,7.4525,6.1824,6.5213,6.9153,7.1776,7.4511,7.705,7.8895,8.1225,8.3323,8.4632,8.5391,8.617,8.7444,8.7846,8.872,9.0893,9.2716,9.3917,9.3869,9.4764,9.3898,9.0034,9.13,9.2202,9.1619,9.3539,9.6054,9.9201,10.0182,10.0869,10.1374,10.1592,10.17,10.1374,10.156,10.1891,10.2402,10.2056,10.1898,10.1898,10.1191,10.0425,9.9501,9.9755,10.0266,10.0997,10.0799,10.1226,10.1874,10.1518,10.1995,10.2922,10.1796,10.1593,10.1874,10.1818,10.0703,9.9525,10.0283,9.9691,9.8416,9.7937,9.7739,9.7403,9.6268,9.584,9.5527,9.4642,9.3858,9.3287,9.3165,9.2946,9.2764,9.3071,9.3492,9.3861,9.4029,9.2822,9.1701,9.1556,9.018,8.8994,8.9004,8.8549,8.8255,8.8255,8.825,8.7991,8.7467,8.67,8.5726,8.4506,8.3876,8.3238,8.2444,8.136,8.0501,7.9941,7.9102,7.8654,7.8703,7.8403,7.8027,7.7464,7.5944,7.5321,7.5802,7.4545,7.4563,7.5649,7.609,7.6355,6.6668,7.0033,7.3653,7.7357,7.955,8.1098,8.2451,8.3719,8.4593,8.4558,8.3926,8.377,8.4753,8.4417,8.5203,8.9072,9.1046,9.2519,9.3792,9.4579,9.3735,9.0124,9.1475,9.2374,9.1619,9.2819,9.5333,9.9563,10.0363,10.1484,10.3294,10.3402,10.3348,10.3058,10.3322,10.3546,10.3814,10.3641,10.3521,10.3389,10.2301,10.1795,10.1833,10.1386,10.1415,10.1886,10.1688,10.2116,10.2764,10.2407,10.2922,10.3711,10.2697,10.252,10.283,10.237,10.1694,10.0853,10.0778,9.9905,9.8829,9.8508,9.8497,9.831,9.6815,9.6589,9.6477,9.5199,9.4566,9.4334,9.4477,9.4287,9.4266,9.479,9.5057,9.5196,9.5315,9.4116,9.2993,9.2797,9.142,9.0245,9.0245,8.9563,8.9032,8.9032,8.872,8.8264,8.7733,8.6928,8.5988,8.4793,8.4433,8.388,8.2837,8.2015,8.136,8.0837,8.0015,7.9567,7.9579,7.9316,7.8951,7.8473,7.6948,7.6173,7.63,7.5091,7.5064,7.6107,7.6511,7.697,7.169,7.5072,7.816,8.2673,8.3911,8.4262,8.4996,8.4535,8.3569,8.2017,8.0914,8.0224,8.012,7.912,8.0571,8.7047,8.7771,8.9074,9.351,9.3095,9.214,0.0,0.0,0.0,0.0,0.0,9.6119,10.1121,10.0722,10.1628,10.4815,10.4996,10.469,10.4199,10.5231,10.5371,10.4863,10.5044,10.4853,10.4598,10.3711,10.3943,10.5136,10.3427,10.2528,10.2242,10.2915,10.2594,10.1721,10.311,10.3824,10.3824,10.3824,10.3824,10.3824,10.3824,10.3298,10.2397,10.0782,9.9693,9.9041,9.9343,9.9422,9.914,9.7832,9.7475,9.7161,9.5528,9.5132,9.5239,9.5371,9.6028,9.6875,9.7731,9.7432,9.7043,9.7524,9.5762,9.3954,9.3669,9.2216,9.1041,9.1041,9.0396,8.9866,8.9828,8.9828,8.9514,8.8532,8.77,8.6669,8.544,8.515,8.4648,8.3507,8.2781,8.2406,8.2406,8.1177,8.0481,8.0553,7.98,7.9397,7.95,7.784,7.7099,7.7225,7.5431,7.514,7.6183,7.6057,7.6596,7.5195,7.8657,8.1643,8.4817,8.549,8.5466,8.5871,8.4944,8.3259,8.0638,7.8029,7.5532,7.3411,7.6033,7.9985,8.4217,8.9388,9.3531,9.571,9.6692,0.0,9.3654,0.0,9.5646,9.5862,9.643,0.0,10.2823,10.1665,10.2315,10.5612,10.5793,10.5777,10.5907,10.6324,10.6575,10.6583,10.5631,10.4853,10.4286,10.3596,10.3533,10.3983,10.3094,10.3124,10.3811,10.2803,10.3081,10.4086,10.3298,10.3298,10.3824,10.3824,10.3824,10.3824,10.3824,10.3298,10.2509,10.2096,10.1007,9.9868,10.0172,9.9875,9.9424,9.9357,9.8542,9.7426,9.6398,9.5772,9.5371,9.5417,9.557,9.5845,9.6127,9.6592,9.6891,9.68,9.58,9.4648,9.3894,9.1871,9.0276,9.0276,9.0521,9.0548,8.9904,9.0359,9.0146,8.8469,8.8041,8.7221,8.5349,8.502,8.4517,8.3508,8.276,8.2424,8.237,8.1687,8.1345,8.1479,8.0677,7.9962,7.95,7.7968,7.7143,7.7187,7.6171,7.6179,7.7093,7.7619,7.8121,7.9627,8.2949,8.5409,8.6887,8.705,8.637,8.423,8.2267,7.9683,7.5656,7.2394,6.9871,6.8586,7.2136,7.7013,8.2516,8.8295,9.3454,9.7222,9.7924,9.7519,0.0,9.737,0.0,9.8308,9.9315,10.1085,10.4018,10.2732,10.3347,10.6988,10.7205,10.7321,10.7727,10.7781,10.7723,10.7415,10.6585,10.5689,10.4795,10.4519,10.4269,10.4204,10.3539,10.3719,10.4409,10.3512,10.368,10.4499,10.3899,10.3711,10.3824,10.341,10.3523,10.3824,10.341,10.3185,10.311,10.2697,10.201,10.117,10.0835,10.0101,9.9424,9.9486,9.8935,9.8046,9.6876,9.6333,9.6005,9.5623,9.5776,9.6081,9.6172,9.6554,9.6852,9.6572,9.5848,9.4896,9.3535,9.2119,9.0856,9.0134,9.0304,9.0359,8.9866,9.0207,9.012,8.896,8.8456,8.7494,8.5712,8.5152,8.4461,8.3433,8.3016,8.2851,8.2929,8.2361,8.1983,8.1904,8.1027,8.033,7.9721,7.8523,7.7884,7.7803,7.7055,7.7135,7.7927,7.8382,7.8841,8.4356,8.7142,8.8812,8.8915,8.8432,8.668,8.1956,7.8396,7.4703,6.935,6.6115,6.4377,6.4882,6.8299,7.3589,8.1681,8.6464,9.1556,9.8525,9.82,9.7794,9.9492,9.9882,10.0197,10.0724,10.2262,10.3801,10.5286,10.4091,10.4887,10.8473,10.869,10.8772,10.9258,10.9112,10.8616,10.7587,10.7477,10.6791,10.556,10.5693,10.5415,10.4834,10.417,10.4056,10.4521,10.4297,10.4091,10.4011,10.4499,10.4387,10.3711,10.2885,10.311,10.3711,10.2885,10.311,10.3711,10.2997,10.2825,10.2711,10.1212,10.0177,9.9538,9.9259,9.9087,9.8693,9.7286,9.6883,9.6706,9.5828,9.6172,9.6745,9.6745,9.6745,9.6661,9.6429,9.5743,9.4723,9.3068,9.2509,9.1891,9.0333,9.0049,8.999,8.9877,8.9952,8.9942,8.9679,8.8885,8.7833,8.6312,8.5508,8.4554,8.3313,8.3239,8.3281,8.3451,8.2885,8.2434,8.2028,8.1273,8.0612,8.0087,7.9229,7.8736,7.8652,7.7862,7.79,7.8652,7.8723,7.9182,8.8015,8.9362,8.9967,9.0799,8.873,8.5786,8.2771,7.7411,7.1626,6.6505,6.3448,6.1704,6.1432,6.7125,7.4385,8.2032,8.7712,9.3564,10.0422,10.0493,10.0657,0.0,10.3148,10.3976,10.5524,10.6148,10.6916,10.7785,10.7604,10.8075,10.9378,10.9487,10.9353,10.9258,10.8819,10.8244,10.7587,10.689,10.6486,10.624,10.5781,10.5214,10.4528,10.3869,10.4021,10.4409,10.3101,10.338,10.48,10.3486,10.3298,10.3711,10.2885,10.311,10.3711,10.2885,10.311,10.3824,10.3598,10.3313,10.2824,10.189,10.1179,10.0615,10.0936,10.0088,9.8857,9.8066,9.7394,9.6706,9.5828,9.5713,9.5828,9.5828,9.5828,9.5783,9.5646,9.4998,9.4121,9.3046,9.2192,9.1385,9.0486,9.073,9.0818,9.0189,9.0768,9.0865,8.9904,8.9427,8.8474,8.6443,8.605,8.5168,8.3388,8.2681,8.2444,8.2573,8.257,8.2434,8.201,8.1849,8.1481,8.0883,7.9533,7.8777,7.8736,7.7903,7.7941,7.8773,7.9372,7.9751,9.0295,9.1805,9.2694,9.1977,8.9149,8.4968,7.929,7.2811,6.6642,6.1571,5.9225,5.8332,5.9299,6.5334,7.2211,7.8423,8.3646,9.01,9.8914,9.9118,10.0123,10.4959,10.5488,10.5969,10.7015,10.7581,10.8111,10.8473,10.8871,10.9306,10.9704,10.9366,10.8975,10.8418,10.8015,10.7548,10.6792,10.6475,10.6376,10.6376,10.6222,10.576,10.5189,10.4609,10.4356,10.4484,10.3699,10.3792,10.4387,10.4011,10.4086,10.4387,10.311,10.341,10.4312,10.311,10.311,10.3786,10.3888,10.3816,10.3488,10.2802,10.1824,10.088,10.1392,10.0596,9.939,9.8372,9.8158,9.7815,9.6057,9.5942,9.6172,9.5713,9.5554,9.5509,9.5509,9.5158,9.4464,9.3257,9.2595,9.1864,9.0612,9.0593,9.0616,9.0243,9.0548,9.0464,8.9488,8.9135,8.8291,8.6554,8.5489,8.4477,8.3425,8.259,8.2202,8.2403,8.2046,8.1707,8.1321,8.1311,8.1028,8.0504,7.984,7.9464,7.9423,7.9584,7.9812,8.0106,8.0899,8.1008,9.2537,9.4399,9.5254,9.3118,8.9358,8.4077,7.5839,6.8567,6.2213,5.7479,5.5679,5.5859,5.8379,6.3559,6.9282,7.4912,7.9408,8.5919,9.6435,9.7372,9.9443,10.6269,10.7148,0.0,10.8038,10.8509,10.8799,10.898,10.9596,10.9777,10.9487,10.899,10.8358,10.7507,10.7179,10.6715,10.5997,10.6169,10.6254,10.6376,10.6581,10.6313,10.578,10.5087,10.4727,10.4521,10.4297,10.4091,10.3899,10.4499,10.48,10.4687,10.3185,10.3486,10.4612,10.311,10.3073,10.3888,10.3979,10.4204,10.4275,10.3676,10.2487,10.1201,10.1392,10.0938,9.9923,9.8715,9.8884,9.8846,9.6477,9.6401,9.6668,9.5789,9.5509,9.5463,9.5598,9.5356,9.4738,9.3382,9.2722,9.1947,9.0656,9.0187,9.0022,9.0257,9.0295,8.9946,8.9146,8.8699,8.7912,8.6523,8.5058,8.4012,8.3706,8.2516,8.1904,8.205,8.1319,8.0793,8.0386,8.0585,8.0423,7.9898,8.0072,8.0113,8.0072,8.1073,8.1568,8.163,8.2385,8.2304,9.5675,9.6519,9.6601,9.4988,8.9522,8.2713,7.6016,6.7822,6.0531,5.672,5.5199,5.5683,5.9257,6.2405,6.7017,7.4784,7.8804,8.4326,9.4173,9.7395,10.1008,10.6901,10.7746,10.869,11.0429,10.9994,10.9886,11.061,11.0719,11.0175,10.869,10.8545,10.7843,10.6707,10.6562,10.6397,10.5997,10.5961,10.6206,10.6376,10.6376,10.6185,10.578,10.4893,10.4504,10.4521,10.3699,10.3605,10.3824,10.3899,10.3899,10.3824,10.2885,10.311,10.3824,10.2885,10.3238,10.4117,10.4117,10.4266,10.4605,10.4492,10.3435,10.207,10.1475,10.0798,9.9999,9.9346,9.925,9.8999,9.7241,9.6859,9.6668,9.5789,9.5598,9.5598,9.5598,9.5025,9.4223,9.3268,9.1768,9.0618,9.0589,8.9816,8.9506,9.0436,9.0551,9.0203,8.9239,8.8434,8.7503,8.6256,8.5536,8.4983,8.453,8.2407,8.1066,8.1047,8.041,7.9852,7.9462,8.0235,8.0423,7.9898,7.9988,8.0034,8.0195,8.0994,8.1832,8.2593,8.334,8.3177,9.5606,9.7287,9.7517,9.522,8.8879,8.1537,7.5066,6.665,5.9178,5.5672,5.4851,5.5426,5.7364,5.9455,6.2871,6.8881,7.0911,7.5332,8.558,8.8792,9.3273,10.191,10.4427,10.6798,11.0342,11.0512,11.0574,11.09,11.09,11.0211,10.8582,10.8473,10.8351,10.7756,10.6906,10.6398,10.6288,10.6043,10.612,10.6206,10.6291,10.6222,10.578,10.4893,10.4541,10.4521,10.3624,10.3493,10.3824,10.3824,10.3824,10.3824,10.341,10.3523,10.3786,10.3614,10.379,10.4079,10.4327,10.4486,10.4567,10.4684,10.3984,10.2922,10.2197,10.1506,10.0621,9.9526,9.9584,9.9632,9.8036,9.728,9.6821,9.6477,9.5981,9.5598,9.5598,9.4987,9.4146,9.3268,9.2078,9.1124,9.0669,9.0284,8.9978,8.9867,9.0249,8.9902,8.7951,8.7832,8.7432,8.629,8.5334,8.4628,8.4271,8.2294,8.1119,8.1065,7.9508,7.8779,7.9128,7.8634,7.8783,7.9772,7.9367,7.9499,8.0195,8.1113,8.1951,8.2828,8.305,8.2884,9.4681,9.7236,9.7779,9.4986,8.8261,8.0682,7.4083,6.5704,5.8456,5.5308,5.4677,5.5079,5.6268,5.7733,6.0058,6.4091,6.601,7.036,8.0218,8.3498,8.8446,9.7982,10.0761,10.3782,10.8364,11.0331,11.1298,11.1298,11.1008,11.0393,10.927,10.898,10.8582,10.8183,10.7031,10.6397,10.6525,10.6049,10.5874,10.5997,10.6328,10.625,10.5995,10.5041,10.4577,10.4712,10.3667,10.3493,10.3824,10.3824,10.3711,10.3486,10.3813,10.37,10.3588,10.4004,10.4242,10.4304,10.4508,10.4626,10.4722,10.4837,10.4307,10.3473,10.2977,10.2083,10.1088,10.0075,9.9945,9.9727,9.8418,9.7463,9.6776,9.6592,9.6057,9.5598,9.5598,9.4802,9.3884,9.3229,9.2011,9.102,9.0673,9.0256,8.9835,8.9412,8.987,8.9526,8.746,8.7645,8.7519,8.6469,8.528,8.4518,8.4426,8.2526,8.1281,8.1157,7.891,7.7941,7.8691,7.7663,7.7777,7.926,7.9047,7.9296,8.0075,8.1073,8.1877,8.2487,8.2675,8.2555,9.3341,9.6173,9.7158,9.4848,8.8051,8.0224,7.3372,6.5229,5.844,5.5999,5.4697,5.4688,5.6837,5.8053,5.9523,6.1914,6.6423,7.229,8.0243,8.4469,8.9356,9.6574,9.7652,9.9744,10.4525,10.9306,11.2095,11.2095,11.1298,11.09,11.09,11.0103,10.898,10.7423,10.6517,10.6176,10.6525,10.587,10.5699,10.5997,10.6328,10.646,10.6599,10.522,10.4797,10.5318,10.3928,10.3493,10.3824,10.3824,10.3298,10.2697,10.3715,10.359,10.2988,10.4002,10.4411,10.4605,10.4605,10.4722,10.4799,10.4799,10.4307,10.3586,10.3586,10.2484,10.1316,10.1382,10.043,9.905,9.8265,9.7417,9.6485,9.5783,9.5598,9.5598,9.5598,9.4348,9.3204,9.3077,9.1217,8.9842,9.0566,8.942,8.8654,8.938,8.9494,8.9148,8.8186,8.8071,8.7725,8.6684,8.5632,8.5035,8.529,8.3021,8.144,8.1047,7.8805,7.7564,7.7717,7.7828,7.8022,7.8293,7.9222,7.9728,7.9822,8.087,8.1413,8.1451,8.2449,8.2332,8.6089,8.9044,9.0156,8.6275,8.0268,7.3899,6.8705,6.2748,5.755,5.4776,5.4914,5.5541,5.581,5.6914,5.9621,6.534,6.8046,7.1899,7.8958,8.4721,8.9806,9.4359,10.2332,10.7992,10.9704,11.2203,11.3507,11.3,11.2711,11.2095,11.1008,11.0682,10.9994,10.898,10.8183,10.7459,10.7082,10.6525,10.6052,10.5699,10.5997,10.6423,10.6918,10.5226,10.4871,10.5393,10.3928,10.3425,10.3664,10.3796,10.3298,10.2697,10.3588,10.3464,10.2988,10.4002,10.4411,10.4567,10.4684,10.4363,10.4003,10.4003,10.3397,10.279,10.3397,10.2808,10.1915,10.1544,10.0391,9.9297,9.8935,9.7837,9.6776,9.6554,9.6019,9.5598,9.5598,9.4348,9.3166,9.3077,9.1217,8.965,8.9839,8.9037,8.8232,8.7772,8.8729,8.8957,8.7384,8.8224,8.8336,8.676,8.6295,8.5773,8.5005,8.3477,8.2209,8.1477,7.9014,7.7578,7.7564,7.6593,7.6665,7.8022,7.8473,7.9116,7.9784,8.03,8.0616,8.0734,8.1612,8.1574,7.9966,8.3439,8.476,8.1596,7.5999,7.0349,6.638,6.1476,5.7105,5.5221,5.5319,5.5771,5.5952,5.6715,5.8886,6.377,6.6296,7.0074,7.7056,8.307,8.8951,9.5036,10.3669,10.9582,11.061,11.2711,11.3797,11.3326,11.3,11.2312,11.1008,11.09,11.0501,10.9704,10.8908,10.8292,10.7785,10.7034,10.638,10.6122,10.6107,10.6607,10.7324,10.5447,10.5019,10.5656,10.3974,10.3251,0.0,10.373,10.3083,10.2209,10.3201,10.2912,10.2207,10.3239,10.3584,10.3813,10.4231,10.3814,10.3207,10.3511,10.3207,10.279,10.3074,10.2787,10.2197,10.1111,10.0113,9.9135,9.843,9.7753,9.7158,9.6554,9.6248,9.5981,9.5719,9.47,9.367,9.3281,9.1835,9.0454,8.9765,8.8997,8.8152,8.7121,8.8194,8.8652,8.7422,8.8532,8.8912,8.776,8.7298,8.668,8.5538,8.4079,8.2723,8.1683,7.9429,7.7816,7.7027,7.6019,7.6094,7.7378,7.7871,7.867,7.969,7.9992,8.0275,8.0469,8.0965,8.0927,0.0,7.8363,7.9858,7.8884,7.3938,6.8513,6.5475,6.0768,0.0,5.6858,5.5936,5.5608,5.7171,5.7477,5.789,5.9144,6.2713,6.7805,7.5112,8.0839,8.8143,9.8622,10.3185,10.6409,10.8509,11.1588,11.3399,11.3362,11.2711,11.1878,11.1081,11.0972,11.0574,10.9777,10.904,10.8641,10.8473,10.738,10.6887,10.6887,10.6646,10.7022,10.7778,10.5589,10.5312,10.6288,10.4017,10.3294,10.371,10.3597,10.283,10.1683,10.2697,10.2101,10.0915,10.1996,10.2411,10.2487,10.3283,10.298,10.2411,10.3207,10.3397,10.3339,10.269,10.2494,10.2219,10.0518,9.953,9.8659,9.7095,9.7248,9.7486,9.6012,9.6324,9.6713,9.5997,9.5205,9.4405,9.3638,9.2833,9.179,9.0181,8.914,8.8256,8.7233,8.7771,8.827,8.8112,8.8957,8.9455,8.9294,8.8568,8.7645,8.6595,8.4854,8.32,8.1809,8.0029,7.8265,7.6429,7.6275,7.6378,7.6593,7.7528,7.8558,7.9546,7.9988,8.0314,8.0506,8.0506,8.0506,6.2152,0.0,6.8884,6.5619,6.3269,6.1149,0.0,5.7129,5.6219,5.6333,0.0,5.6975,5.8804,5.8994,6.0473,6.5359,6.7862,7.1398,7.7811,8.7782,9.7825,10.6988,10.9994,11.1298,11.1298,11.3109,11.4332,11.4495,11.4187,11.3426,11.2207,11.2098,11.1481,11.0101,11.0,10.9599,10.8794,10.787,10.7672,10.7995,10.7538,10.762,10.8099,10.6529,10.6022,10.6288,10.4198,10.3624,10.4179,10.3177,10.297,10.3185,10.3025,10.2772,10.2614,10.2903,10.317,10.3283,10.3511,10.298,10.2184,10.1805,10.1691,10.1805,10.2201,10.2007,10.143,10.0275,9.8693,9.7172,9.6648,9.6829,9.7043,9.6668,9.6745,9.6866,9.6724,9.5128,9.383,9.429,9.2295,9.0559,9.0682,8.9025,8.7598,8.7228,8.7309,8.7619,8.8115,8.8959,8.9455,8.9294,8.9223,8.8456,8.6722,8.588,8.4722,8.296,8.1658,8.009,7.8148,7.8708,7.8447,7.7303,7.85,7.9411,8.003,8.0154,8.0314,8.0506,8.0506,8.0506,5.6049,6.0114,6.3766,6.1934,6.0132,5.8662,5.7939,0.0,0.0,0.0,0.0,5.6922,5.9136,5.8958,6.0143,6.526,6.7433,7.2394,8.3506,9.3432,10.2388,11.0501,11.2302,11.3126,11.3416,11.4214,11.4785,11.5008,11.4749,11.396,11.2595,11.2486,11.1795,11.0196,11.0181,11.002,10.962,10.8911,10.8709,10.9101,10.815,10.8119,10.8897,10.7135,10.6286,10.64,10.4604,10.3917,10.4023,10.2914,10.281,10.3313,10.2711,10.2682,10.3164,10.2923,10.3189,10.3511,10.3094,10.2715,10.2184,10.1805,10.1691,10.1691,10.2164,10.1308,9.9942,9.9486,9.8339,9.701,9.6153,9.6409,9.6783,9.6401,9.6592,9.6828,9.6542,9.5476,9.4483,9.4254,9.283,9.1367,9.0639,8.9406,8.8252,8.734,8.7463,8.781,8.8155,8.8998,8.9609,8.9867,9.0028,8.9493,8.7909,8.7535,8.6236,8.3445,8.2636,8.1407,7.9448,7.977,7.9583,7.884,7.965,8.0401,8.1132,8.0877,8.0847,8.1003,8.0659,8.0506,5.4296,5.8081,6.1778,6.1707,5.9894,5.8374,5.8959,0.0,0.0,0.0,0.0,0.0,5.9455,5.9065,0.0,6.3663,6.6809,7.4251,9.0042,9.7775,10.4308,11.1298,11.2545,11.3394,11.4594,11.4947,11.5008,11.5166,11.5081,11.4292,11.2873,11.2764,11.2073,11.0582,11.0639,11.0624,11.0481,10.9786,10.9614,10.984,10.844,10.8402,10.9433,10.7066,10.6214,10.6323,10.4675,10.3799,10.3298,10.2361,10.2322,10.2762,10.2305,10.2711,10.3395,10.2999,10.3283,10.37,10.279,10.2411,10.2298,10.2487,10.2184,10.1957,10.2425,10.0701,9.8583,9.8432,9.7934,9.7077,9.5572,9.6019,9.6661,9.5936,9.6363,9.6713,9.6204,9.5785,9.5213,9.4097,9.348,9.2518,9.0633,8.9979,8.9213,8.7683,8.7883,8.8194,8.8232,8.8922,8.9726,9.0561,9.0798,9.0415,8.9248,8.9038,8.7559,8.424,8.365,8.2611,8.069,8.0137,8.0114,8.0593,8.0688,8.1233,8.214,8.1672,8.1418,8.1422,8.0774,8.0506,5.7183,5.9652,6.0367,5.6253,5.6043,5.6582,5.5418,0.0,0.0,0.0,0.0,0.0,0.0,6.286,6.4237,6.7969,7.533,8.4047,9.3913,10.0002,10.5503,11.1407,11.3452,11.4376,11.3903,11.468,11.5335,11.5489,11.5298,11.4764,11.4136,11.4136,11.3734,11.282,11.2895,11.2363,11.1133,10.9592,10.9032,10.9166,10.7959,10.7575,10.7883,10.5582,10.4645,10.4675,10.2602,10.1958,10.2399,10.0993,10.1371,10.2875,10.2909,10.3504,10.4513,10.5197,10.5103,10.4496,10.37,10.2904,10.2411,10.3207,10.1919,10.0478,10.1881,10.0592,9.847,9.7712,9.6489,9.5387,9.5121,9.5886,9.6722,9.657,9.6692,9.6904,9.7009,9.5325,9.4023,9.4674,9.2441,9.0825,9.1902,9.0325,8.8786,8.8517,8.7804,8.7578,8.838,8.8499,8.919,9.0685,9.0877,9.0493,8.9531,8.9163,8.841,8.6936,8.5981,8.4556,8.2496,8.0342,7.998,8.152,8.1132,8.1066,8.1562,8.1451,8.1113,8.0659,8.0544,8.0506,5.6311,5.7779,5.8478,5.7473,5.8172,5.8661,5.6917,0.0,0.0,0.0,0.0,0.0,0.0,6.5947,6.8919,7.5478,8.3056,9.0599,9.7749,10.2713,10.7553,11.24,11.3928,11.4522,11.4692,11.5043,11.5453,11.5808,11.562,11.5306,11.5108,11.4705,11.4193,11.3901,11.3078,11.205,11.0597,10.9607,10.8929,10.8607,10.7552,10.6727,10.5731,10.4309,10.307,10.1891,10.1105,10.0895,10.1158,10.0179,10.1114,10.3142,10.3202,10.4416,10.6161,10.7111,10.6315,10.4686,10.4382,10.37,10.3094,10.3473,10.2487,10.1312,10.2108,10.0213,9.7825,9.7408,9.6527,9.5603,9.511,9.5447,9.5896,9.599,9.573,9.5477,9.57,9.4134,9.2718,9.2832,9.1252,9.0017,9.0364,8.9479,8.8517,8.8055,8.7529,8.7343,8.7763,8.8188,8.8919,9.0072,9.0609,9.0723,9.0183,8.9855,8.8783,8.6758,8.6074,8.516,8.3803,8.172,8.1554,8.3311,8.2217,8.2027,8.2699,8.2368,8.1801,8.1079,8.0659,8.0506,5.6563,5.7476,5.8518,6.0526,6.0977,6.0675,5.9998,0.0,0.0,0.0,0.0,0.0,6.6734,6.9991,7.4577,8.2521,8.9546,9.5842,10.103,10.5425,10.9511,11.3322,11.4061,11.4678,11.551,11.5714,11.5808,11.5993,11.5771,11.5787,11.6007,11.5202,11.4872,11.5111,11.3609,11.2086,11.0698,10.9777,10.8763,10.7626,10.6487,10.5207,10.3642,10.2435,10.0919,9.9316,9.9479,9.9525,9.9547,9.9024,10.0444,10.2714,10.2903,10.4911,10.7718,10.84,10.7187,10.5406,10.5178,10.4382,10.3586,10.3586,10.2904,10.1995,10.1995,9.9796,9.7295,9.7295,9.6627,9.5781,9.5136,9.5045,9.5153,9.5096,9.4609,9.4128,9.3969,9.2791,9.1606,9.0874,8.9983,8.9205,8.8815,8.8584,8.8238,8.7512,8.7329,8.7337,8.7529,8.8109,8.8879,8.9841,9.0494,9.0799,9.0597,9.0536,8.9315,8.6436,8.5809,8.5107,8.4362,8.2737,8.2671,8.4467,8.3126,8.2798,8.3612,8.3323,8.2527,8.1347,8.1003,8.0734,6.1142,6.222,6.2529,6.3545,6.1656,0.0,6.3392,6.2367,0.0,6.4835,0.0,0.0,0.0,7.6186,8.244,8.6965,9.4052,10.0233,10.3544,10.7787,11.1396,11.354,11.4462,11.5189,11.562,11.5771,11.5993,11.5993,11.5993,11.6323,11.7131,11.6323,11.6305,11.726,11.5678,11.4236,11.2945,11.0451,10.8127,10.589,10.3983,10.2608,10.1891,9.8926,9.7654,9.7741,9.7207,9.7024,9.7158,9.7121,9.8612,10.1088,10.1882,10.4836,10.8514,10.8589,10.8021,10.6998,10.6277,10.4989,10.3586,10.3586,10.2487,10.1199,10.1199,9.9379,9.7295,9.7295,9.612,9.4869,9.4793,9.4895,9.4855,9.4278,9.4143,9.3823,9.2477,9.1565,9.0762,9.0101,8.8738,8.7918,8.8745,8.8205,8.7634,8.7533,8.7435,8.7671,8.8479,8.8563,8.9107,9.0759,9.0877,9.0719,9.0295,9.1064,9.0409,8.7551,8.5781,8.4567,8.3861,8.2228,8.2114,8.3867,8.3079,8.2787,8.2945,8.3671,8.2835,8.0693,8.1456,8.1379,5.861,6.0008,6.1695,6.4112,6.4507,0.0,0.0,6.5219,6.6734,7.0152,7.1195,0.0,0.0,8.1201,8.6354,9.1033,9.6828,10.1964,10.5786,10.8782,11.1381,11.354,11.4571,11.5298,11.562,11.5771,11.5993,11.5993,11.5993,11.658,11.7902,11.6948,11.6708,11.7609,11.5724,11.3598,11.1578,10.9095,10.629,10.349,10.2202,10.0312,9.7942,9.635,9.4897,9.3642,9.369,9.4047,9.4668,9.5945,9.7588,9.9687,10.2564,10.5386,10.7907,10.84,10.8021,10.7301,10.7604,10.6581,10.5103,10.4496,10.3207,10.1691,10.0592,9.8887,9.7295,9.7295,9.6029,9.4689,9.4793,9.4844,9.4706,9.4057,9.3117,9.2154,9.1195,8.9605,8.8385,8.8224,8.7396,8.6832,8.7241,8.7078,8.6817,8.6685,8.6653,8.6967,8.7786,8.8329,8.9025,9.0144,9.103,9.1441,9.105,9.1355,9.0479,8.7801,8.6996,8.6045,8.4714,8.3084,8.2661,8.384,8.2634,8.203,8.2108,8.2988,8.2722,8.1418,8.2298,8.2564,5.7654,5.8934,6.0999,6.4004,6.6002,0.0,6.8373,6.992,7.2101,7.5452,7.6594,0.0,8.0787,0.0,8.8987,9.2996,9.8454,10.3482,10.7224,10.9043,11.0884,11.3042,11.3952,11.4495,11.4815,11.513,11.5296,11.5589,11.5718,11.6562,11.8362,11.702,11.6646,11.7753,11.5309,11.304,11.0783,10.7824,10.4676,10.135,9.9501,9.7391,9.5128,9.401,9.2666,9.12,9.1658,9.2216,9.3002,9.4561,9.656,9.9,10.3207,10.5482,10.6694,10.8097,10.7907,10.6998,10.7907,10.7111,10.5482,10.4382,10.3207,10.1995,10.0289,9.8811,9.7712,9.7658,9.6393,9.5053,9.5158,9.4931,9.4528,9.3628,9.2537,9.1406,9.0307,8.88,8.7581,8.7267,8.6863,8.6562,8.6452,8.6645,8.6662,8.6323,8.6716,8.7192,8.7709,8.8556,8.9332,8.9994,9.1181,9.1697,9.1072,9.1347,9.0395,8.7883,8.7737,8.7019,8.5342,8.3707,8.3366,8.4472,8.2605,8.1996,8.2569,8.3142,8.3065,8.2444,8.3288,8.3592,5.9398,6.0088,6.1171,6.3553,6.5705,0.0,7.5565,7.693,7.7661,8.0697,8.1554,8.2031,8.3279,8.7126,9.073,9.2568,9.8932,10.4701,10.7332,10.8638,11.0088,11.2171,11.2569,11.2889,11.3132,11.3443,11.3901,11.4708,11.4963,11.621,11.8566,11.6735,11.6282,11.8207,11.5095,11.2695,11.1303,10.6986,10.3204,9.987,9.5583,9.3661,9.3795,9.1832,9.1081,9.1163,9.1546,9.1822,9.2125,9.3033,9.5484,9.9038,10.3094,10.4799,10.5103,10.7604,10.749,10.6202,10.6998,10.6202,10.4496,10.279,10.2298,10.1995,10.0289,9.9228,9.8567,9.842,9.7301,9.6067,9.5961,9.5264,9.4273,9.3003,9.2585,9.19,8.9745,8.9338,8.8921,8.7497,8.7363,8.7256,8.6626,8.7138,8.7348,8.6538,8.7788,8.8771,8.8709,8.9402,9.0142,9.0683,9.1276,9.1248,9.0096,9.0958,9.0434,8.7883,8.7819,8.7184,8.5588,8.4021,8.3982,8.5628,8.3179,8.2794,8.4588,8.4441,8.4092,8.35,8.4345,8.4268,5.9144,6.0052,0.0,6.638,6.9669,0.0,0.0,8.0549,0.0,0.0,8.6428,8.6263,8.6381,8.9646,9.273,9.4004,9.9123,10.3384,10.4773,10.6459,10.7931,10.863,10.952,11.0348,11.121,11.101,11.1499,11.325,11.3448,11.4125,11.5628,11.4582,11.4132,11.4186,11.2269,11.0009,10.7219,10.3464,9.9572,9.5544,9.203,9.0728,9.1313,9.0366,8.9743,8.9302,8.9761,9.0034,9.0344,9.2593,9.584,9.9569,10.082,10.1995,10.3283,10.5216,10.5595,10.5292,10.6316,10.5917,10.4702,10.3102,10.2099,10.1324,9.9615,9.8773,9.8307,9.7647,9.6646,9.5777,9.5869,9.4901,9.3643,9.2657,9.1518,9.0314,8.9336,8.8667,8.8303,8.8152,8.7752,8.7578,8.8082,8.785,8.7704,8.8027,8.8496,8.8969,8.9409,9.0071,9.0722,9.1403,9.1528,9.1385,9.0932,9.1207,9.057,8.8759,8.8118,8.7061,8.5588,8.4021,8.3714,8.4748,8.2983,8.2559,8.3668,8.4246,8.4471,8.4345,8.5228,8.5839,6.0448,6.1876,0.0,6.9389,7.2867,7.6902,8.3859,0.0,0.0,0.0,8.9874,8.9263,8.938,9.181,9.4149,9.5119,9.8813,10.1818,10.2703,10.3389,10.4144,10.4924,10.5539,10.6344,10.7199,10.7451,10.8332,10.9913,11.0613,11.1483,11.2797,11.2095,11.1447,11.1196,10.9415,10.6995,10.4089,10.0229,9.6569,9.3181,8.9596,8.8117,8.8729,8.832,8.7891,8.7561,8.8408,8.9152,9.0012,9.2125,9.4893,9.7848,9.8545,9.9834,10.1502,10.3207,10.3814,10.3965,10.5006,10.4719,10.377,10.2599,10.18,10.1088,9.9288,9.869,9.834,9.7399,9.6474,9.5701,9.5453,9.4008,9.2557,9.2417,9.1367,9.0238,8.9672,8.9234,8.8909,8.8883,8.8608,8.8444,8.87,8.8579,8.854,8.8666,8.894,8.9409,9.0146,9.0454,9.075,9.12,9.1057,9.0827,9.0732,9.0684,9.0058,8.8607,8.7998,8.7019,8.5588,8.4403,8.4133,8.4939,8.3745,8.3546,8.4387,8.489,8.5193,8.5296,8.5796,8.6368,6.2802,6.4924,0.0,7.2782,7.6217,0.0,8.7213,9.0293,9.1921,9.2951,9.2027,9.1351,9.2119,9.3678,9.506,9.5806,9.805,9.9883,10.078,9.973,9.943,10.104,10.0977,10.1193,10.2043,10.33,10.4424,10.5424,10.682,10.8217,10.9658,10.8996,10.8373,10.8336,10.6026,10.3716,10.122,9.6894,9.3763,9.1782,8.7807,8.589,8.5835,8.6036,8.6105,8.6199,8.7394,8.8834,9.0453,9.1454,9.2919,9.4621,9.6332,9.7939,9.9531,10.1199,10.1881,10.2012,10.301,10.2912,10.2076,10.1433,10.1091,10.0824,9.9188,9.8642,9.8324,9.7301,9.6506,9.5726,9.4788,9.2758,9.1204,9.2061,9.1653,9.0941,9.0448,9.0383,9.0198,8.9722,8.9688,8.9532,8.8841,8.9338,8.9568,8.8841,8.9266,8.9995,9.08,9.0641,9.0474,9.0383,9.0159,8.9935,8.9839,8.9752,8.9175,8.7921,8.7693,8.7023,8.5664,8.4977,8.4972,8.5777,8.5155,8.5258,8.6094,8.6142,8.6103,8.6094,8.6017,8.6055,6.4643,6.6584,0.0,0.0,8.4904,9.059,9.3032,9.4414,9.4833,9.4192,9.3445,9.3208,9.4217,9.4592,9.5159,9.6169,9.7129,9.7562,9.6906,9.6934,9.6644,9.575,9.6346,9.7119,9.7789,9.8142,9.9255,10.1376,10.2382,10.2996,10.3202,10.3687,10.3501,10.2487,10.0587,9.8731,9.6839,9.3314,9.0193,8.7409,8.5401,8.3704,8.2585,8.4754,8.5952,8.6459,8.6771,8.7931,8.9474,8.9838,9.1416,9.3676,9.4107,9.4878,9.6082,9.7855,9.8514,9.868,9.9809,10.0087,9.9793,9.905,9.8363,9.7725,9.7894,9.7363,9.6692,9.6264,9.5636,9.4855,9.3903,9.1938,9.0276,9.0514,8.9811,8.9356,8.9953,9.0159,9.0263,9.0287,8.9916,8.9726,9.0263,8.9995,8.9803,9.034,9.0494,9.0647,9.0721,9.0555,9.0383,9.025,8.9982,8.9839,8.9935,8.9365,8.8927,8.8815,8.768,8.6887,8.6623,8.532,8.5046,8.5923,8.5978,8.6037,8.6191,8.6846,8.6813,8.6094,8.5504,8.596,6.5908,6.9616,0.0,8.4299,0.0,9.4904,9.5152,9.5089,9.4532,9.3031,9.3202,9.3749,9.4106,9.4286,9.442,9.4794,9.4877,9.4438,9.3211,9.2649,9.202,9.1296,9.1658,9.2334,9.3575,9.4108,9.4995,9.6684,9.7515,9.7901,9.795,9.8466,9.8423,9.744,9.5737,9.4184,9.2788,8.9329,8.6745,8.5227,8.3309,8.1634,8.0332,8.2453,8.3825,8.4588,8.5017,8.5971,8.721,8.8216,8.9641,9.1332,9.1959,9.2744,9.3719,9.5212,9.5983,9.6413,9.7115,9.7896,9.843,9.7731,9.7463,9.7257,9.6781,9.6267,9.5589,9.4541,9.401,9.3479,9.2582,9.0863,8.9412,8.945,8.9108,8.8918,8.9429,8.9893,9.0212,9.0345,9.0131,9.0103,9.0561,9.0256,9.0182,9.0681,9.0717,9.0638,9.0638,9.0513,9.034,9.0205,9.0075,8.9982,8.9982,8.9307,8.8797,8.8553,8.7416,8.6699,8.6393,8.5731,8.5604,8.6026,8.7423,8.7526,8.6184,8.707,8.6846,8.5517,8.4311,8.4682,6.6329,7.2725,8.0458,9.0211,9.4517,0.0,9.5551,9.4438,9.2907,9.0722,9.1614,9.2783,9.2625,9.2612,9.2548,9.2509,9.17,9.071,8.9512,8.8076,8.7095,8.736,8.7391,8.7851,8.9146,9.0324,9.1297,9.1885,9.2733,9.3228,9.3344,9.3675,9.3591,9.2917,9.1185,8.9935,8.9203,8.5637,8.3861,8.3825,8.1446,7.9727,7.8721,7.978,8.0842,8.1995,8.2817,8.3751,8.4816,8.6629,8.7903,8.8897,9.014,9.0939,9.1609,9.2884,9.3704,9.4247,9.4791,9.599,9.718,9.6623,9.6936,9.7196,9.5845,9.5189,9.4647,9.3155,9.2527,9.2147,9.1318,8.9849,8.8577,8.8623,8.86,8.8645,8.8904,8.9475,8.9969,9.0121,9.0301,9.0432,9.0383,9.034,9.0383,9.0508,9.0465,9.0427,9.0551,9.0465,9.034,9.025,9.0205,9.0053,8.9695,8.9139,8.839,8.7416,8.6774,8.6241,8.5696,8.5889,8.6169,8.6415,8.866,8.8622,8.6246,8.6948,8.6384,8.4599,8.2956,8.3162,6.5019,7.4244,8.4971,9.3049,9.5805,9.6307,9.5943,9.4243,9.1782,8.8428,8.8304,8.9126,9.0357,8.8708,8.7667,8.9149,8.7401,8.5876,8.59,8.4909,8.4115,8.3901,8.4786,8.5195,8.4439,8.6501,8.7807,8.7595,8.906,8.9843,8.953,8.9788,8.9566,8.897,8.7389,8.6402,8.6119,8.349,8.2147,8.2012,7.9828,7.8369,7.7476,7.7282,7.8239,8.0115,8.1082,8.2369,8.3882,8.502,8.6442,8.807,8.906,8.9197,8.91,9.0802,9.1235,9.1081,9.2665,9.3937,9.4828,9.4758,9.4834,9.4943,9.5311,9.4433,9.3448,9.3573,9.2661,9.1567,9.1311,8.9488,8.7711,8.7971,8.7438,8.7198,8.8547,8.8927,8.9193,8.9915,9.0121,9.025,9.025,9.025,9.025,9.025,9.034,9.0383,9.0427,9.0383,9.0383,9.0383,9.0295,8.9686,8.8409,8.818,8.7271,8.5167,8.5078,8.506,8.5004,8.5341,8.6223,8.7706,8.8042,8.7615,8.6472,8.6392,8.5466,8.3648,8.2032,8.2273,7.1542,7.9106,8.6583,9.4823,9.6617,9.6305,9.5447,9.2508,8.8945,8.5686,8.3454,8.2982,8.6125,8.5728,8.4985,8.495,8.3731,8.2443,8.1628,8.0951,8.0542,8.0508,8.1155,8.2,8.2524,8.3626,8.463,8.557,8.6253,8.6485,8.6238,8.6389,8.6174,8.559,8.4317,8.3627,8.3556,8.1924,8.0763,8.003,7.8362,7.6946,7.5825,7.5794,7.6679,7.809,7.8555,7.9689,8.1438,8.3415,8.504,8.6368,8.8388,8.8828,8.8507,9.0373,9.0694,9.0479,9.2284,9.3562,9.4414,9.4414,9.472,9.5064,9.4822,9.3944,9.2945,9.2603,9.1596,9.0637,9.0456,8.9365,8.8129,8.7763,8.7382,8.7217,8.78,8.8416,8.9032,8.983,9.0067,9.0113,9.0205,9.0159,9.0266,9.0852,9.0555,9.0448,9.1032,9.0732,9.0508,9.0383,9.005,8.952,8.8797,8.7502,8.6355,8.5389,8.4604,8.4419,8.5014,8.5307,8.6117,8.7468,8.789,8.8064,8.8029,8.7292,8.6261,8.4945,8.3256,8.3027,7.4968,8.0613,8.5258,9.3475,9.5493,9.5115,9.3957,9.018,8.5948,8.3067,7.9164,7.7337,8.0776,8.1705,8.167,8.0859,8.0185,7.9289,7.7807,7.754,7.7545,7.7711,7.8326,7.9407,8.084,8.1423,8.2298,8.3852,8.3882,8.3862,8.375,8.3646,8.3362,8.286,8.1737,8.1122,8.1122,8.0077,7.8963,7.7912,7.6838,7.578,7.4616,7.4735,7.5248,7.618,7.6866,7.8053,7.9744,8.2445,8.4199,8.5452,8.7865,8.8587,8.8405,9.0323,9.0646,9.0388,9.22,9.3517,9.437,9.4414,9.4905,9.5439,9.479,9.3937,9.2962,9.2032,9.1102,9.0286,8.9915,8.9365,8.8615,8.7969,8.7581,8.7459,8.7544,8.8312,8.9118,8.9725,8.9839,8.9887,9.0029,9.0124,9.0504,9.1292,9.0882,9.0738,9.1476,9.0961,9.0432,9.0122,8.9756,8.911,8.819,8.6737,8.5539,8.4763,8.3856,8.3876,8.492,8.4932,8.57,8.7417,8.7595,8.7953,8.8592,8.7472,8.6508,8.5806,8.3886,8.3161,6.9877,7.4968,8.0099,8.7406,9.0738,9.2188,9.1647,8.7568,8.3317,8.0762,7.6468,7.3461,7.4251,7.573,7.6774,7.7061,7.6508,7.5644,7.48,7.4952,7.5521,7.6258,7.7312,7.7952,7.8327,8.0106,8.1249,8.1327,8.217,8.2564,8.2334,8.1813,8.1425,8.112,7.9655,7.8869,7.8869,7.7482,7.6518,7.5868,7.5381,7.4914,7.4395,7.3849,7.3876,7.4478,7.6958,7.861,7.9744,8.2445,8.4536,8.6162,8.7379,8.7991,8.8405,9.0103,9.0398,9.0295,9.2062,9.3381,9.4242,9.437,9.486,9.5417,9.5341,9.4677,9.3745,9.2727,9.1843,9.1046,9.021,8.9412,8.8767,8.8653,8.7952,8.7468,8.8204,8.8885,8.9348,8.9386,8.9423,8.9438,8.9591,9.0272,9.089,9.1079,9.1225,9.1283,9.1499,9.0873,9.0122,8.9405,8.9414,8.8232,8.5089,8.5612,8.4747,8.1647,8.2339,8.3294,8.4211,8.3639,8.4926,8.8383,8.6902,8.6412,8.704,8.5816,8.5175,8.4995,8.2559,8.1499,6.9074,7.3127,7.7451,8.4065,8.6263,8.6742,8.6633,8.3098,7.9182,7.7455,7.2762,6.9601,7.138,7.2393,7.2651,7.2359,7.19,7.1569,7.1689,7.1938,7.2777,7.4215,7.4739,7.5648,7.752,7.8307,7.9468,8.1198,8.1287,8.1143,8.072,8.0392,7.9921,7.9151,7.8583,7.8051,7.7554,7.7789,7.7336,7.6086,7.5967,7.5284,7.417,7.3751,7.3744,7.4275,7.6252,7.7718,7.8926,8.1139,8.334,8.5489,8.7154,8.8576,8.9846,9.0992,9.1482,9.1746,9.3514,9.4116,9.4181,9.4715,9.5096,9.5163,9.4534,9.3726,9.2841,9.186,9.0976,9.0256,8.9855,8.9552,8.9275,8.9087,8.8187,8.769,8.8571,8.9092,8.9423,8.9423,8.9423,8.9423,8.9475,8.9805,9.0272,9.0852,9.0673,9.0713,9.1423,9.0829,9.0122,8.9409,8.8499,8.7274,8.558,8.4368,8.3286,8.2301,8.2071,8.2708,8.434,8.3615,8.4645,8.7651,8.6644,8.6917,8.8703,8.6959,8.6095,8.5948,8.3435,8.1165,6.6247,7.0193,7.4721,7.9634,8.1053,8.1594,8.2784,7.9508,7.5805,7.4961,7.058,6.7392,6.9145,6.8668,6.824,6.8606,6.8551,6.8664,6.8972,6.9491,7.0439,7.2085,7.2645,7.3855,7.6424,7.6969,7.8165,8.0463,8.0243,7.992,7.9786,7.9088,7.8213,7.7161,7.7576,7.7223,7.596,7.7127,7.7072,7.5903,7.5577,7.5001,7.417,7.3459,7.3545,7.4275,7.5863,7.7365,7.8889,8.1065,8.3303,8.5489,8.7154,8.8764,9.019,9.1391,9.1982,9.2506,9.4326,9.4654,9.4382,9.4734,9.4763,9.4475,9.3541,9.2797,9.214,9.1244,9.0323,8.9642,8.9489,8.9386,8.928,8.9064,8.8429,8.8034,8.871,8.9047,8.9211,8.9265,8.9265,8.9265,8.9318,8.9702,9.0183,9.0801,9.0624,9.0628,9.1423,9.06,8.9588,8.8609,8.7428,8.6194,8.484,8.3341,8.2438,8.2368,8.1886,8.2471,8.4414,8.3719,8.4546,8.7242,8.6204,8.6303,8.7665,8.6233,8.5499,8.5402,8.1907,7.8025,0.0,0.0,0.0,7.3729,7.5102,7.6758,7.9918,7.6784,7.3263,7.3166,6.9729,6.693,6.7367,6.4646,6.3293,6.5892,6.6698,6.6808,6.6682,6.7554,6.8685,7.0034,7.1191,7.2768,7.5071,7.6348,7.7626,7.9089,7.9079,7.916,7.9515,7.7823,7.6305,7.5133,7.6608,7.6327,7.401,7.514,7.5565,7.5118,7.4144,7.3921,7.4395,7.3008,7.3067,7.4349,7.5937,7.7698,7.9781,8.2482,8.4573,8.6237,8.7342,8.8388,8.9437,9.1093,9.186,9.2352,9.4173,9.4895,9.4844,9.423,9.378,9.3429,9.2519,9.2049,9.1687,9.0857,9.0027,8.9295,8.9189,8.8879,8.8653,8.8653,8.8538,8.8458,8.8458,8.8613,8.8823,8.8936,8.8992,8.9047,8.9211,8.9996,9.0721,9.0877,9.0941,9.1139,9.1377,9.0028,8.8485,8.7006,8.6312,8.4955,8.2516,8.2459,8.2277,8.1581,8.1734,8.2649,8.4453,8.3831,8.4657,8.7263,8.5635,8.4375,8.3521,8.3242,8.3048,8.2869,7.7544,7.1784,6.264,0.0,0.0,0.0,0.0,0.0,7.0515,6.8666,6.6979,6.8188,6.5323,6.3134,6.4774,6.3246,6.204,6.2529,6.3254,6.3849,6.4005,6.5806,6.7666,6.8805,7.0392,7.241,7.5151,7.6227,7.738,7.8972,7.9021,7.8771,7.811,7.722,7.6226,7.5372,7.6689,7.6408,7.4245,7.5748,7.6133,7.5189,7.4683,7.4688,7.5006,7.4458,7.4779,7.6011,7.716,7.8701,8.0505,8.2593,8.4497,8.6179,8.7192,8.856,9.0062,9.1226,9.2127,9.2823,9.4081,9.4545,9.4447,9.369,9.335,9.3009,9.1332,9.0809,9.0508,8.8859,8.8296,8.8012,8.7285,8.6911,8.6623,8.6623,8.6505,8.6594,8.7347,8.7578,8.7939,8.8748,8.8936,8.9047,8.9211,8.9506,8.9815,8.9969,9.0169,9.0172,8.9703,8.8896,8.7727,8.6278,8.5001,8.3779,8.2642,8.2057,8.2056,8.2609,8.2708,8.358,8.5448,8.4754,8.5253,8.7243,8.5635,8.3784,8.1718,8.1014,7.9684,7.7614,7.042,6.4692,0.0,0.0,0.0,6.5454,0.0,0.0,6.6367,6.5062,6.4074,6.538,6.367,6.2234,6.3208,6.2113,6.1116,6.0848,6.1597,6.2281,6.2695,6.3919,6.5427,6.6965,6.8466,7.0656,7.3889,7.5397,7.69,7.8768,7.9339,7.8838,7.7469,7.7447,7.6717,7.5147,7.7152,7.7187,7.4971,7.6293,7.66,7.5799,7.5217,7.5146,7.5498,7.5225,7.5653,7.6753,7.7604,7.9035,8.0897,8.2904,8.4679,8.6217,8.753,8.8748,8.9855,9.1132,9.1941,9.2523,9.3408,9.3707,9.3553,9.2333,9.1918,9.1504,8.9648,8.9086,8.8767,8.7341,8.6667,8.6275,8.5656,8.5409,8.5366,8.5738,8.5655,8.5804,8.6468,8.6959,8.7599,8.8558,8.8936,8.8989,8.8759,8.9145,8.9414,8.9188,8.9346,8.9429,8.9196,8.8224,8.7045,8.5542,8.4407,8.3295,8.2223,8.1801,8.2011,8.3058,8.2802,8.361,8.5789,8.4767,8.4969,8.6726,8.4401,8.0871,7.615,7.7456,7.5234,6.9678,6.3904,5.9599,0.0,0.0,0.0,0.0,6.3851,0.0,6.4622,6.3779,6.283,6.3331,6.2889,6.2341,6.1845,6.0986,6.035,6.0053,6.1079,6.1919,6.2273,6.239,6.313,6.5112,6.6387,6.8479,7.2146,7.4309,7.6454,7.8599,7.9679,7.9482,7.782,7.8502,7.7861,7.5312,7.8015,7.8406,7.6199,7.6991,7.7187,7.6661,7.5927,7.5705,7.5995,7.5772,7.6064,7.6921,7.7657,7.9014,8.0802,8.3232,8.4912,8.6271,8.8073,8.8823,8.9123,9.0812,9.1489,9.164,9.2371,9.2618,9.2295,9.0644,8.9967,8.9517,8.7867,8.7341,8.7033,8.6132,8.5089,8.4137,8.4168,8.4109,8.4295,8.5038,8.5261,8.5432,8.5626,8.6415,8.7354,8.8371,8.8804,8.8888,8.8172,8.8834,8.9301,8.8891,8.8842,8.8949,8.9179,8.7849,8.6348,8.4978,8.4258,8.3336,8.1903,8.1929,8.2383,8.333,8.2854,8.3672,8.6101,8.4689,8.4451,8.5827,8.185,7.6209,6.8958,7.2498,6.9718,6.111,5.8364,5.6123,0.0,0.0,0.0,6.3279,6.4148,0.0,5.6883,5.7769,5.9564,5.7677,5.7181,5.7438,5.8957,5.9573,5.9244,5.7708,6.0248,6.2285,6.1712,6.2768,6.4177,6.5443,6.6969,6.9217,7.2505,7.4669,7.6391,7.7861,7.953,8.0541,8.0789,8.0816,8.0309,7.9088,7.9543,7.9328,7.8409,7.8516,7.8095,7.7054,7.7833,7.7728,7.6873,7.7841,7.8042,7.7657,7.8623,7.9496,8.0518,8.3143,8.4875,8.6087,8.7742,8.8479,8.8783,9.0483,9.0707,9.0392,9.1792,9.1478,9.0296,8.9808,8.9187,8.8428,8.7142,8.6759,8.6462,8.4916,8.301,8.164,8.2288,8.2474,8.2511,8.266,8.3254,8.3997,8.4666,8.5297,8.5938,8.6794,8.7604,8.8277,8.8469,8.8631,8.909,8.9946,8.9583,8.9027,8.8577,8.7233,8.5988,8.5217,8.4441,8.3927,8.3785,8.3832,8.4282,8.5212,8.5788,8.6693,8.7931,8.7011,8.5987,8.4958,7.6839,7.0504,6.6265,6.5026,6.2393,5.8413,5.5706,5.4179,0.0,0.0,6.8548,6.5367,6.4022,0.0,0.0,5.4938,5.5015,5.5019,5.4371,5.4479,5.6511,5.6708,5.6761,5.7648,6.0038,6.1977,6.246,6.2798,6.3419,6.4601,6.6193,6.8313,7.1206,7.4188,7.7122,8.0023,8.0868,8.1593,8.2385,8.2175,8.1597,8.0694,8.1451,8.1233,7.9897,7.9861,7.9432,7.8526,7.8404,7.8224,7.7914,7.7818,7.7894,7.8051,7.8475,7.9305,8.0563,8.3004,8.4398,8.509,8.698,8.7817,8.8047,8.9317,8.9541,8.9355,9.0489,8.9994,8.8889,8.827,8.7476,8.6497,8.5503,8.5012,8.4472,8.3201,8.2089,8.1434,8.1763,8.1933,8.2103,8.2474,8.2994,8.3536,8.4004,8.4741,8.5317,8.5467,8.668,8.7712,8.7923,8.8425,8.8994,8.9745,8.922,8.873,8.8495,8.7171,8.5976,8.533,8.4959,8.4654,8.4316,8.4378,8.4825,8.5736,8.6199,8.6839,8.7744,8.6538,8.3686,7.8998,7.217,6.6814,6.296,6.0397,5.8241,5.6402,5.4134,5.3283,7.1623,7.1902,7.1852,6.7549,6.4243,6.0786,0.0,0.0,0.0,5.2701,5.2125,5.1965,5.3927,5.3575,5.4033,5.7037,5.912,6.0834,6.2212,6.1974,6.2233,6.3933,6.5367,6.7402,7.0376,7.3622,7.7629,8.2535,8.2097,8.2357,8.413,8.3992,8.3445,8.2648,8.3773,8.3592,8.1961,8.1455,8.0876,8.0221,7.8908,7.8508,7.8798,7.7634,7.7525,7.8221,7.8068,7.8914,8.059,8.2407,8.3429,8.3915,8.6103,8.6882,8.6966,8.7869,8.819,8.8302,8.8815,8.8506,8.765,8.6608,8.5641,8.4645,8.4036,8.3271,8.2462,8.1907,8.177,8.1768,8.1778,8.1874,8.214,8.2867,8.3239,8.352,8.3619,8.4492,8.5009,8.4605,8.5801,8.6936,8.7108,8.8194,8.9065,8.9338,8.8922,8.8687,8.8897,8.7734,8.671,8.6133,8.6243,8.6062,8.5385,8.5388,8.5797,8.6475,8.6514,8.6687,8.7072,8.417,7.9258,7.2223,6.7774,6.367,5.9903,5.7512,5.5962,5.5171,5.3526,5.3214,7.6316,7.7509,7.6789,6.6128,6.5466,6.3725,4.9535,0.0,5.0226,4.8129,0.0,4.8797,5.0659,0.0,0.0,5.2159,5.596,5.8657,5.8101,5.9389,6.1699,6.5071,6.6201,6.8257,7.2237,7.3729,7.7088,8.3492,8.1598,8.2504,8.7623,8.8179,8.8289,8.8216,8.6973,8.6242,8.6059,8.3698,8.2175,8.1481,8.0822,7.9954,7.8811,7.8933,7.8633,7.8051,7.8016,7.8829,8.0258,8.0566,8.1575,8.3078,8.5429,8.5946,8.5456,8.6486,8.6845,8.6845,8.7056,8.6994,8.6608,8.5604,8.4534,8.361,8.3631,8.2718,8.1834,8.2547,8.1837,8.1025,8.1768,8.1991,8.2049,8.2238,8.2962,8.3632,8.3882,8.4266,8.4618,8.4703,8.4961,8.5556,8.6425,8.8057,8.9378,8.9687,8.9719,8.9816,9.0072,8.9339,8.8791,8.884,8.8917,8.8942,8.8903,8.9003,8.9061,8.9061,8.9139,8.8517,8.706,7.9641,7.3315,6.8565,6.3575,6.0075,5.8091,5.6301,5.5379,5.5274,5.422,5.4211,7.6697,7.7127,7.5904,6.6967,6.396,6.0419,4.9554,4.7228,4.7243,4.6965,0.0,0.0,0.0,0.0,0.0,0.0,5.4174,5.6067,5.5908,5.8012,6.0555,6.3173,6.3902,6.631,7.1995,7.3932,7.6839,8.1809,8.0875,8.2245,8.7048,8.8653,8.9451,8.9451,8.8929,8.8051,8.6889,8.5358,8.3866,8.2486,8.1928,8.1195,8.0369,7.9076,7.866,7.8815,7.8388,7.8738,7.9727,8.0701,8.112,8.1305,8.2729,8.3556,8.3855,8.441,8.4879,8.5423,8.5905,8.5732,8.5053,8.4051,8.3382,8.3024,8.305,8.2696,8.2325,8.2334,8.1991,8.1568,8.1531,8.1867,8.224,8.2296,8.3042,8.3751,8.3971,8.428,8.4513,8.4673,8.5348,8.6018,8.6451,8.7731,8.9113,9.0447,9.0317,9.0134,9.0315,9.0107,8.9784,8.9415,8.9892,9.0012,8.9546,8.91,8.8574,8.8028,8.568,8.2903,7.9714,7.4286,6.911,6.4332,6.119,5.8772,5.7099,5.6379,5.6322,5.678,5.5907,5.5899,7.7554,7.7489,7.5854,6.7095,6.2439,5.774,4.9278,4.6583,4.6188,4.7424,4.8605,0.0,0.0,0.0,4.9768,5.1421,0.0,5.3658,5.3352,5.5355,5.7786,6.0237,6.2482,6.5987,7.1685,7.2797,7.5299,8.0296,7.9351,8.0968,8.6574,8.8717,8.9767,8.9767,9.0125,8.9504,8.7794,8.6917,8.5825,8.4479,8.3184,8.2407,8.2042,7.9771,7.9129,7.9856,7.9019,7.9131,7.9813,8.0518,8.0378,7.9879,8.0432,8.1205,8.1941,8.2542,8.3247,8.4086,8.5023,8.5,8.4471,8.3473,8.3152,8.3115,8.2954,8.2964,8.2972,8.2474,8.2462,8.2482,8.1958,8.2257,8.2743,8.276,8.3358,8.39,8.4073,8.4379,8.4597,8.4757,8.569,8.6595,8.7001,8.7925,8.9143,9.0668,9.0719,9.072,9.1086,9.1037,9.0904,9.0818,9.1018,9.0983,9.0595,8.939,8.7738,8.5618,8.125,7.6865,7.2608,6.9006,6.501,6.0604,5.9098,5.7812,5.6606,5.6854,5.7265,5.7887,5.7252,5.7395,8.0329,8.0915,7.8798,6.5515,6.1562,5.7909,4.6487,4.629,4.8789,4.9477,5.2726,5.5273,5.4608,5.4369,5.3672,0.0,5.198,0.0,0.0,5.036,5.2572,5.6738,6.3508,6.8877,7.1748,6.9672,7.1585,7.9861,7.6642,7.8274,8.7339,8.9219,8.9972,9.0009,9.0747,9.0747,8.9935,8.8713,8.8099,8.7989,8.497,8.365,8.3781,8.1474,8.0617,8.0933,8.0003,8.0134,8.0842,7.9112,7.8758,7.9348,7.9348,7.9385,7.9607,8.0984,8.2153,8.3113,8.4227,8.5126,8.5611,8.4614,8.4295,8.4183,8.3579,8.3413,8.3413,8.3546,8.3564,8.3564,8.3527,8.3564,8.3564,8.3692,8.3862,8.4104,8.443,8.4589,8.4757,8.493,8.5823,8.6871,8.7962,8.9033,8.9782,8.9998,9.0929,9.1929,9.2882,9.2341,9.2533,9.4273,9.2998,9.2382,9.3197,9.0944,8.7311,8.23,7.7157,7.2386,6.818,6.3969,6.0487,5.7868,5.7,5.6588,5.6606,5.7456,5.7851,5.789,5.7851,5.8276,8.0731,8.0431,7.8339,6.9527,6.3026,5.7033,5.0412,4.9677,5.0241,4.9264,5.3487,5.6764,5.459,5.4568,5.415,0.0,5.2677,5.2257,0.0,4.9553,5.1865,5.6573,6.2879,6.6348,6.5054,6.6698,7.019,7.5679,7.3812,7.6243,8.5069,8.7206,8.8471,8.8956,8.9904,9.0199,8.9836,8.8304,8.7504,8.7399,8.5919,8.505,8.468,8.3473,8.3047,8.3284,8.1979,8.1569,8.1791,7.9985,7.9596,8.0188,7.9554,7.9665,8.0374,8.1545,8.2198,8.2516,8.2948,8.3378,8.3545,8.2631,8.2424,8.2553,8.276,8.2461,8.2125,8.274,8.2104,8.1334,8.1477,8.1956,8.242,8.2472,8.3411,8.4379,8.4665,8.4749,8.4854,8.5056,8.5994,8.7037,8.8001,8.9182,9.0152,9.0834,9.1708,9.2557,9.3078,9.3904,9.4264,9.3853,9.327,9.2338,9.0863,8.6256,8.1247,7.6167,7.2093,6.8225,6.4584,6.1468,5.9212,5.7783,5.6977,5.6864,5.7457,5.7762,5.847,5.9531,5.9531,5.9687,8.0845,8.0238,7.8273,7.1017,6.526,5.9977,5.417,5.4146,5.4955,5.3545,5.6857,5.9909,5.9613,5.7727,5.5729,5.4237,5.3367,5.1858,0.0,4.962,5.1799,5.545,6.0215,6.3099,6.268,6.3674,6.653,7.1801,7.0464,7.287,8.0898,8.4272,8.62,8.6752,8.8803,8.9836,8.9698,8.8893,8.8496,8.8542,8.7688,8.7084,8.673,8.5752,8.5361,8.5504,8.3805,8.3061,8.276,8.0671,8.0077,8.0414,8.0097,8.019,8.0563,8.168,8.2389,8.2872,8.2927,8.3276,8.3547,8.2721,8.2509,8.2598,8.2772,8.2233,8.1782,8.2946,8.2045,8.0969,8.1671,8.2059,8.2297,8.2297,8.3451,8.4665,8.4779,8.4854,8.5033,8.5228,8.6118,8.7159,8.8117,8.9255,9.0422,9.1676,9.2157,9.278,9.3956,9.3956,9.3851,9.3836,9.2432,9.002,8.6489,8.0894,7.5718,7.126,6.7204,6.3881,6.1471,5.9521,5.8311,5.7802,5.7594,5.7771,5.8345,5.8658,5.9485,6.0859,6.0859,6.1013]},{"header":{"parameterUnit":"m.s-1","parameterCategory":1,"la1":30.6,"la2":29.2853,"lo1":-89.7004,"lo2":-87.6739,"dy":0.0162,"dx":0.0183,"nx":112,"ny":82,"refTime":"2023-10-07T06:00:00:Z","depth":0,"parameterNumber":3,"parameterNumberName":"V-component_of_WINDS"},"data":[0.0,0.0,0.0,0.0,0.0,0.0,0.0,0.0,0.0,0.0,0.0,0.0,0.0,0.0,0.0,0.0,0.0,0.0,0.0,0.0,0.0,0.0,0.0,0.0,0.0,0.0,0.0,0.0,0.0,0.0,0.0,0.0,0.0,0.0,0.0,0.0,0.0,0.0,0.0,0.0,0.0,0.0,0.0,0.0,0.0,0.0,0.0,0.0,0.0,0.0,0.0,0.0,0.0,0.0,0.0,0.0,0.0,0.0,0.0,0.0,0.0,0.0,0.0,0.0,0.0,0.0,0.0,0.0,0.0,0.0,0.0,0.0,0.0,0.0,0.0,0.0,0.0,0.0,0.0,0.0,0.0,0.0,0.0,0.0,0.0,0.0,0.0,0.0,0.0,0.0,0.5444,0.4889,0.8177,1.1411,1.4021,1.411,1.2874,1.0407,0.0,0.0,0.0,0.0,0.0,0.0,0.0,0.0,0.0,0.0,0.0,0.0,0.0,0.0,0.0,0.0,0.0,0.0,0.0,0.0,0.0,0.0,0.0,0.0,0.0,0.0,0.0,0.0,0.0,0.0,0.0,0.0,0.0,0.0,0.0,0.0,0.0,0.0,0.0,0.0,0.0,0.0,0.0,0.0,0.0,0.0,0.0,0.0,0.0,0.0,0.0,0.0,0.0,0.0,0.0,0.0,0.0,0.0,0.0,0.0,0.0,0.0,0.0,0.0,0.0,0.0,0.0,0.0,0.0,0.0,0.0,0.0,0.0,0.0,0.0,0.0,0.0,0.0,0.0,0.0,0.0,0.0,0.0,0.0,0.0,0.0,0.0,0.0,0.0,0.0,0.0,0.0,0.0,0.0,0.0,0.0,0.0,0.0,0.0,0.0,0.0,0.0,0.0,0.0,0.6625,0.9623,1.1783,1.3232,1.4262,1.2862,1.1804,1.1373,0.0,0.0,0.0,0.0,0.0,0.0,0.0,0.0,0.0,0.0,0.0,0.0,0.0,0.0,0.0,0.0,0.0,0.0,0.0,0.0,0.0,0.0,0.0,0.0,0.0,0.0,0.0,0.0,0.0,0.0,0.0,0.0,0.0,0.0,0.0,0.0,0.0,0.0,0.0,0.0,0.0,0.0,0.0,0.0,0.0,0.0,0.0,0.0,0.0,0.0,0.0,0.0,0.0,0.0,0.0,0.0,0.0,0.0,0.0,0.0,0.0,0.0,0.0,0.0,0.0,0.0,0.0,0.0,0.0,0.0,0.0,0.0,0.0,0.0,0.0,0.0,0.0,0.0,0.0,0.0,0.0,0.0,0.0,0.0,0.0,0.0,0.0,0.0,0.0,0.0,0.0,0.0,0.0,0.0,0.0,0.0,0.0,0.0,0.0,0.0,0.0,0.0,0.0,0.6725,0.8908,1.2529,1.3732,1.4494,1.4678,1.3495,1.2269,1.1756,0.9974,0.0,0.0,0.0,0.0,0.0,0.0,0.0,0.0,0.0,0.0,0.0,0.0,0.0,0.0,0.0,0.0,0.0,0.0,0.0,0.0,0.0,0.0,0.0,0.0,0.0,0.0,0.0,0.0,0.0,0.0,0.0,0.0,0.0,0.0,0.0,0.0,0.0,0.0,0.0,0.0,0.0,0.0,0.0,0.0,0.0,0.0,0.0,0.0,0.0,0.0,0.0,0.0,0.0,0.0,0.0,0.0,0.0,0.0,0.0,0.0,0.0,0.0,0.0,0.0,0.0,0.0,0.0,0.0,0.0,0.0,0.0,0.0,0.0,0.0,0.0,0.0,0.0,0.0,0.0,0.0,0.0,0.0,0.0,0.0,0.0,0.0,0.0,0.0,0.0,0.0,0.0,0.0,0.0,0.0,0.0,0.0,0.0,0.0,0.0,0.0,0.0,0.0,0.9066,1.0623,1.4094,1.4839,1.514,1.5224,1.4027,1.2767,1.19,1.0993,0.0,0.0,0.0,0.0,0.0,0.0,0.0,0.0,0.0,0.0,0.0,0.0,0.0,0.0,0.0,0.0,0.0,0.0,0.0,0.0,0.0,0.0,0.0,0.0,0.0,0.0,0.0,0.0,0.0,0.0,0.0,0.0,0.0,0.0,0.0,0.0,0.0,0.0,0.0,0.0,0.0,0.0,0.0,0.0,0.0,0.0,0.0,0.0,0.0,0.0,0.0,0.0,0.0,0.0,0.0,0.0,0.0,0.0,0.0,0.0,0.0,0.0,0.0,0.0,0.0,0.0,0.0,0.0,0.0,0.0,0.0,0.0,0.0,0.0,0.0,0.0,0.0,0.0,0.0,0.0,0.0,0.0,0.0,0.0,0.0,0.0,0.0,0.0,0.0,0.0,0.0,0.0,0.0,0.0,0.0,0.0,0.0,0.0,0.0,0.0,0.0,0.0,0.9248,1.1123,1.4671,1.5092,1.5181,1.5167,1.3526,1.2527,1.2481,1.1784,0.0,0.0,0.0,0.0,0.0,0.0,0.0,0.0,0.0,0.0,0.0,0.0,0.0,0.0,0.0,0.0,0.0,0.0,0.0,0.0,0.0,0.0,0.0,0.0,0.0,0.0,0.0,0.0,0.0,0.0,0.0,0.0,0.0,0.0,0.0,0.0,0.0,0.0,0.0,0.0,0.0,0.0,0.0,0.0,0.0,0.0,0.0,0.0,0.0,0.0,0.0,0.0,0.0,0.0,0.0,0.0,0.0,0.0,0.0,0.0,0.0,0.0,0.0,0.0,0.0,0.0,0.0,0.0,0.0,0.0,0.0,0.0,0.0,0.0,0.0,0.0,0.0,0.0,0.0,0.0,0.0,0.0,0.0,0.0,0.0,0.0,0.0,0.0,0.0,0.0,0.0,0.0,0.0,0.0,0.0,0.0,0.0,0.0,0.0,0.0,0.0,0.0,1.0324,1.2397,1.4875,1.5751,1.6045,1.5765,1.4885,1.4073,1.3627,0.0,0.0,0.0,0.0,0.0,0.0,0.0,0.0,0.0,0.0,0.0,0.0,0.0,0.0,0.0,0.0,0.0,0.0,0.0,0.0,0.0,0.0,0.0,0.0,0.0,0.0,0.0,0.0,0.0,0.0,0.0,0.0,0.0,0.0,0.0,0.0,0.0,0.0,0.0,0.0,0.0,0.0,0.0,0.0,0.0,0.0,0.0,0.0,0.0,0.0,0.0,0.0,0.0,0.0,0.0,0.0,0.0,0.0,0.0,0.0,0.0,0.0,0.0,0.0,0.0,0.0,0.0,0.0,0.0,0.0,0.0,0.0,0.0,0.0,0.0,0.0,0.0,0.0,0.0,0.0,0.0,0.0,0.0,0.0,0.0,0.0,0.0,0.0,0.0,0.0,0.0,0.0,0.0,0.0,0.0,0.0,0.0,0.0,0.0,0.0,0.0,0.0,0.877,1.1143,1.3429,1.4896,1.5953,1.6437,1.5953,1.5337,1.4683,1.3951,0.0,0.0,0.0,0.0,0.0,0.0,0.0,0.0,0.0,0.0,0.0,0.0,0.0,0.0,0.0,0.0,0.0,0.0,0.0,0.0,0.0,0.0,0.0,0.0,0.0,0.0,0.0,0.0,0.0,0.0,0.0,0.0,0.0,0.0,0.0,0.0,0.0,0.0,0.0,0.0,0.0,0.0,0.0,0.0,0.0,0.0,0.0,0.0,0.0,0.0,0.0,0.0,0.0,0.0,0.0,0.0,0.0,0.0,0.0,0.0,0.0,0.0,0.0,0.0,0.0,0.0,0.0,0.0,0.0,0.0,0.0,0.0,0.0,0.0,0.0,0.0,0.0,0.0,0.0,0.0,0.0,0.0,0.0,0.0,0.0,0.0,0.0,0.0,0.0,0.0,0.0,0.0,0.0,0.0,0.0,0.0,0.0,0.0,0.0,0.0,0.0,0.0,0.9414,1.1878,1.3579,1.4923,1.5666,1.5946,1.5181,1.4501,1.3936,0.0,0.0,0.0,0.0,0.0,0.0,0.0,0.0,0.0,0.0,0.0,0.0,0.0,0.0,0.0,0.0,0.0,0.0,0.0,0.0,0.0,0.0,0.0,0.0,0.0,0.0,0.0,0.0,0.0,0.0,0.0,0.0,0.0,0.0,0.0,0.0,0.0,0.0,0.0,0.0,0.0,0.0,0.0,0.0,0.0,0.0,0.0,0.0,0.0,0.0,0.0,0.0,0.0,0.0,0.0,0.0,0.0,0.0,0.0,0.0,0.0,0.0,0.0,0.0,0.0,0.0,0.0,0.0,0.0,0.0,0.0,0.0,0.0,0.0,0.0,0.0,0.0,0.0,0.0,0.0,0.0,0.0,0.0,0.0,0.0,0.0,0.0,0.0,0.0,0.0,0.0,0.0,0.0,0.0,0.0,0.0,0.0,0.0,0.0,0.0,0.0,0.0,0.0,1.1108,1.247,1.3674,1.493,1.5758,1.6052,1.5758,1.5352,1.4541,1.3641,0.0,0.0,0.0,0.0,0.0,0.0,0.0,0.0,0.0,0.0,0.0,0.0,0.0,0.0,0.0,0.0,0.0,0.0,0.0,0.0,0.0,0.0,0.0,0.0,0.0,0.0,0.0,0.0,0.0,0.0,0.0,0.0,0.0,0.0,0.0,0.0,0.0,0.0,0.0,0.0,0.0,0.0,0.0,0.0,0.0,0.0,0.0,0.0,0.0,0.0,0.0,0.0,0.0,0.0,0.0,0.0,0.0,0.0,0.0,0.0,0.0,0.0,0.0,0.0,0.0,0.0,0.0,0.0,0.0,0.0,0.0,0.0,0.0,0.0,0.0,0.0,0.0,0.0,0.0,0.0,0.0,0.0,0.0,0.0,0.0,0.0,0.0,0.0,0.0,0.0,0.0,0.0,0.0,0.0,0.0,0.0,0.0,0.0,0.0,0.0,0.0,0.0,1.1489,1.2701,1.3719,1.4936,1.5793,1.6102,1.5577,1.5391,1.4652,1.3596,0.0,0.0,0.0,0.0,0.0,0.0,0.0,0.0,0.0,0.0,0.0,0.0,0.0,0.0,0.0,0.0,0.0,0.0,0.0,0.0,0.0,0.0,0.0,0.0,0.0,0.0,0.0,0.0,0.0,0.0,0.0,0.0,0.0,0.0,0.0,0.0,0.0,0.0,0.0,0.0,0.0,0.0,0.0,0.0,0.0,0.0,0.0,0.0,0.0,0.0,0.0,0.0,0.0,0.0,0.0,0.0,0.0,0.0,0.0,0.0,0.0,0.0,0.0,0.0,0.0,0.0,0.0,0.0,0.0,0.0,0.0,0.0,0.0,0.0,0.0,0.0,0.0,0.0,0.0,0.0,0.0,0.0,0.0,0.0,0.0,0.0,0.0,0.0,0.0,0.0,0.0,0.0,0.0,0.0,0.0,0.0,0.0,0.0,0.0,0.0,0.0,0.0,1.1114,1.2733,1.4081,1.4977,1.564,1.5934,1.5215,1.4889,1.4394,1.3282,0.0,0.0,0.0,0.0,0.0,0.0,0.0,0.0,0.0,0.0,0.0,0.0,0.0,0.0,0.0,0.0,0.0,0.0,0.0,0.0,0.0,0.0,0.0,0.0,0.0,0.0,0.0,0.0,0.0,0.0,0.0,0.0,0.0,0.0,0.0,0.0,0.0,0.0,0.0,0.0,0.0,0.0,0.0,0.0,0.0,0.0,0.0,0.0,0.0,0.0,0.0,0.0,0.0,0.0,0.0,0.0,0.0,0.0,0.0,0.0,0.7022,0.6774,0.0,0.0,0.0,0.0,0.0,0.0,0.0,0.0,0.0,0.0,0.0,0.0,0.0,0.0,0.0,0.0,0.0,0.0,0.0,0.0,0.0,0.0,0.0,0.0,0.0,0.0,0.0,0.0,0.0,0.0,0.0,0.0,0.0,0.0,0.0,0.0,0.0,0.0,0.0,0.0,1.1107,1.2483,1.3687,1.5248,1.5479,1.5719,1.5377,1.478,1.416,1.3137,1.1955,0.0,0.0,0.0,0.0,0.0,0.0,0.0,0.0,0.0,0.0,0.0,0.0,0.0,0.0,0.0,0.0,0.0,0.0,0.0,0.0,0.0,0.0,0.0,0.0,0.0,0.0,0.0,0.0,0.0,0.0,0.0,0.0,0.0,0.0,0.0,0.0,0.0,0.0,0.0,0.0,0.0,0.0,0.0,0.0,0.0,0.0,0.0,0.0,0.0,0.0,0.0,0.0,0.0,0.0,0.0,0.0,0.0,0.0,0.0,0.8922,0.8577,0.0,0.0,0.0,0.0,0.0,0.0,0.0,0.0,0.0,0.0,0.0,0.0,0.0,0.0,0.0,0.0,0.0,0.0,0.0,0.0,0.0,0.0,0.0,0.0,0.0,0.0,0.0,0.0,0.0,0.0,0.0,0.0,0.0,0.0,0.0,0.0,0.0,0.0,0.0,0.0,1.1299,1.2658,1.401,1.5343,1.5608,1.5649,1.5043,1.4671,1.3921,1.2469,1.1709,0.0,0.0,0.0,0.0,0.0,0.0,0.0,0.0,0.0,0.0,0.0,0.0,0.0,0.0,0.0,0.0,0.0,0.0,0.0,0.0,0.0,0.0,0.0,0.0,0.0,0.0,0.0,0.0,0.0,0.0,0.0,0.0,0.0,0.0,0.0,0.0,0.0,0.0,0.0,0.0,0.0,0.0,0.0,0.0,0.0,0.0,0.0,0.0,0.0,0.0,0.0,0.0,0.0,1.0095,1.0585,1.0922,1.1511,1.2129,1.2561,1.1603,1.114,1.1117,1.0315,0.0,0.0,0.0,0.0,0.0,0.0,0.0,0.0,0.0,0.0,0.0,0.0,0.0,0.0,0.0,0.0,0.0,0.0,0.0,0.0,0.0,0.0,0.7197,1.0042,1.0297,0.9368,0.735,0.0,0.0,0.0,0.0,0.0,0.0,0.0,0.0,0.0,0.0,0.0,1.1415,1.2903,1.4375,1.5432,1.571,1.5549,1.5083,1.4711,1.365,1.2148,1.1689,1.1281,0.0,0.0,0.0,0.0,0.0,0.0,0.0,0.0,0.0,0.0,0.0,0.0,0.0,0.0,0.0,0.0,0.0,0.0,0.0,0.0,0.0,0.0,0.0,0.0,0.0,0.0,0.0,0.0,0.0,0.0,0.0,0.0,1.645,1.5951,0.0,0.0,0.0,0.0,0.0,0.0,0.0,0.0,0.0,0.0,0.0,0.0,0.0,1.2463,1.2358,1.3229,1.313,1.2211,1.3529,1.4026,1.3513,1.4267,1.508,1.5707,1.5731,0.0,1.1969,1.1272,0.0,0.0,0.0,0.0,0.0,0.0,0.0,0.0,0.0,0.0,0.0,0.0,0.0,0.0,0.0,0.0,0.0,0.0,0.0,0.0,0.0,0.0,0.929,1.0571,1.0955,1.1009,1.0765,0.9596,0.8482,0.8066,0.7649,0.7143,0.0,0.0,0.0,0.0,0.0,0.0,1.1195,1.2667,1.4261,1.6292,1.5636,1.5596,1.6765,1.4859,1.3311,1.2939,1.2076,1.1386,1.0921,1.1446,0.0,0.0,0.0,0.0,0.0,0.0,0.0,0.0,0.0,0.0,0.0,0.0,0.0,0.0,0.0,0.0,0.0,0.0,0.0,0.0,0.0,0.0,0.0,0.0,0.0,0.0,0.0,0.0,0.0,1.655,1.7288,1.7202,1.7225,1.6599,0.0,0.0,0.0,0.0,0.0,0.0,0.0,0.0,0.0,1.5588,1.5493,1.5336,1.5151,1.5914,1.606,1.5714,1.6571,1.6943,1.6977,1.7061,1.7287,1.7605,1.7248,1.6267,1.4782,1.3554,1.2142,1.0763,0.0,0.0,0.0,0.0,1.0229,1.1034,1.0754,1.0733,1.0589,0.9087,0.0,0.0,0.0,0.0,0.0,0.0,0.0,0.4154,0.6454,0.8467,1.0327,1.1557,1.1763,1.1921,1.2149,1.1179,1.0096,0.9325,0.9022,0.857,0.7562,0.7293,0.0,0.0,0.0,0.965,1.1218,1.2758,1.4349,1.6377,1.6433,1.6342,1.6671,1.5505,1.4149,1.2313,1.2224,1.175,1.0881,1.1447,1.1658,0.0,0.0,0.0,0.0,0.0,0.0,0.0,0.0,0.0,0.0,0.0,0.0,0.0,0.0,0.0,0.0,0.0,0.0,0.0,0.0,0.0,0.0,0.0,0.0,0.0,0.0,0.0,0.0,1.7691,1.7888,1.8342,1.8668,1.8004,0.0,0.0,0.0,0.0,0.0,0.0,1.6634,1.7235,1.7809,1.825,1.8179,1.8116,1.8256,1.828,1.8426,1.8721,1.8893,1.9059,1.921,1.8783,1.8676,1.8854,1.8292,1.7821,1.7353,1.5589,1.3901,1.2567,1.1556,1.119,1.1312,1.1603,1.2175,1.2827,1.3629,1.3948,1.3543,1.2022,1.1087,0.9812,0.6803,0.0,0.0,0.0,0.0,0.7272,0.8671,0.987,1.1188,1.2325,1.2421,1.2429,1.2698,1.2024,1.1133,1.0522,1.027,0.9845,0.8546,0.8458,0.0,0.826,0.9076,1.0221,1.1891,1.3412,1.5142,1.7231,1.7434,1.7471,1.7139,1.6132,1.4618,1.252,1.2366,1.1991,1.1027,1.1811,1.2066,1.1851,0.0,0.0,0.0,0.0,0.0,0.0,0.0,0.0,0.0,0.0,0.0,0.0,0.0,0.0,0.0,0.0,0.0,0.0,0.0,0.0,0.0,0.0,0.0,0.0,0.0,0.0,0.0,0.0,0.0,1.9154,1.9972,0.0,0.0,0.0,0.0,1.7596,1.8461,1.9228,1.9632,2.0088,2.0716,2.1515,2.0878,2.0774,2.1419,2.0739,2.0299,2.0326,2.0162,1.9802,1.9429,1.9243,1.926,1.9437,1.9243,1.8947,1.8516,1.6486,1.5483,1.4937,1.4091,1.3846,1.3966,1.3672,1.4184,1.4869,1.4404,1.4444,1.4672,1.4314,1.2748,1.076,0.9763,0.8627,0.0,0.0,0.9847,1.1409,1.0983,1.1462,1.2216,1.2684,1.2581,1.2402,1.255,1.2047,1.1379,1.1218,1.0888,1.0238,0.9402,0.0,0.9445,0.9372,0.996,1.1151,1.3604,1.4812,1.6522,1.9552,1.867,1.8624,1.9793,1.6674,1.4483,1.4536,1.3097,1.2224,1.2063,1.2845,1.32,1.2716,1.3175,0.0,0.0,0.0,0.0,0.0,0.0,0.0,0.0,0.0,0.0,0.0,0.0,0.0,0.0,0.0,0.0,0.0,0.0,0.0,0.0,0.0,0.0,0.0,0.0,0.0,0.0,0.0,0.0,2.3694,2.3347,0.0,2.1476,2.0636,2.0306,2.0474,2.0992,2.157,2.2377,2.3038,2.3332,2.3404,2.3076,2.2745,2.2603,2.2373,2.2154,2.2154,2.2302,2.2232,2.1986,2.164,2.143,2.0968,2.0252,1.9648,1.9076,1.816,1.7129,1.6221,1.5297,1.5249,1.5567,1.5337,1.5512,1.6036,1.6076,1.602,1.5835,1.4885,1.3442,1.1851,1.1497,1.068,1.0082,1.0456,1.1295,1.1871,1.1914,1.2152,1.2386,1.238,1.2265,1.2141,1.2114,1.1685,1.1442,1.1566,1.1008,1.0315,0.973,0.9735,0.9803,0.9722,1.0878,1.2295,1.3866,1.548,1.7418,1.9773,1.975,1.9611,1.9806,1.851,1.6609,1.457,1.4201,1.3561,1.2708,1.3105,1.3559,1.3534,1.3888,1.3486,0.0,0.0,0.0,0.0,0.0,0.0,0.0,0.0,0.0,0.0,0.0,0.0,0.0,0.0,0.0,0.0,0.0,0.0,0.0,0.0,0.0,0.0,0.0,0.0,0.0,2.1567,2.3512,2.5612,2.5456,2.4741,2.376,2.319,2.3005,2.3212,2.3785,2.4508,2.5791,2.6399,2.6904,2.6711,2.597,2.5702,2.5503,2.4125,2.3625,2.4031,2.3708,2.3325,2.2728,2.2651,2.2025,2.1071,2.0545,2.0008,1.9573,1.9159,1.8468,1.7591,1.6812,1.6722,1.7006,1.6828,1.7124,1.7579,1.7517,1.7104,1.6307,1.5334,1.4258,1.334,1.3078,1.2515,1.2004,1.246,1.246,1.2311,1.2827,1.2682,1.2509,1.2288,1.2115,1.1955,1.1769,1.1529,1.1332,1.1504,1.1203,1.0727,1.011,1.0289,1.0514,1.0531,1.1818,1.3371,1.5258,1.6793,1.8649,2.0764,2.0861,2.0665,2.0445,1.9312,1.7535,1.5082,1.4577,1.3929,1.2876,1.3355,1.362,1.4018,1.3826,1.339,1.2483,0.0,0.0,0.0,0.0,0.0,0.0,0.0,0.0,0.0,0.0,0.0,0.0,0.0,0.0,0.0,0.0,0.0,0.0,0.0,0.0,0.0,0.0,0.0,2.0795,2.2717,2.422,2.4648,2.6109,2.6279,2.4138,2.5244,2.5899,2.5868,2.6894,2.8197,2.9579,3.0378,3.0927,3.1176,2.9817,2.933,2.973,2.6429,2.5099,2.6334,2.448,2.3146,2.1945,2.1945,2.1328,2.0282,2.0102,2.002,1.98,1.9605,1.9435,1.9232,1.868,1.8468,1.8452,1.8265,1.8682,1.9167,1.8795,1.7764,1.6409,1.5707,1.5436,1.5004,1.4484,1.4109,1.3903,1.4059,1.3659,1.3275,1.3566,1.3197,1.2752,1.2752,1.2313,1.1855,1.1565,1.1475,1.123,1.123,1.135,1.1336,1.0849,1.1051,1.1464,1.2228,1.2786,0.0,1.8134,1.8789,2.0001,2.2926,2.2413,2.1801,2.1908,1.9106,1.7123,1.6394,1.4403,1.3205,1.3043,1.3332,1.371,1.3854,1.3013,1.2358,1.218,0.0,0.0,0.0,0.0,0.0,0.0,0.0,0.0,0.0,0.0,0.0,0.0,0.0,0.0,0.0,0.0,0.0,0.0,0.0,0.0,0.0,2.223,2.3535,2.3248,2.5066,2.6759,2.7736,2.8444,2.8698,2.8551,2.8204,2.8332,2.9193,2.9733,3.0373,3.1002,3.1453,3.1401,3.025,3.0089,2.9434,2.8257,2.8113,2.7841,2.7852,2.6545,2.6174,2.6344,2.5659,2.5126,2.4833,2.3509,2.278,2.1994,2.0652,1.989,1.9776,1.9102,1.8915,1.9013,1.8826,1.8986,1.8978,1.8617,1.8119,1.7644,1.7158,1.6464,1.5809,1.5403,1.4821,1.4325,1.4373,1.4277,1.3987,1.3435,1.3223,1.3019,1.233,1.2478,1.2613,1.155,1.1909,1.2081,1.1306,1.1238,1.1104,1.0666,1.1406,1.2105,1.2538,1.4156,1.6122,1.8338,1.9361,2.078,2.2936,2.2606,2.2309,2.2252,2.088,1.9413,1.7609,1.6379,1.5547,1.5445,1.4869,1.4637,1.4736,1.3404,1.2391,0.0,0.0,0.0,0.0,0.0,0.0,0.0,0.0,0.0,0.0,0.0,0.0,0.0,0.0,0.0,0.0,0.0,0.0,0.0,0.0,0.0,0.0,2.5332,2.6878,2.7608,2.8157,2.8911,2.9847,3.0221,3.0581,3.0863,3.0071,3.0128,3.1411,3.1547,3.2209,3.356,3.3805,3.391,3.3304,3.2843,3.2152,3.1439,3.0574,2.9978,2.9664,2.8333,2.7706,2.7621,2.7011,2.6755,2.6498,2.4702,2.3796,2.3105,2.1054,2.0328,2.032,0.0,0.0,0.0,0.0,2.0054,1.9544,1.9371,1.893,1.8347,1.7796,1.727,1.6811,1.625,1.5621,1.5061,1.4951,1.4861,1.4914,1.4353,1.4299,1.4231,1.3468,1.3631,1.3618,1.268,1.328,1.3696,1.3085,1.2898,0.0,1.2576,1.2557,1.2987,1.4256,1.5578,1.718,1.9045,1.9871,2.1036,2.2819,2.2749,2.2438,2.2222,2.1118,0.0,0.0,0.0,1.6414,1.6093,1.5838,0.0,0.0,0.0,1.3899,1.3364,1.2925,0.0,0.0,1.1247,1.0366,0.0,0.0,0.0,0.0,0.0,0.0,0.0,0.0,0.0,0.0,0.0,0.0,0.0,0.0,0.0,0.0,2.8305,3.0184,3.2591,3.1955,3.1272,3.1504,3.1826,3.2122,3.2045,3.1542,3.1746,3.293,3.2825,3.3831,3.6425,3.6702,0.0,0.0,0.0,3.5737,3.6122,3.2898,3.1602,3.1583,2.9894,2.8512,2.7493,2.7494,2.7365,2.6683,2.5011,2.4186,2.4093,2.2052,2.1364,2.1422,2.0364,2.0102,2.0689,2.1679,2.1344,2.0525,2.0755,0.0,0.0,1.819,1.8135,1.7973,1.7211,1.6621,1.6235,1.5847,1.5963,1.6235,1.5658,1.5956,1.5995,1.5312,1.4921,1.4701,1.4366,1.49,1.5449,1.5435,1.5427,1.5427,1.5607,1.4401,1.4175,1.6472,1.6926,1.7742,2.0011,2.0421,2.1126,2.2674,2.2671,0.0,2.202,2.0761,1.9493,1.8727,1.7454,1.6444,1.6085,1.6346,1.6285,1.5753,1.603,1.603,1.5736,1.5736,1.5745,1.5597,1.2466,1.1276,0.0,0.0,0.0,0.0,0.0,0.0,0.0,0.0,0.0,0.0,0.0,0.0,0.0,0.0,0.0,2.8305,3.1007,3.3412,3.5353,3.5672,3.55,3.429,3.4101,3.4604,3.549,3.4214,3.4044,3.5664,3.5166,3.5396,3.6761,3.7433,3.7181,3.5537,3.5768,3.5044,3.3525,3.3902,3.3549,3.2868,3.1384,0.0,3.0787,2.9968,2.9877,3.0329,2.8754,2.8091,2.7749,2.5952,2.5204,2.4856,2.1754,2.0564,2.0627,2.0687,2.0719,2.0943,2.1702,2.1596,2.1262,2.1779,2.1072,2.018,1.9825,1.8988,0.0,1.8239,1.8046,1.7652,1.6763,1.6562,1.6346,1.5389,1.5746,1.6073,1.4998,1.5554,1.611,1.5622,1.523,1.5405,1.7033,1.6354,1.5771,1.6303,1.7188,1.8494,2.0011,2.0421,2.1126,2.2674,2.3053,2.2869,2.2329,2.1938,2.1146,1.9966,1.8978,1.8289,1.7603,1.7434,1.73,1.7077,1.6332,1.5885,1.5736,1.5736,1.5824,1.5966,1.3978,1.3039,0.0,0.0,0.0,0.0,0.0,0.0,0.0,0.0,0.0,0.0,0.0,2.3524,2.5096,0.0,2.9094,3.1425,3.4001,3.5983,3.7478,3.8097,3.7944,3.6177,3.6094,3.639,3.6867,3.5977,3.601,3.7461,3.7011,3.7108,3.8168,3.8537,3.8339,3.7321,3.7108,3.632,3.5177,3.5191,3.4491,3.3294,3.2648,3.2014,3.1602,3.1095,3.1213,3.1397,2.9934,2.9112,2.8787,2.7062,2.6296,2.6104,2.4084,2.3509,2.3868,2.3965,2.3805,2.3822,2.4324,2.3808,2.3022,2.3395,2.2654,2.1485,2.0602,2.0126,1.9527,1.8777,1.8607,1.8477,1.764,1.7616,1.7592,1.6763,1.6994,1.7196,1.6657,1.7057,1.7644,1.774,1.7356,1.7532,1.8451,1.8201,1.7778,1.7413,1.7973,1.8897,1.9845,2.0315,2.1004,2.1952,2.2803,2.2859,2.209,2.223,2.1778,2.0436,2.0395,1.9916,1.9043,1.8675,1.8665,1.8597,1.8077,1.7625,1.7385,1.7683,1.7742,1.7548,1.6542,1.5595,0.0,0.0,0.0,0.0,0.0,0.0,0.0,0.0,2.5307,2.427,2.4731,2.6698,3.1273,3.1587,3.2134,3.4899,3.7009,3.8478,3.9427,4.0106,3.995,3.8246,3.8295,3.8298,3.7869,3.7595,3.7785,3.8937,3.8183,3.8155,3.9334,3.9436,3.9597,3.9587,3.8526,3.7783,3.7568,3.6193,3.5085,3.38,3.3536,3.2922,3.1607,3.1674,3.165,3.1409,3.0159,2.9619,2.9393,2.8102,2.735,2.699,2.6745,2.7021,2.7757,2.7335,2.6944,2.6505,2.6974,2.6037,2.4585,2.48,2.4217,2.2984,2.1661,2.1119,2.061,1.9544,1.9355,1.9587,1.8836,1.8819,1.8989,1.8248,1.8152,1.8241,1.8103,1.8532,1.9167,1.9727,1.9701,1.9674,1.9674,1.9674,1.9242,1.8719,1.8773,1.8912,1.9488,2.0164,2.0632,2.1047,2.2315,2.2788,2.2205,2.2299,2.2121,2.1042,2.1257,2.1022,2.0059,1.979,1.9747,1.9984,1.9714,1.9554,1.9375,1.9789,1.9789,1.9385,1.8946,1.7826,2.0864,2.0895,1.9813,1.9607,1.9552,2.0329,0.0,0.0,2.8019,2.9489,3.051,3.1806,3.3964,3.4766,3.6052,3.9037,4.007,4.0985,4.2156,4.2455,4.2307,4.185,4.0944,4.0341,4.0523,3.939,3.8968,3.9687,3.8468,3.7971,3.8675,3.9202,3.9179,3.8494,3.8084,3.7568,3.6936,3.5993,3.5191,3.4724,3.3838,3.2922,3.2016,3.1887,3.165,3.1409,3.1473,3.1154,3.0714,3.0488,3.0048,2.9608,2.9641,3.0037,3.0193,2.7176,2.6052,2.6354,2.8034,2.7456,2.6077,2.7669,2.6981,2.5426,2.4794,2.391,2.3203,2.2567,2.1867,2.1317,2.0162,1.9863,1.9751,1.8625,1.8533,1.8655,1.8639,1.8897,1.9355,1.9741,1.9789,1.9674,1.9674,1.9302,1.8735,1.8338,1.8856,1.9488,1.9488,1.9666,2.0095,2.0837,2.1792,2.2729,2.3682,2.2855,2.2285,2.2338,2.1919,2.1287,2.078,2.0371,2.0242,2.0479,2.0037,1.9874,1.9855,2.012,2.0131,1.9855,1.973,1.8993,2.2782,2.2928,2.2509,2.3779,2.4371,2.5261,2.7384,2.9007,3.0387,3.1937,3.2489,3.3,3.4879,3.6326,3.7663,3.9314,4.1272,4.2693,4.3252,4.3637,4.3757,4.2757,4.181,4.1061,4.06,4.0466,4.0227,3.9995,3.9849,3.9806,3.9963,4.0212,4.0299,3.9951,3.8608,3.8049,3.7616,3.6464,3.567,3.5024,3.4523,3.3587,3.2462,3.2385,3.2033,3.1855,3.1391,3.1319,3.1363,3.0627,3.0469,3.0482,2.9754,3.0162,3.0947,2.9628,2.8886,2.8734,2.9979,2.9091,2.7741,2.8432,2.7458,2.6008,2.5209,2.4365,2.3563,2.2721,2.2208,2.1514,2.0543,2.008,1.9654,1.8822,1.8863,1.9104,1.9104,1.9611,1.9932,2.0503,2.044,2.0377,2.0377,2.0476,2.0252,1.9613,1.9196,1.9071,1.8963,1.9581,2.0614,2.2,2.2407,2.306,2.4028,2.3731,2.3303,2.2909,2.262,2.2168,2.1523,2.1211,2.1082,2.1179,2.0576,2.005,1.9614,2.0019,1.9801,1.8962,1.9696,1.961,2.3409,2.3848,2.4228,2.646,2.7896,2.9229,3.0514,3.2012,3.3515,3.4662,3.5015,3.541,3.6959,3.8753,4.0047,4.0542,4.2726,4.4428,4.4056,4.4377,4.421,4.3056,4.1915,4.103,3.9897,4.0497,4.0754,4.0095,4.0563,4.0812,4.0694,4.0768,4.0812,4.0694,3.9223,3.837,3.837,3.6992,3.5976,3.5528,3.5102,3.4171,3.296,3.2759,3.2227,3.1977,3.1414,3.1064,3.1044,3.0379,3.0058,3.0362,2.9555,2.9968,3.1009,3.1079,3.072,3.0504,3.0947,2.9902,2.8611,2.8434,2.7585,2.6452,2.5073,2.4456,2.3721,2.2945,2.2407,2.1928,2.0951,2.0446,1.9792,1.9216,1.9208,1.9614,1.986,2.0139,2.0596,2.0982,2.1275,2.1201,2.101,2.1271,2.1035,2.0419,1.9722,1.9113,1.893,1.9854,2.1019,2.2536,2.2892,2.3316,2.4397,2.4447,2.4107,2.3403,2.3087,2.2763,2.2072,2.1846,2.1717,2.1717,2.1082,2.0316,1.9573,2.0074,1.9813,1.8632,1.9732,1.9885,2.3141,2.4231,2.5682,2.6749,2.9305,3.1748,3.277,3.5087,3.7458,3.8396,3.9587,4.0726,4.1139,4.2597,4.3948,4.411,4.5087,4.5847,4.5601,4.4921,4.3808,4.2493,4.1109,4.0039,3.9165,3.9777,4.0401,4.0416,4.049,4.0358,4.0051,4.0329,4.0358,4.0036,3.9209,3.8692,3.8692,3.7278,3.65,3.65,3.5365,3.4426,3.3905,3.2613,3.1965,3.1327,3.1598,3.0757,2.9267,2.9744,2.9502,2.9082,2.905,2.9491,2.9944,3.0188,3.0272,3.0105,3.0368,2.9482,2.8005,2.7984,2.7398,2.6545,2.5261,2.4617,2.4402,2.3574,2.3153,2.2744,2.135,2.1238,2.1168,1.9962,1.976,2.0012,2.0798,2.0811,2.1005,2.1388,2.167,2.1592,2.101,2.1001,2.081,2.0437,2.0413,2.0465,2.0263,2.0467,2.103,2.1918,2.2607,2.3561,2.5003,2.4726,2.4429,2.4418,2.3619,2.284,2.232,2.2094,2.1954,2.1954,2.1491,2.0884,2.0281,2.0632,2.0356,1.9287,1.9785,1.9795,2.4979,2.7012,2.9532,3.0652,3.3174,3.5521,3.6371,3.766,3.9076,3.969,3.9818,4.0182,4.0776,4.1665,4.2555,4.3354,4.4971,4.5806,4.5277,4.4946,4.4035,4.1506,4.0411,3.9613,3.889,3.9464,4.0033,4.008,4.0986,4.1267,4.0958,4.1046,4.109,4.0958,3.975,3.9112,3.9308,3.7903,3.7088,3.7088,3.5585,3.4334,3.3534,3.2894,3.2337,3.1844,3.1299,3.0707,3.0177,2.959,2.9487,2.9513,2.9189,2.9612,3.0177,2.9677,2.9591,2.9717,3.0182,2.9293,2.822,2.7621,2.6876,2.6327,2.5121,2.4118,2.3596,2.3597,2.3184,2.2396,2.1723,2.1458,2.1203,1.9995,2.0086,2.0594,2.1277,2.1643,2.1804,2.2404,2.2276,2.2189,2.1985,2.1873,2.1596,2.1596,2.078,2.0517,2.1201,2.1215,2.1573,2.2841,2.3656,2.4459,2.5206,2.4874,2.4612,2.444,2.3431,2.2739,2.2568,2.2482,2.2374,2.2212,2.1418,2.0888,2.0311,2.0323,1.9805,1.9037,1.9678,1.9747,2.7785,3.0451,3.3178,3.4847,3.7095,3.9117,3.9548,4.0606,4.1487,4.147,4.1161,4.0857,4.1337,4.1401,4.2017,4.3443,4.4652,4.5375,4.4988,4.4606,4.3461,4.131,4.0012,3.921,3.889,3.9161,3.9732,4.0226,4.106,4.1518,4.1733,4.1777,4.1493,4.1377,4.018,3.9489,3.9332,3.8235,3.7423,3.6866,3.5725,3.4555,3.3579,3.3187,3.2463,3.188,3.1332,3.0733,3.0197,2.9607,2.9513,2.9739,2.9448,2.9639,2.9972,2.9596,2.9401,2.9635,2.9613,2.912,2.8339,2.7319,2.6623,2.6112,2.5038,2.3859,2.3162,2.3295,2.2922,2.2213,2.1595,2.1551,2.1114,2.0364,2.0422,2.0887,2.1786,2.1945,2.2111,2.2922,2.2794,2.2501,2.2501,2.233,2.2198,2.2198,2.1505,2.1394,2.2078,2.2077,2.2438,2.3714,2.441,2.5045,2.5523,2.527,2.4874,2.4714,2.3512,2.2815,2.2631,2.2556,2.2267,2.1947,2.1159,2.0589,2.0266,1.9945,1.9588,1.8976,1.9609,1.9548,3.1731,3.4212,3.6654,3.8991,4.0926,4.2241,4.2609,4.3772,4.4435,4.3609,4.3023,4.2656,4.2601,4.2069,4.2166,4.4353,4.448,4.4411,4.4853,4.3906,4.2721,0.0,0.0,0.0,0.0,0.0,3.9568,4.0855,4.0694,4.106,4.2348,4.2421,4.2032,4.1045,4.0658,4.0185,3.9207,3.8493,3.7646,3.6016,3.5711,3.5031,3.4161,3.3606,3.2573,3.1259,3.1464,3.0633,2.9168,2.9566,2.9771,2.9771,2.9771,2.9771,2.9771,2.9771,2.962,2.9362,2.8899,2.8587,2.8166,2.7084,2.664,2.6333,2.4846,2.3852,2.3326,2.2934,2.2401,2.1769,2.1362,2.1289,2.1255,2.0996,2.071,2.0849,2.2291,2.2108,2.2123,2.3137,2.2992,2.2699,2.2699,2.2538,2.2406,2.2397,2.2397,2.2526,2.2896,2.2681,2.3223,2.4298,2.5021,2.5476,2.613,2.5704,2.5194,2.5194,2.3853,2.2888,2.2339,2.2131,2.1832,2.1302,2.0857,2.0298,1.9972,2.0035,1.9608,1.8995,1.9493,1.9275,3.5064,3.8152,4.0929,4.1827,4.3794,4.5443,4.5179,4.4928,4.427,4.2876,4.0619,3.8901,3.8828,3.895,3.9879,4.2679,4.4567,4.5618,4.514,4.5345,0.0,4.1942,0.0,4.0599,4.0691,3.9942,0.0,4.1543,4.1592,4.1858,4.267,4.2743,4.2469,4.1718,4.108,4.0644,3.985,3.8708,3.7646,3.6674,3.5924,3.5145,3.454,3.3746,3.2762,3.1738,3.143,3.0779,2.9846,2.962,2.962,2.9771,2.9771,2.9771,2.9771,2.9771,2.962,2.9394,2.9276,2.8963,2.8401,2.731,2.6761,2.6176,2.4542,2.343,2.2716,2.2477,2.1891,2.1362,2.1154,2.1187,2.1029,2.0652,2.0531,2.0816,2.2126,2.2117,2.2069,2.2542,2.2268,2.1882,2.1882,2.236,2.2576,2.2416,2.2529,2.2894,2.3292,2.3385,2.3575,2.4474,2.5184,2.5638,2.573,2.6293,2.6186,2.5577,2.4197,2.3133,2.2214,2.2184,2.1988,2.1302,2.0527,2.013,1.9962,1.9522,1.917,1.9221,1.9533,1.9297,3.8837,4.181,4.4461,4.475,4.6042,4.6651,4.5022,4.3972,4.2591,3.9594,3.7485,3.5986,3.5324,3.6359,3.8397,4.1366,4.3782,4.5328,4.5594,4.5662,4.4957,0.0,4.1833,0.0,4.1224,4.0631,4.0841,4.2026,4.1767,4.2018,4.3226,4.3314,4.2817,4.1893,4.1643,4.0813,3.9628,3.9057,3.8207,3.711,3.6244,3.5649,3.4866,3.3892,3.2952,3.1921,3.1647,3.0958,2.9965,2.9792,2.9739,2.9771,2.9652,2.9685,2.9771,2.9652,2.9588,2.9566,2.9448,2.901,2.8533,2.7254,2.6822,2.6176,2.4344,2.3296,2.2636,2.2143,2.1356,2.0845,2.0762,2.0795,2.0861,2.0442,2.0523,2.0808,2.2074,2.1908,2.1691,2.2025,2.1903,2.1812,2.1639,2.2097,2.2529,2.2406,2.2491,2.2678,2.3421,2.3495,2.4059,2.5186,2.5425,2.5822,2.6106,2.6773,2.6521,2.5354,2.4396,2.3315,2.2138,2.209,2.1524,2.0617,1.9942,1.9599,1.976,1.9212,1.9053,1.9429,1.9543,1.9475,4.275,4.5363,4.7471,4.7526,4.7765,4.7063,4.3807,4.2345,4.014,3.5718,3.4234,3.3513,3.2526,3.4425,3.7294,4.0502,4.2639,4.4408,4.5943,4.5531,4.4825,4.3519,4.2913,4.2273,4.1721,4.1576,4.1938,4.2538,4.2055,4.2377,4.3826,4.3914,4.3396,4.194,4.1884,4.088,3.9159,3.9118,3.8605,3.764,3.691,3.604,3.5077,3.435,3.3309,3.1955,3.1887,3.108,2.9825,2.9965,2.9932,2.9739,2.9502,2.9566,2.9739,2.9502,2.9566,2.9739,2.9534,2.9,2.8243,2.7356,2.6842,2.6206,2.4288,2.3332,2.2785,2.1568,2.1035,2.0556,2.0369,2.0442,2.0564,2.0564,2.0564,2.0767,2.182,2.1665,2.1217,2.1273,2.1783,2.1849,2.1479,2.1827,2.2229,2.2201,2.2219,2.2425,2.2984,2.3401,2.4152,2.5772,2.5735,2.6053,2.6869,2.6845,2.6458,2.5116,2.4552,2.3443,2.1979,2.1777,2.1223,1.9968,1.9204,1.9084,1.9428,1.8873,1.8882,1.9428,1.9628,1.9559,4.6307,4.8016,4.9358,4.93,4.8931,4.7797,4.5175,4.2031,3.8687,3.5175,3.2503,3.0933,3.147,3.3102,3.5679,3.9788,4.2307,4.4377,4.603,4.6062,4.5607,0.0,4.4316,4.3868,4.371,4.3426,4.3197,4.3548,4.3475,4.3665,4.4192,4.4236,4.3627,4.194,4.1228,4.0202,3.9159,3.8905,3.8758,3.8406,3.7719,3.6742,3.5737,3.5006,3.3548,3.1921,3.1521,3.0868,3.0051,2.9674,2.962,2.9739,2.9502,2.9566,2.9739,2.9502,2.9566,2.9771,2.9706,2.9137,2.8274,2.754,2.6874,2.5787,2.4,2.3337,2.2596,2.1292,2.0702,2.0556,2.0369,2.0344,2.0369,2.0369,2.0369,2.0578,2.1204,2.1061,2.0866,2.0841,2.1073,2.1098,2.0475,2.1155,2.1803,2.1237,2.1164,2.1605,2.2416,2.3336,2.4328,2.5606,2.6103,2.6445,2.6893,2.6665,2.5995,2.5048,2.4654,2.3443,2.1591,2.174,2.1452,2.0166,1.9278,1.8913,1.9084,1.8703,1.8712,1.9094,1.9606,1.97,4.8011,4.9329,5.0067,4.9421,4.8656,4.7098,4.2827,3.9533,3.5996,3.1711,2.969,2.8766,2.8922,3.1338,3.425,3.7196,3.9673,4.2014,4.4817,4.465,4.4316,4.4552,4.4506,4.4165,4.3781,4.3739,4.368,4.3826,4.3987,4.4163,4.4323,4.3909,4.3201,4.2162,4.0923,3.9943,3.9398,3.9017,3.8718,3.8718,3.7876,3.7192,3.6219,3.5256,3.3907,3.1944,3.1704,3.0991,2.9932,2.9825,2.9846,2.9932,2.9566,2.9652,2.9911,2.9566,2.9566,2.976,2.9544,2.8791,2.8214,2.7306,2.6571,2.5855,2.4108,2.3224,2.2718,2.1359,2.0864,2.0791,2.0418,2.0393,2.0442,2.0344,2.0529,2.0737,2.0737,2.0878,2.0942,2.0248,2.0528,2.0576,2.0088,2.0707,2.1129,2.0834,2.0905,2.1093,2.1484,2.243,2.3658,2.5228,2.5933,2.6433,2.6905,2.6437,2.5721,2.4801,2.4498,2.3429,2.16,2.1787,2.1333,2.0072,1.9168,1.8894,1.9068,1.8556,1.861,1.9232,1.9609,1.9823,4.9203,5.0193,5.0914,4.9773,4.8517,4.6126,4.075,3.7035,3.3428,2.8815,2.7609,2.7244,2.7222,2.9976,3.286,3.4932,3.7029,3.9609,4.3188,4.3099,4.3239,4.4562,4.4382,0.0,4.365,4.3841,4.3958,4.4031,4.428,4.4353,4.4236,4.3482,4.2957,4.2348,4.1142,4.0165,3.9631,3.9168,3.8936,3.8718,3.8266,3.7387,3.6423,3.5672,3.4028,3.1955,3.1887,3.108,2.9792,2.9965,3.0051,3.0019,2.9588,2.9674,2.9997,2.9566,2.9556,2.9544,2.908,2.8409,2.7697,2.7054,2.6505,2.5702,2.4108,2.3303,2.2839,2.1433,2.1019,2.101,2.0507,2.0491,2.0547,2.0361,2.0737,2.0945,2.032,2.0704,2.0786,1.9849,2.0132,2.0384,1.9891,2.0201,2.0576,2.0423,2.0432,2.0559,2.0376,2.109,2.2327,2.4198,2.5195,2.6086,2.6795,2.6414,2.5628,2.489,2.4474,2.3358,2.1916,2.1781,2.1174,1.9921,1.9039,1.8864,1.9039,1.8531,1.8644,1.9409,1.9779,1.9949,5.0872,5.1862,5.245,5.1574,4.9113,4.5848,4.1489,3.6442,3.2016,2.9527,2.7521,2.6709,2.8742,2.9766,3.1251,3.4278,3.5913,3.8208,4.1929,4.2855,4.3658,4.5377,4.5182,4.4743,4.4616,4.4441,4.4397,4.4689,4.4733,4.4514,4.3914,4.3855,4.3298,4.2033,4.1976,4.1108,3.9631,3.9617,3.9181,3.8718,3.8718,3.7863,3.6423,3.6118,3.446,3.1955,3.1704,3.0935,2.9771,2.9792,2.9792,2.9771,2.9502,2.9566,2.9771,2.9502,2.9116,2.8874,2.8874,2.8182,2.7053,2.7023,2.6269,2.5449,2.4596,2.3735,2.2857,2.2024,2.1549,2.1043,2.0669,2.0588,2.0547,2.0361,2.032,2.032,2.032,2.0198,2.0028,1.9825,1.9925,1.9882,1.9462,1.9706,1.9843,1.9429,1.9454,1.9585,1.9784,1.9808,2.0202,2.1706,2.352,2.5173,2.6652,2.5983,2.556,2.536,2.4776,2.3653,2.2037,2.1875,2.1174,1.9921,1.9388,1.903,1.8514,1.8699,1.8892,1.9068,1.9816,2.0161,5.0835,5.2001,5.2398,5.0896,4.8007,4.4501,4.0124,3.5067,3.0642,2.8061,2.6457,2.5698,2.6902,2.7409,2.8486,3.1028,3.1943,3.354,3.7211,3.8148,3.9592,4.2734,4.2988,4.3692,4.5142,4.493,4.4675,4.4806,4.4806,4.4528,4.387,4.3826,4.3502,4.299,4.2381,4.1644,4.1066,4.0176,3.9413,3.9181,3.895,3.7876,3.6423,3.6118,3.4472,3.1955,3.1681,3.0902,2.9771,2.9771,2.9771,2.9771,2.9652,2.9685,2.976,2.9222,2.9028,2.8864,2.7954,2.7509,2.7043,2.6586,2.6167,2.5423,2.4771,2.4135,2.3462,2.2292,2.1849,2.1632,2.1062,2.0677,2.058,2.0507,2.0401,2.032,2.032,2.019,2.0011,1.9825,1.9782,1.9577,1.9272,1.9396,1.9331,1.9102,1.9183,1.9314,1.9096,1.9271,1.9985,2.0916,2.2467,2.3868,2.4962,2.516,2.4994,2.5171,2.4119,2.3148,2.2503,2.1807,2.111,2.026,1.9788,1.9086,1.8514,1.8354,1.8544,1.8742,1.9174,1.9708,5.0078,5.143,5.199,5.0505,4.7176,4.3125,3.8977,3.384,2.9305,2.7125,2.5641,2.4956,2.5643,2.6007,2.674,2.8535,2.9217,3.0776,3.4257,3.5228,3.6862,4.0585,4.1222,4.2194,4.4609,4.4857,4.4967,4.4967,4.485,4.4601,4.4148,4.4031,4.387,4.3709,4.2701,4.2179,4.1961,4.0708,3.9848,3.9631,3.8963,3.8148,3.6756,3.6169,3.4737,3.2264,3.1942,3.0902,2.9771,2.9771,2.9739,2.9674,2.9523,2.9491,2.9459,2.8843,2.842,2.8192,2.7271,2.6815,2.6596,2.6139,2.6007,2.5799,2.5198,2.4744,2.4036,2.2874,2.2386,2.2109,2.1144,2.0939,2.0791,2.0531,2.0418,2.032,2.032,1.9935,1.9742,1.9817,1.9348,1.8932,1.9067,1.8773,1.8686,1.8801,1.8898,1.8825,1.859,1.903,1.9603,2.0162,2.1263,2.2647,2.4009,2.425,2.4463,2.5006,2.3937,2.3087,2.275,2.2086,2.1387,2.0683,2.0259,1.9587,1.8855,1.8531,1.8339,1.8476,1.8708,1.9059,4.885,5.0599,5.166,5.0431,4.6572,4.1985,3.8399,3.2878,2.8188,2.7313,2.5506,2.4492,2.5902,2.6151,2.6501,2.7566,2.9054,3.1433,3.489,3.5638,3.7013,4.0002,3.995,4.0299,4.2231,4.4163,4.5289,4.5289,4.4967,4.4806,4.4806,4.4484,4.4031,4.3402,4.3036,4.2629,4.1961,4.1171,4.031,3.9631,3.8963,3.8485,3.7749,3.6487,3.5065,3.3207,3.2022,3.0902,2.9771,2.9771,2.962,2.9448,2.9007,2.8728,2.8561,2.8111,2.7489,2.7053,2.7053,2.6596,2.6129,2.6129,2.6007,2.5827,2.5827,2.5078,2.409,2.3639,2.2725,2.1732,2.1111,2.1151,2.139,2.0578,2.032,2.032,2.032,1.9624,1.9174,1.9784,1.8558,1.7667,1.8426,1.7787,1.7433,1.8184,1.8208,1.834,1.8744,1.872,1.8847,1.9217,1.9967,2.1596,2.4255,2.3806,2.393,2.536,2.4281,2.3529,2.3021,2.2501,2.1821,2.0978,2.0673,2.0434,1.9902,1.9229,1.8796,1.8804,1.8467,1.863,4.4339,4.6107,4.6932,4.4912,4.1563,3.8061,3.5007,3.1114,2.7604,2.598,2.5316,2.5165,2.514,2.5638,2.6857,2.9091,3.0118,3.1449,3.3923,3.5744,3.7659,3.9326,4.2126,4.418,4.4323,4.5333,4.586,4.5655,4.5538,4.5289,4.485,4.4719,4.4441,4.4031,4.3709,4.3416,4.2992,4.1961,4.1241,4.031,3.9631,3.8472,3.7076,3.6232,3.5089,3.323,3.2022,3.1127,3.0461,3.0008,2.962,2.9448,2.9459,2.918,2.8561,2.8111,2.7489,2.7043,2.6586,2.6263,2.5931,2.5931,2.578,2.5629,2.578,2.5395,2.4938,2.4144,2.2716,2.1333,2.1707,2.1243,2.0791,2.0523,2.0409,2.032,2.032,1.9624,1.9167,1.9784,1.8558,1.7629,1.8278,1.7711,1.735,1.7857,1.8052,1.8301,1.8574,1.8753,1.8978,1.9234,1.9527,2.0394,2.2182,2.2758,2.3379,2.3941,2.3593,2.3348,2.3529,2.2688,2.2164,2.1821,2.121,2.0461,1.9892,1.9093,1.8427,1.8083,1.8093,1.8085,4.0525,4.2744,4.342,4.18,3.8932,3.5651,3.3458,2.9984,2.7085,2.6044,2.5649,2.5416,2.5205,2.5697,2.6681,2.8392,2.9344,3.0651,3.2708,3.4834,3.7072,3.9122,4.2676,4.4831,4.4689,4.5538,4.5977,4.5787,4.5655,4.5377,4.485,4.4806,4.4645,4.4323,4.4002,4.3753,4.3548,4.2162,4.1369,4.0736,3.9672,3.8539,3.7217,3.6308,3.5139,3.3821,3.2534,3.1567,0.0,3.0235,2.9802,2.9308,2.9106,2.854,2.7865,2.7181,2.6789,2.6365,2.5988,2.5884,2.5732,2.5808,2.5732,2.5629,2.546,2.5152,2.4771,2.4275,2.2883,2.1524,2.1821,2.1448,2.0873,2.0523,2.0458,2.0401,2.0128,1.9267,1.8845,1.919,1.8059,1.7173,1.7449,1.7098,1.6736,1.7329,1.7543,1.8037,1.8582,1.8616,1.8899,1.9055,1.9154,1.9415,2.0536,2.1549,2.2553,2.3229,2.3151,2.3235,2.355,2.3241,2.2721,2.2371,2.1779,2.108,2.0424,1.9204,1.8164,1.7471,1.7579,1.7571,0.0,3.9713,4.0909,4.0411,3.747,3.4346,3.2823,2.9475,0.0,2.6968,2.6083,2.5489,2.6205,2.6194,2.6229,2.6487,2.7594,2.9307,3.169,3.3485,3.606,3.9846,4.169,4.2992,4.3841,4.5084,4.5816,4.5801,4.5538,4.5201,4.488,4.4836,4.4675,4.4353,4.3778,4.3618,4.3826,4.2028,4.103,4.103,3.9344,3.8425,3.8166,3.6615,3.5493,3.4535,3.3046,3.1827,3.072,3.0687,2.9972,2.9157,2.7998,2.7358,2.6804,2.5904,2.5534,2.5553,2.5751,2.5676,2.5534,2.5732,2.578,2.5526,2.4891,2.437,2.3834,2.39,2.2978,2.1872,2.1526,2.1559,2.1389,2.0627,2.0474,2.0337,1.9749,1.8937,1.835,1.8201,1.7206,1.6392,1.6511,1.6119,1.5959,1.6759,1.7061,1.7558,1.8528,1.8301,1.8403,1.898,1.8826,1.903,1.9793,2.0372,2.1517,2.3072,2.3326,2.3369,2.3367,2.3867,2.3534,2.2688,2.2414,2.1786,2.1128,1.9388,1.7989,1.7112,1.7112,1.7112,2.9479,0.0,3.3597,3.236,3.1029,2.9495,0.0,2.6944,2.6215,2.597,0.0,2.672,2.6954,2.7196,2.7719,2.8759,2.986,3.123,3.2629,3.5912,3.9524,4.3226,4.4441,4.4967,4.4967,4.5699,4.5903,4.539,4.5845,4.5539,4.4483,4.4439,4.4195,4.3648,4.3053,4.2896,4.3129,4.2491,4.1601,4.0646,3.9407,3.8375,3.7485,3.6162,3.5218,3.4535,3.2604,3.1681,3.1602,3.0318,2.977,2.9588,2.8571,2.8019,2.7255,2.6613,2.6202,2.5751,2.5808,2.5676,2.5477,2.5383,2.5354,2.5383,2.5245,2.4725,2.4117,2.4074,2.2785,2.1542,2.2091,2.1466,2.0849,2.0547,2.0564,2.0369,1.9899,1.8922,1.8239,1.8328,1.7106,1.6172,1.6807,1.6098,1.5643,1.6364,1.6774,1.723,1.8128,1.8099,1.8403,1.898,1.8558,1.86,1.9226,2.0618,2.1714,2.2423,2.303,2.3534,2.3892,2.4064,2.3984,2.345,2.2139,2.0722,1.9214,1.8689,1.7989,1.7112,1.7112,1.7112,2.5839,2.8031,2.9904,2.921,2.836,2.7355,2.6404,0.0,0.0,0.0,0.0,2.6091,2.7262,2.718,2.7409,2.8885,2.9671,3.129,3.4803,3.7986,4.1368,4.4645,4.5088,4.5133,4.5248,4.5567,4.5505,4.4724,4.549,4.5466,4.4352,4.4309,4.4037,4.3407,4.3124,4.2785,4.2629,4.208,4.1186,4.025,3.9096,3.8022,3.6965,3.5587,3.4791,3.4059,3.248,3.1523,3.1307,3.0241,2.948,2.9137,2.8243,2.7754,2.7161,2.6378,2.5967,2.5808,2.5704,2.561,2.5477,2.5383,2.5354,2.5354,2.5236,2.479,2.4456,2.4344,2.2929,2.1729,2.1978,2.1373,2.0572,2.0491,2.0531,2.0361,1.9422,1.8775,1.8152,1.7682,1.6786,1.6316,1.639,1.5966,1.576,1.6188,1.6803,1.7267,1.7935,1.7905,1.8231,1.9102,1.8521,1.8411,1.9288,2.041,2.1301,2.1969,2.2723,2.3343,2.3911,2.4198,2.4141,2.3354,2.2089,2.0793,1.9478,1.8858,1.8294,1.7587,1.7329,1.7112,2.4601,2.6469,2.8154,2.8121,2.7295,2.6296,2.5942,0.0,0.0,0.0,0.0,0.0,2.7409,2.7229,0.0,2.8344,2.9049,3.1518,3.7297,3.9752,4.2143,4.4967,4.4901,4.4667,4.514,4.4989,4.4724,4.4208,4.4752,4.4733,4.4178,4.4135,4.3864,4.3281,4.3025,4.2742,4.2133,4.132,4.0439,3.9707,3.8401,3.7326,3.635,3.5046,3.3999,3.3269,3.2252,3.124,3.0598,3.0321,2.934,2.8498,2.7652,2.7041,2.674,2.5919,2.5751,2.5855,2.5629,2.5534,2.5506,2.5553,2.5477,2.5421,2.4826,2.4641,2.458,2.4542,2.3286,2.1966,2.2064,2.1507,2.0767,2.0611,2.0483,2.0337,1.8918,1.8619,1.8077,1.6804,1.6483,1.6313,1.5981,1.5866,1.5932,1.6053,1.6685,1.7343,1.7751,1.7486,1.7848,1.8837,1.8267,1.819,1.9378,2.0147,2.0819,2.1394,2.2414,2.3104,2.371,2.3928,2.3731,2.292,2.1998,2.1008,2.029,1.9231,1.8423,1.7865,1.7353,1.7112,2.5609,2.6403,2.6719,2.5488,2.5098,2.4749,2.4096,0.0,0.0,0.0,0.0,0.0,0.0,2.8979,2.9444,2.9907,3.1976,3.5028,3.9381,4.0912,4.2626,4.5011,4.5263,4.5054,4.4868,4.4597,4.3984,4.3467,4.3971,4.4054,4.2958,4.2958,4.2807,4.2463,4.1929,4.1453,4.0724,4.0159,3.9415,3.8926,3.7173,3.5994,3.5314,3.3797,3.2744,3.2252,3.088,3.0443,3.0332,2.9437,2.8828,2.853,2.7815,2.725,2.6786,2.6472,2.6205,2.6054,2.5855,2.5657,2.5534,2.5732,2.5411,2.5052,2.5402,2.508,2.4551,2.4362,2.3611,2.268,2.2617,2.1917,2.1222,2.1188,2.0994,2.0377,1.9076,1.8529,1.7851,1.6907,1.63,1.6015,1.6205,1.5927,1.5655,1.5608,1.6472,1.6825,1.658,1.7002,1.7337,1.7833,1.787,1.8,1.8419,1.9767,2.0614,2.1072,2.1836,2.2657,2.3655,2.3228,2.2934,2.2799,2.155,2.04,1.9018,1.8804,1.8354,1.7329,1.712,1.7112,2.5071,2.5423,2.5579,2.5439,2.5596,2.5355,2.3867,0.0,0.0,0.0,0.0,0.0,0.0,3.0402,3.1227,3.3015,3.5469,3.7991,4.0739,4.2021,4.3182,4.4843,4.4591,4.4248,4.4026,4.3873,4.3453,4.2724,4.3229,4.3398,4.3037,4.2887,4.2695,4.2586,4.1997,4.106,4.0254,3.9083,3.8307,3.7927,3.7033,3.5452,3.3845,3.2639,3.1758,3.0666,2.9469,2.8931,2.9006,2.8018,2.7567,2.7396,2.7171,2.7004,2.6961,2.6706,2.6507,2.6101,2.6025,2.5855,2.5704,2.5799,2.5553,2.526,2.5458,2.4986,2.4391,2.4287,2.362,2.2952,2.2834,2.2255,2.1699,2.128,2.1004,2.0512,1.9253,1.8511,1.7813,1.6996,1.6295,1.5872,1.5934,1.5778,1.5608,1.5527,1.6025,1.6385,1.6266,1.6544,1.6882,1.7508,1.7613,1.784,1.8348,1.9715,2.0906,2.1631,2.226,2.2818,2.3044,2.2663,2.2234,2.2323,2.1263,2.0262,1.9473,1.8827,1.8322,1.7604,1.7329,1.7112,2.4888,2.5141,2.5293,2.616,2.6198,2.5911,2.5005,0.0,0.0,0.0,0.0,0.0,3.1119,3.2266,3.379,3.631,3.8472,4.0436,4.2106,4.313,4.3968,4.4639,4.4356,4.3734,4.3188,4.2976,4.2724,4.2218,4.271,4.3003,4.3085,4.2786,4.2663,4.2467,4.1913,4.1073,3.9745,3.8605,3.7716,3.7059,3.6407,3.4947,3.2678,3.1562,3.0373,2.9183,2.8056,2.7601,2.7373,2.6765,2.6445,2.6564,2.6613,2.6644,2.6857,2.7027,2.6725,2.6281,2.6224,2.6025,2.5827,2.5827,2.5657,2.543,2.543,2.4882,2.4258,2.4258,2.3868,2.3216,2.306,2.2599,2.1968,2.1518,2.1191,2.0652,1.9332,1.8457,1.7599,1.6843,1.6069,1.5529,1.5261,1.5222,1.5162,1.5234,1.5595,1.599,1.6025,1.633,1.6673,1.726,1.759,1.8061,1.905,2.0071,2.1031,2.1952,2.2192,2.2407,2.2014,2.159,2.138,2.1452,2.0533,2.0069,1.9688,1.8854,1.8296,1.7662,1.7218,1.6977,2.6111,2.6571,2.6542,2.6647,2.5697,0.0,2.7893,2.7605,0.0,3.0751,0.0,0.0,0.0,3.5526,3.7353,3.8719,4.0651,4.2289,4.3686,4.4371,4.4724,4.4724,4.4512,4.3929,4.3229,4.271,4.2218,4.2218,4.2218,4.2338,4.2632,4.2338,4.2045,4.1812,4.1248,4.0173,3.889,3.8571,3.776,3.6461,3.454,3.3092,3.2126,3.0481,2.9158,2.8027,2.7186,2.6679,2.6033,2.6023,2.6192,2.6143,2.6349,2.6625,2.7056,2.7074,2.6933,2.6677,2.6498,2.6177,2.5827,2.5827,2.5553,2.5232,2.5232,2.4778,2.4258,2.4258,2.3965,2.3653,2.3635,2.3221,2.2554,2.1766,2.1302,2.0585,1.9025,1.8213,1.7437,1.6293,1.5248,1.4712,1.4254,1.4168,1.4272,1.4648,1.5221,1.5459,1.5601,1.6015,1.6515,1.6821,1.7459,1.8457,2.0432,2.0397,2.0458,2.1019,2.1189,2.0889,2.0327,1.9931,1.9903,2.0135,1.9563,1.8923,1.8578,1.855,1.7985,1.6601,1.6572,1.6557,2.4879,2.5782,2.6506,2.7214,2.7382,0.0,0.0,2.955,3.1119,3.4026,3.4917,0.0,0.0,3.7434,3.9126,4.0531,4.2102,4.3807,4.4903,4.5337,4.5284,4.4724,4.4554,4.3971,4.3229,4.271,4.2218,4.2218,4.2218,4.2432,4.2913,4.1989,4.1615,4.1648,4.0413,3.9392,3.842,3.7831,3.6858,3.5634,3.4693,3.3078,3.0881,2.9687,2.8561,2.7294,2.5983,2.542,2.5366,2.4813,2.5011,2.5317,2.6048,2.652,2.6904,2.7027,2.6933,2.6753,2.6829,2.6574,2.6205,2.6054,2.5732,2.5354,2.508,2.4655,2.4258,2.4258,2.4165,2.4048,2.3635,2.3428,2.3174,2.2364,2.1926,2.1064,1.98,1.8638,1.7381,1.6351,1.5214,1.4336,1.4013,1.3792,1.3945,1.4506,1.4695,1.4944,1.5479,1.5774,1.6098,1.6707,1.7695,1.902,2.0811,2.0881,2.0681,2.0472,2.0485,2.0261,1.9948,1.9372,1.9464,1.9742,1.8888,1.8373,1.8203,1.8018,1.7583,1.6565,1.6744,1.661,2.4029,2.5016,2.605,2.7168,2.8357,0.0,3.0442,3.2233,3.439,3.7414,3.8188,0.0,3.8317,0.0,4.0319,4.1404,4.3065,4.4727,4.5514,4.5725,4.5364,4.4814,4.4314,4.3664,4.2928,4.2189,4.1964,4.2071,4.1832,4.2137,4.2788,4.1439,4.0735,4.1121,3.9704,3.8372,3.7606,3.6601,3.5788,3.465,3.4261,3.2823,3.0451,2.9191,2.811,2.7015,2.5419,2.4709,2.4485,2.4235,2.4299,2.4684,2.5732,2.6299,2.6602,2.6952,2.6904,2.6677,2.6904,2.6706,2.6299,2.6025,2.5732,2.543,2.5005,2.4636,2.4362,2.4575,2.4481,2.4361,2.3946,2.3889,2.3568,2.2478,2.2003,2.1523,2.0021,1.8673,1.762,1.6371,1.5316,1.4291,1.3499,1.353,1.392,1.4059,1.4317,1.4787,1.5466,1.5615,1.6154,1.7086,1.8344,1.97,2.1235,2.1089,2.0869,2.0289,2.0054,1.969,1.9311,1.8749,1.8482,1.8727,1.8124,1.7616,1.7551,1.7483,1.7089,1.6212,1.6378,1.6249,2.3998,2.4583,2.5338,2.6324,2.8059,0.0,3.4636,3.5873,3.7251,4.0896,4.1107,4.0676,4.0169,4.0627,4.1109,4.1214,4.3531,4.5254,4.556,4.5277,4.5038,4.4468,4.3776,4.3052,4.2298,4.157,4.1456,4.175,4.1276,4.1152,4.1987,4.048,3.9756,3.9551,3.851,3.7434,3.6165,3.5538,3.4532,3.3416,3.2679,3.2022,3.1383,2.8955,2.7412,2.7004,2.5819,2.4818,2.3825,2.406,2.425,2.4693,2.5704,2.6129,2.6205,2.6829,2.68,2.6479,2.6677,2.6479,2.6054,2.5629,2.5506,2.543,2.5005,2.474,2.4804,2.5224,2.4711,2.4175,2.4594,2.4637,2.3942,2.1899,2.1801,2.164,1.9485,1.8582,1.7889,1.6414,1.5404,1.4406,1.314,1.3412,1.3835,1.3706,1.4297,1.5054,1.5642,1.5764,1.6504,1.8244,1.961,2.0647,2.163,2.1209,2.0878,2.0289,1.9871,1.9129,1.8192,1.7285,1.7086,1.7421,1.6923,1.6657,1.6442,1.6988,1.6536,1.5476,1.5632,1.5618,2.3896,2.4568,0.0,2.7665,3.0112,0.0,0.0,3.8636,0.0,0.0,4.4275,4.348,4.2365,4.2519,4.2749,4.2593,4.3873,4.4953,4.5285,4.4916,4.4431,4.4165,4.3417,4.2912,4.2412,4.1505,4.0858,4.0382,4.0174,4.0134,4.0096,3.9174,3.8188,3.7653,3.6478,3.5214,3.4063,3.3618,3.3075,3.2433,3.124,3.0577,3.0553,2.8926,2.7651,2.7089,2.5527,2.4546,2.3996,2.3731,2.4118,2.4825,2.5137,2.543,2.5751,2.6233,2.6328,2.6252,2.6015,2.5673,2.5379,2.4515,2.4512,2.456,2.4145,2.4627,2.5195,2.5253,2.522,2.4993,2.4793,2.4322,2.3565,2.2673,2.2394,2.1891,2.042,1.9657,1.8568,1.6736,1.5671,1.4852,1.3951,1.3914,1.4087,1.4533,1.4809,1.5288,1.6168,1.71,1.8046,1.9012,2.0291,2.1098,2.1831,2.1687,2.1326,2.0492,2.0141,1.95,1.8192,1.7285,1.7032,1.7242,1.6506,1.6235,1.6263,1.6567,1.6228,1.5632,1.5796,1.5716,2.4423,2.5472,0.0,2.9276,3.2062,3.5656,4.0675,0.0,0.0,0.0,4.6288,4.4992,4.432,4.3791,4.3403,4.3348,4.3994,4.4536,4.4657,4.4152,4.3671,4.3729,4.2641,4.189,4.1957,4.0978,3.9966,3.9734,3.917,3.8932,3.8839,3.7506,3.648,3.5862,3.4761,3.3735,3.2819,3.2325,3.2078,3.1858,3.0632,3.0126,2.9904,2.8271,2.7291,2.677,2.5142,2.4515,2.4329,2.3825,2.3879,2.4623,2.457,2.4891,2.5307,2.5732,2.5884,2.5921,2.5452,2.5141,2.4913,2.3923,2.3737,2.4036,2.3837,2.4149,2.4747,2.4962,2.495,2.4973,2.4686,2.3875,2.3077,2.2828,2.2357,2.1873,2.0702,1.9987,1.9101,1.7479,1.6423,1.5794,1.5241,1.5022,1.5015,1.5435,1.5683,1.6168,1.6911,1.7992,1.9083,1.9593,2.0604,2.1596,2.1992,2.219,2.1621,2.0456,2.0316,1.969,1.8192,1.7172,1.6735,1.7088,1.6278,1.5862,1.5831,1.6117,1.5982,1.5424,1.5514,1.5423,2.5374,2.6892,0.0,3.1081,3.4333,0.0,4.4198,4.6753,4.8362,4.9423,4.7652,4.5795,4.618,4.4682,4.3572,4.3914,4.4168,4.4471,4.4082,4.3364,4.2976,4.2889,4.1826,4.0885,4.0969,3.9912,3.9043,3.9155,3.7827,3.7262,3.7758,3.5678,3.443,3.4158,3.343,3.2702,3.1915,3.1717,3.16,3.1603,3.0664,2.9994,2.9555,2.7333,2.6325,2.6148,2.4854,2.4636,2.5085,2.4078,2.4031,2.4471,2.4242,2.4419,2.4816,2.5232,2.5402,2.5198,2.4731,2.447,2.4271,2.3418,2.3339,2.3277,2.3584,2.3682,2.3833,2.4711,2.451,2.4089,2.4293,2.3558,2.2528,2.2314,2.2004,2.1623,2.0466,2.0038,1.979,1.8458,1.7434,1.6796,1.6666,1.6558,1.66,1.6666,1.7149,1.7493,1.765,1.8647,1.9437,2.0038,2.1022,2.1799,2.2191,2.2378,2.1615,2.0298,2.0246,1.9492,1.8208,1.7096,1.6517,1.6673,1.5975,1.5417,1.5181,1.5577,1.557,1.5181,1.5167,1.5174,2.6446,2.758,0.0,0.0,3.8917,4.4429,4.7147,4.9411,5.0956,5.0083,4.8904,4.8005,4.8006,4.6648,4.5389,4.5356,4.4777,4.4205,4.4418,4.3411,4.2524,4.2131,4.1643,4.0725,3.9509,3.9155,3.8349,3.7149,3.7011,3.622,3.4782,3.4442,3.363,3.2314,3.1715,3.1367,3.0998,3.0095,2.996,3.0739,2.9615,2.9026,2.8436,2.7743,2.6689,2.4996,2.4472,2.4385,2.4813,2.4072,2.4068,2.4226,2.4119,2.4096,2.3956,2.3945,2.3879,2.3691,2.2813,2.2647,2.2352,2.1732,2.1582,2.2113,2.26,2.315,2.3437,2.4671,2.4288,2.387,2.4285,2.3136,2.1882,2.173,2.1977,2.1865,2.1388,2.1022,2.0218,1.9191,1.8294,1.7848,1.7545,1.729,1.7253,1.7356,1.759,1.7825,1.8251,1.9248,2.0038,2.0629,2.1603,2.2191,2.1799,2.1661,2.1144,1.9893,1.9238,1.8468,1.7821,1.6971,1.6339,1.6119,1.516,1.4591,1.4617,1.4728,1.4917,1.5181,1.4692,1.4578,2.6964,2.8836,0.0,3.7312,0.0,4.6544,4.9007,5.056,5.1594,5.1568,5.0605,4.9585,4.8989,4.7783,4.6819,4.6234,4.5254,4.454,4.421,4.3203,4.2422,4.1847,4.1048,4.0388,3.9479,3.8501,3.7659,3.6872,3.6217,3.5391,3.3966,3.3665,3.2693,3.1425,3.1107,3.083,3.0822,3.0323,3.0505,3.081,2.9911,2.8908,2.7661,2.699,2.6028,2.4855,2.478,2.4855,2.5213,2.4672,2.4649,2.4686,2.3997,2.377,2.3584,2.3078,2.3044,2.2924,2.1975,2.1703,2.1821,2.0996,2.0939,2.1339,2.1678,2.2004,2.2508,2.3353,2.3222,2.309,2.3298,2.2444,2.1466,2.1475,2.1393,2.1347,2.1058,2.096,2.062,2.0029,1.9363,1.8741,1.8837,1.8773,1.8553,1.8449,1.8663,1.8853,1.8853,1.9446,2.0235,2.0826,2.121,2.1603,2.1603,2.1235,2.05,1.9632,1.898,1.8033,1.7185,1.6083,1.548,1.5556,1.4826,1.4451,1.4422,1.4571,1.4728,1.5079,1.4487,1.4171,2.6967,3.031,3.4984,4.1588,4.4829,0.0,5.0272,5.1276,5.203,5.3173,5.2097,5.064,5.003,4.8726,4.7665,4.6882,4.597,4.498,4.4142,4.3434,4.295,4.2138,4.0983,4.0268,4.0157,3.834,3.7118,3.7124,3.5829,3.4856,3.4205,3.3172,3.2226,3.1541,3.1175,3.0967,3.0933,3.1169,3.1354,3.1341,3.0452,2.9018,2.7298,2.6115,2.5489,2.5069,2.532,2.5605,2.5729,2.525,2.5206,2.5281,2.4153,2.373,2.3479,2.2729,2.2496,2.2409,2.1449,2.128,2.1322,2.0758,2.0604,2.0881,2.1029,2.1103,2.1199,2.1935,2.2214,2.2123,2.2557,2.1986,2.1265,2.1072,2.0659,2.0465,2.073,2.0863,2.0978,2.1013,2.0226,1.9635,2.0038,2.0235,2.0038,1.9651,1.9849,1.984,1.9454,1.9849,2.0235,2.0629,2.0826,2.079,2.112,2.0579,2.0001,1.898,1.8247,1.735,1.627,1.4759,1.4034,1.4461,1.4042,1.4036,1.4046,1.4355,1.4649,1.5107,1.4068,1.3544,2.6766,3.1133,3.6947,4.2896,4.6211,4.8807,5.1283,5.332,5.4604,5.4189,5.2275,5.094,5.1382,4.9934,4.8594,4.8656,4.6962,4.5421,4.4955,4.491,4.449,4.3212,4.2504,4.1322,3.9824,3.8513,3.7272,3.6059,3.5983,3.539,3.4144,3.3347,3.2821,3.1944,3.1376,3.1235,3.1558,3.1008,3.0918,3.1276,2.9648,2.8524,2.8008,2.6799,2.5799,2.5068,2.4983,2.5183,2.5445,2.5184,2.5195,2.5046,2.4699,2.39,2.3043,2.285,2.1904,2.1028,2.0755,2.061,2.0373,2.0141,2.0158,2.0397,2.0912,2.0719,2.0289,2.2034,2.1819,2.135,2.1922,2.1484,2.0855,1.9906,1.9785,2.0131,2.1054,2.1144,2.1208,2.1379,2.1013,2.0629,2.0629,2.0629,2.0629,2.0629,2.0235,2.0038,1.984,2.0038,2.0038,2.0038,2.0432,2.0294,1.9195,1.9146,1.8351,1.6941,1.596,1.519,1.4606,1.2754,1.1543,1.1352,1.1786,1.2314,1.3116,1.3876,1.4686,1.5315,1.3911,1.2663,3.0,3.3578,3.7647,4.3714,4.6863,4.907,5.2364,5.422,5.5579,5.6179,5.5237,5.3889,5.2262,5.1256,5.006,4.8799,4.8099,4.7359,4.5948,4.6034,4.5568,4.394,4.3151,4.1781,4.0027,3.8331,3.7238,3.6543,3.5727,3.5162,3.4624,3.4247,3.3728,3.2855,3.2789,3.2731,3.2913,3.2684,3.2221,3.1525,2.9884,2.8769,2.7973,2.7026,2.6029,2.5373,2.5335,2.5509,2.5677,2.5503,2.5392,2.5584,2.4928,2.4217,2.3302,2.2952,2.1983,2.0681,2.067,2.0314,2.0068,2.0068,2.0133,2.0206,2.0588,2.0397,2.0393,2.1379,2.1568,2.1551,2.2134,2.1661,2.0955,2.0463,2.0375,2.0738,2.1485,2.1431,2.1375,2.1566,2.1415,2.1219,2.0826,2.1022,2.1255,2.0975,2.0698,2.0466,2.0181,1.9907,1.9651,2.0038,1.9552,1.9232,1.8874,1.82,1.7177,1.6212,1.5299,1.4316,1.3085,1.161,1.0193,0.9,0.982,1.1008,1.2176,1.3436,1.4435,1.5169,1.3932,1.315,3.1629,3.4426,3.7071,4.3092,4.6317,4.925,5.3429,5.4992,5.635,5.8164,5.8045,5.6706,5.3973,5.306,5.203,4.9793,4.962,4.9065,4.7447,4.7284,4.6824,4.532,4.409,4.2444,4.0526,3.8619,3.7289,3.6678,3.5822,3.5166,3.5334,3.5076,3.4743,3.4322,3.4275,3.4226,3.4226,3.399,3.3315,3.1874,3.0461,2.9089,2.8084,2.7201,2.6462,2.5675,2.5719,2.5738,2.5718,2.56,2.5742,2.5921,2.5195,2.4359,2.3688,2.3149,2.2181,2.1075,2.0863,2.0518,2.0274,2.0068,2.0389,2.0504,2.0364,2.061,2.1035,2.1247,2.1452,2.1676,2.221,2.1661,2.1274,2.1119,2.1229,2.1401,2.203,2.2019,2.2013,2.2163,2.2191,2.1995,2.1406,2.1845,2.1937,2.1496,2.1191,2.0949,2.0699,1.9957,1.9635,1.9773,1.8874,1.8332,1.8344,1.7056,1.6047,1.5519,1.4598,1.3285,1.1557,1.024,0.9007,0.7456,0.7664,0.8856,1.0878,1.2488,1.3895,1.4552,1.3474,1.28,2.9123,3.1629,3.4828,3.9833,4.4747,4.9276,5.3447,5.5787,5.753,5.9761,5.9475,5.8434,5.7491,5.5528,5.4008,5.3459,5.1849,5.0544,4.998,4.961,4.881,4.7651,4.5768,4.3879,4.1647,3.9722,3.7887,3.6209,3.5942,3.6114,3.6443,3.5786,3.5404,3.5905,3.5257,3.4909,3.4909,3.3891,3.2875,3.2009,3.0839,2.9698,2.8557,2.7795,2.6706,2.5463,2.5937,2.5922,2.5718,2.56,2.5845,2.6137,2.5469,2.4609,2.3688,2.4143,2.3168,2.147,2.1466,2.113,2.0677,2.0274,2.0596,2.1154,2.1137,2.1423,2.1643,2.2048,2.205,2.1858,2.1657,2.1466,2.1311,2.1284,2.1522,2.2011,2.2606,2.3401,2.3941,2.3951,2.3961,2.3756,2.317,2.3346,2.3294,2.2708,2.2112,2.1705,2.1124,2.0354,1.9773,1.9208,1.8598,1.7751,1.6732,1.5867,1.4943,1.3846,1.2489,1.1336,1.034,0.8422,0.7243,0.715,0.4744,0.5096,0.8573,1.0727,1.254,1.3462,1.2339,1.0911,2.8612,3.0665,3.3276,3.831,4.348,4.8329,5.1798,5.605,5.9398,5.8898,5.998,5.9972,5.7033,5.5549,5.4499,5.3056,5.1761,5.0814,4.9964,4.9673,4.8858,4.7737,4.6025,4.3896,4.1001,3.9042,3.7268,3.5728,3.5134,3.5072,3.5939,3.6003,3.6002,3.628,3.602,3.5776,3.5548,3.4838,3.4029,3.3281,3.1467,3.0035,2.9029,2.7942,2.6841,2.5575,2.607,2.6004,2.5454,2.5194,2.548,2.5933,2.5403,2.4981,2.4495,2.4594,2.3659,2.245,2.2451,2.1945,2.1311,2.1432,2.1518,2.1751,2.2042,2.2069,2.2075,2.2478,2.2472,2.2294,2.2612,2.2535,2.2673,2.3247,2.4043,2.4525,2.4563,2.4289,2.3961,2.3961,2.3961,2.3961,2.3766,2.3434,2.3346,2.3285,2.2397,2.1569,2.1107,2.0552,1.9773,1.9004,1.8005,1.7162,1.6248,1.5066,1.3751,1.2484,1.19,1.0705,0.8864,0.7867,0.6848,0.5937,0.3594,0.3605,0.6008,0.8182,1.0381,1.2653,1.117,1.0146,2.7271,2.9075,3.191,3.7558,4.1745,4.5929,5.1729,5.5414,5.7905,5.8041,5.9486,5.9886,5.6998,5.5854,5.4768,5.336,5.2601,5.1742,5.0804,5.0026,4.9093,4.7712,4.6058,4.3939,4.1064,3.9006,3.7283,3.6035,3.489,3.475,3.5732,3.6043,3.6264,3.6392,3.6794,3.6627,3.5825,3.5352,3.4718,3.3794,3.1692,3.0112,2.9029,2.7831,2.6587,2.5575,2.6122,2.6074,2.5443,2.5171,2.5468,2.5933,2.5403,2.5034,2.5012,2.4916,2.4217,2.3279,2.3081,2.2724,2.2007,2.1871,2.2096,2.2464,2.2673,2.2922,2.2973,2.3173,2.3149,2.2974,2.3561,2.3951,2.4341,2.5119,2.5775,2.6286,2.6067,2.5324,2.474,2.4546,2.4546,2.4546,2.4351,2.3826,2.3533,2.3483,2.2595,2.1758,2.1107,2.0501,1.9656,1.8632,1.739,1.6365,1.5533,1.4134,1.2873,1.1759,1.0962,0.9761,0.8128,0.714,0.6097,0.4954,0.2822,0.2072,0.2296,0.5463,0.7856,0.9919,0.9876,0.9753,0.0,0.0,0.0,3.7364,3.9304,4.2329,5.3147,5.3516,5.2742,5.7421,5.8251,5.7925,5.7537,5.6444,5.5262,5.4802,5.4252,5.3619,5.2332,5.1137,4.9674,4.7684,4.6011,4.4156,4.1827,3.9533,3.7861,3.688,3.5208,3.4831,3.6237,3.6083,3.6192,3.6645,3.7364,3.7227,3.6097,3.5639,3.4636,3.3444,3.1472,2.9866,2.8557,2.7478,2.6414,2.56,2.6147,2.6186,2.573,2.5611,2.5857,2.616,2.5458,2.4928,2.4803,2.5262,2.4829,2.3884,2.3698,2.3221,2.277,2.1971,2.2515,2.3294,2.3068,2.3806,2.4568,2.4345,2.4123,2.4136,2.4525,2.5486,2.626,2.626,2.6647,2.7044,2.7044,2.6669,2.61,2.5712,2.5518,2.5324,2.474,2.4536,2.4097,2.3502,2.3096,2.2302,2.1306,2.0371,1.9212,1.7899,1.6582,1.5554,1.455,1.3245,1.2113,1.1465,0.9674,0.8505,0.8132,0.623,0.4993,0.4573,0.2242,-0.0184,-0.2369,0.2543,0.5079,0.5432,0.8492,0.9291,2.4833,0.0,0.0,0.0,0.0,0.0,4.3423,4.7193,5.0472,5.3514,5.5056,5.5857,5.6059,5.6202,5.5617,5.3878,5.2842,5.1935,5.137,5.0723,4.9614,4.7954,4.6591,4.4591,4.1443,3.9681,3.7741,3.516,3.4565,3.4455,3.4981,3.5804,3.6358,3.6152,3.7197,3.7061,3.5612,3.5725,3.4897,3.3476,3.1701,3.0366,2.9357,2.7839,2.6848,2.6173,2.6192,2.6142,2.6158,2.6042,2.6237,2.6348,2.5828,2.5604,2.5612,2.5514,2.5333,2.5306,2.4989,2.4451,2.4206,2.4012,2.3925,2.3837,2.4686,2.497,2.4887,2.527,2.511,2.4822,2.5235,2.5951,2.6897,2.6897,2.7275,2.7511,2.7331,2.6984,2.6467,2.6078,2.5712,2.5324,2.474,2.4402,2.3856,2.3268,2.2482,2.1648,2.0916,1.9708,1.8647,1.7162,1.5946,1.4584,1.3089,1.2264,1.1167,0.9595,0.9058,0.8232,0.71,0.5927,0.4841,0.4191,0.2242,0.0914,-0.0178,-0.053,0.0695,0.3558,0.6316,0.8086,0.0,0.0,0.0,2.9313,0.0,0.0,4.1069,4.4299,4.6981,5.1081,5.2953,5.4099,5.4705,5.4712,5.4071,5.2895,5.123,5.021,5.0318,4.9715,4.8635,4.7108,4.5748,4.3937,4.138,3.9668,3.7923,3.5897,3.491,3.469,3.4694,3.5499,3.5774,3.5442,3.6593,3.661,3.5358,3.5576,3.4909,3.3352,3.1541,3.017,2.917,2.7566,2.6605,2.6054,2.6343,2.6253,2.609,2.6737,2.6699,2.6359,2.5927,2.5658,2.5766,2.5702,2.5714,2.5659,2.5685,2.5328,2.4849,2.5173,2.506,2.4947,2.5495,2.5755,2.5873,2.6287,2.6084,2.5761,2.6188,2.6724,2.7121,2.7239,2.7625,2.7673,2.7263,2.7001,2.6782,2.6442,2.5712,2.5098,2.4615,2.4095,2.3541,2.2858,2.2069,2.1058,1.9979,1.8753,1.7512,1.6241,1.5073,1.3939,1.2472,1.1861,1.0615,0.873,0.8155,0.7499,0.6752,0.5742,0.5011,0.4355,0.2947,0.2118,0.1828,-0.0845,-0.0164,0.3499,0.5029,0.6922,0.0,0.0,0.0,0.0,3.0455,0.0,4.1566,4.2214,4.2579,4.8815,5.07,5.1619,5.3055,5.2317,5.1317,5.1064,4.9461,4.8594,4.9092,4.8308,4.7141,4.5804,4.4359,4.2998,4.1444,3.9719,3.8118,3.728,3.5684,3.4973,3.5055,3.5157,3.487,3.4719,3.5759,3.5938,3.5128,3.5087,3.4366,3.3135,3.1256,2.9821,2.8413,2.7205,2.6377,2.5924,2.655,2.6438,2.6254,2.7245,2.7385,2.6582,2.588,2.5679,2.5766,2.6254,2.6018,2.5629,2.6487,2.5903,2.5163,2.5992,2.6223,2.6092,2.6027,2.6287,2.7025,2.7157,2.6829,2.673,2.7145,2.7329,2.7389,2.763,2.7703,2.7553,2.7203,2.7039,2.6915,2.6387,2.5464,2.4442,2.4245,2.3595,2.2887,2.1957,2.1329,2.0536,1.8956,1.7674,1.6394,1.4984,1.41,1.3199,1.224,1.1514,1.048,0.8758,0.7613,0.6769,0.6776,0.5736,0.5165,0.5061,0.4111,0.3494,0.3011,0.0475,0.1065,0.4675,0.4721,0.6023,0.0,0.0,0.0,2.6373,2.7229,0.0,3.1856,3.369,3.6322,4.2097,4.3482,4.4876,4.86,4.9327,4.862,4.6109,4.7496,4.8444,4.7139,4.7299,4.6841,4.5399,4.5384,4.4096,4.0813,4.0121,3.8504,3.487,3.4374,3.4395,3.471,3.514,3.5128,3.48,3.5415,3.5319,3.4501,3.4548,3.3754,3.2311,3.1446,3.0227,2.8742,2.7565,2.6872,2.655,2.6498,2.6599,2.6746,2.7015,2.7373,2.7557,2.7245,2.684,2.6509,2.7232,2.73,2.699,2.7626,2.7314,2.7176,2.8101,2.8121,2.7669,2.8104,2.8399,2.8302,2.8001,2.7172,2.633,2.6737,2.6798,2.681,2.6858,2.7051,2.7292,2.751,2.6689,2.6069,2.6743,2.5534,2.386,2.2674,2.251,2.18,2.0559,1.986,1.8923,1.7619,1.6759,1.5549,1.3307,1.2432,1.1609,1.0287,0.9551,0.9044,0.8393,0.7694,0.7204,0.692,0.6657,0.6201,0.5196,0.4195,0.3387,0.2893,0.1277,0.1906,0.4597,0.4629,0.5456,0.0,0.0,2.58,2.5584,2.6519,0.0,0.0,3.1719,3.4544,3.9974,4.0786,4.1615,4.5355,4.5108,4.4347,4.3836,4.4426,4.4617,4.3939,4.5416,4.6289,4.5445,4.4438,4.2894,4.0492,3.9447,3.7824,3.5003,3.4326,3.4215,3.4547,3.4038,3.3799,3.3631,3.3947,3.4064,3.3914,3.3899,3.3308,3.2126,3.128,3.0027,2.8744,2.7748,2.6821,2.6116,2.6448,2.692,2.7347,2.8176,2.8444,2.8471,2.7843,2.7268,2.6919,2.7307,2.7376,2.7318,2.7881,2.8159,2.8027,2.8681,2.8845,2.8942,2.9441,2.9065,2.8469,2.8446,2.7467,2.646,2.6961,2.6819,2.6677,2.6798,2.6966,2.6941,2.689,2.5706,2.4868,2.4911,2.3632,2.248,2.2125,2.1229,2.0341,1.9485,1.8761,1.765,1.6601,1.5371,1.4002,1.2562,1.1562,1.0582,0.9793,0.9241,0.8728,0.8255,0.7921,0.7788,0.7291,0.7191,0.6586,0.5351,0.4414,0.3648,0.33,0.1977,0.2161,0.3697,0.3667,0.4545,2.7493,2.7421,2.7222,2.6438,2.7104,2.8345,0.0,0.0,0.0,3.8114,3.857,3.8981,4.1755,4.0739,3.98,4.125,4.1013,4.0648,4.0401,4.2793,4.4596,4.4559,4.2857,4.1102,3.9817,3.7918,3.6406,3.5887,3.4426,3.3903,3.4418,3.3297,3.266,3.2765,3.2788,3.2928,3.3115,3.3117,3.2881,3.2208,3.1282,2.994,2.8486,2.7682,2.6694,2.5604,2.6311,2.698,2.775,2.9182,2.9339,2.8894,2.8393,2.802,2.7629,2.7494,2.7384,2.7418,2.8003,2.8331,2.8691,2.8979,2.928,2.9767,2.9965,2.908,2.8193,2.8603,2.7558,2.6568,2.7164,2.6998,2.6689,2.6725,2.6845,2.6735,2.6165,2.4627,2.3375,2.2472,2.1592,2.1072,2.1517,2.0159,1.8931,1.8582,1.7688,1.6637,1.5475,1.3896,1.2572,1.1914,1.078,0.9996,0.9728,0.9351,0.8828,0.8327,0.833,0.8156,0.7809,0.7364,0.6586,0.5367,0.4591,0.3894,0.3402,0.2762,0.2443,0.265,0.2688,0.3371,2.9869,3.0142,3.0055,2.8753,2.8806,2.8873,2.8026,0.0,3.0478,3.2311,0.0,3.4168,3.6135,0.0,0.0,3.5347,3.7745,3.9194,3.7551,3.8937,4.0259,4.0859,4.0966,4.0206,3.8207,3.497,3.3719,3.544,3.3591,3.2916,3.4737,3.3849,3.323,3.3202,3.2734,3.2459,3.239,3.2549,3.2369,3.1891,3.143,3.0093,2.8102,2.7758,2.7076,2.6116,2.5726,2.6376,2.7635,2.853,2.8487,2.8201,2.9416,2.9594,2.9216,2.8728,2.8637,2.8637,2.8496,2.8686,2.8979,2.9267,2.9728,3.0225,2.9821,2.8887,2.7978,2.782,2.6986,2.6327,2.6568,2.6641,2.6462,2.6127,2.6556,2.6771,2.5845,2.3567,2.149,2.1315,2.0594,1.9949,2.035,1.9522,1.8387,1.7028,1.6426,1.5433,1.3863,1.2954,1.2084,1.1105,1.0131,0.9544,0.954,0.8962,0.8772,0.9164,0.8779,0.8718,0.8766,0.7143,0.5931,0.5547,0.4724,0.3806,0.2917,0.3444,0.3145,0.2051,0.2012,0.2248,3.2754,3.254,3.2024,3.0519,3.0679,3.0619,2.8466,2.8941,3.0242,3.1381,0.0,0.0,0.0,0.0,0.0,0.0,3.535,3.6237,3.5105,3.6603,3.8208,3.9475,3.8586,3.7326,3.5504,3.3888,3.3411,3.4305,3.2676,3.219,3.3851,3.2926,3.2337,3.2337,3.171,3.1614,3.184,3.1702,3.1565,3.1457,3.0836,2.9553,2.7673,2.7228,2.651,2.5799,2.547,2.6155,2.7258,2.7788,2.813,2.8194,2.9093,2.8975,2.8465,2.8039,2.7989,2.7962,2.812,2.827,2.8458,2.8736,2.9118,2.9196,2.9002,2.8474,2.7745,2.7349,2.6641,2.5914,2.5511,2.5616,2.5733,2.5553,2.5785,2.6005,2.4873,2.278,2.1267,2.1111,2.049,1.9859,1.9364,1.8248,1.7322,1.6355,1.5519,1.4477,1.3296,1.2263,1.1422,1.0583,0.9845,0.9461,0.9412,0.9168,0.931,0.9641,0.9194,0.8713,0.8027,0.6499,0.5591,0.5063,0.3475,0.2566,0.2368,0.3448,0.3075,0.1363,0.183,0.2074,3.5548,3.5314,3.4568,3.2363,3.2158,3.1841,2.9172,2.9534,3.0716,3.1538,3.2018,0.0,0.0,0.0,3.2166,3.2917,0.0,3.3692,3.2854,3.3922,3.5411,3.7094,3.6074,3.4901,3.3809,3.3175,3.2936,3.3671,3.1859,3.1487,3.3016,3.2071,3.1568,3.1568,3.1253,3.1256,3.1521,3.1421,3.145,3.1375,3.0482,2.9182,2.785,2.6885,2.6093,2.537,2.5294,2.5711,2.6512,2.6746,2.7285,2.7895,2.8088,2.7763,2.7417,2.7218,2.7451,2.7524,2.7421,2.7618,2.7854,2.8132,2.8226,2.8214,2.7958,2.7558,2.716,2.6798,2.6198,2.5611,2.5057,2.5148,2.5297,2.5105,2.5286,2.5251,2.4107,2.2412,2.1093,2.0936,2.0572,1.9793,1.8493,1.729,1.6321,1.5783,1.4774,1.3761,1.2599,1.1783,1.096,1.0347,0.9968,0.9563,0.9522,0.9395,0.9415,0.9755,0.9437,0.8588,0.7631,0.6341,0.5402,0.4637,0.3097,0.2145,0.1977,0.2607,0.2125,0.0631,0.1249,0.1754,3.81,3.8595,3.822,3.4287,3.2906,3.21,2.9901,3.0349,3.1232,3.1824,3.3267,3.4204,3.3793,3.3809,3.3375,0.0,3.2323,0.0,0.0,3.0559,3.1122,3.2428,3.3237,3.3966,3.4222,3.2304,3.1872,3.3899,3.116,3.0439,3.2872,3.1594,3.098,3.0992,3.1247,3.1247,3.0967,3.1851,3.2283,3.2243,3.0717,2.9417,2.844,2.7459,2.6194,2.4937,2.5033,2.5266,2.5489,2.5514,2.5971,2.6549,2.6549,2.6562,2.6636,2.7687,2.7887,2.7608,2.6961,2.684,2.6993,2.7289,2.7389,2.7353,2.6553,2.63,2.63,2.5742,2.5548,2.5548,2.5537,2.5548,2.5548,2.499,2.524,2.5112,2.3415,2.2073,2.0936,2.039,2.0011,1.9458,1.8096,1.6702,1.5629,1.5061,1.4198,1.3329,1.2434,1.1747,1.1157,1.0741,1.0185,0.971,0.9795,0.9559,0.9369,0.9195,0.9132,0.8888,0.8523,0.6864,0.5558,0.4554,0.4111,0.3213,0.1977,0.0752,0.0126,0.0,0.0,0.0763,4.27,4.2766,4.1873,3.8937,3.7311,3.5811,3.2895,3.3508,3.4208,3.3073,3.4901,3.6163,3.4777,3.3932,3.3346,0.0,3.2757,3.2023,0.0,2.9627,3.0399,3.2007,3.3258,3.3261,3.1378,3.1102,3.1067,3.1347,2.9822,2.9841,3.1806,3.131,3.0896,3.1283,3.1176,3.1278,3.1372,3.1487,3.1633,3.181,3.0848,2.9909,2.8951,2.8132,2.7184,2.606,2.5651,2.5523,2.5201,2.5219,2.567,2.6248,2.6425,2.6462,2.6309,2.6496,2.651,2.6414,2.5955,2.5491,2.5343,2.5263,2.5003,2.4846,2.5105,2.5014,2.4912,2.4902,2.4711,2.4285,2.3941,2.3694,2.3634,2.3454,2.3721,2.3599,2.2093,2.113,2.0372,2.0028,1.9261,1.8699,1.8104,1.6328,1.5086,1.4793,1.4525,1.3626,1.1841,1.153,1.1157,1.0279,1.0215,1.0113,0.9951,1.0018,0.9796,0.8847,0.8373,0.7472,0.5792,0.5108,0.44,0.3534,0.2488,0.1117,-0.0627,-0.1134,-0.0893,0.0,0.0,0.026,4.5507,4.5628,4.4737,4.1832,4.0779,3.9323,3.5854,3.6522,3.7418,3.5947,3.71,3.835,3.8161,3.6247,3.4654,3.4386,3.3348,3.1778,0.0,2.9667,3.0512,3.1532,3.2524,3.2498,3.1251,3.0371,2.997,3.0293,2.8828,2.8704,3.0246,3.0464,3.0525,3.0721,3.1011,3.1372,3.1764,3.1697,3.1992,3.2665,3.1699,3.0838,3.0075,2.9318,2.8148,2.655,2.6223,2.5592,2.5105,2.4856,2.5056,2.5547,2.6025,2.5862,2.5595,2.595,2.578,2.5139,2.4958,2.447,2.3957,2.372,2.3465,2.3295,2.3539,2.358,2.3451,2.3784,2.3526,2.3026,2.2841,2.2757,2.263,2.263,2.2556,2.2093,2.1334,2.0372,1.9436,1.9285,1.8698,1.7931,1.7528,1.614,1.5131,1.4725,1.4184,1.3452,1.1744,1.1744,1.1316,1.007,1.0327,1.0455,1.0045,1.0112,0.9633,0.8434,0.7806,0.6573,0.4568,0.3901,0.3184,0.2397,0.1634,0.0504,-0.1273,-0.128,-0.0909,0.0,0.0,-0.0532]}]]